[[{"header":{"parameterUnit":"m.s-1","parameterCategory":1,"la1":31.0,"la2":29.5877,"lo1":-88.7671,"lo2":-86.6584,"dy":0.0162,"dx":0.0185,"nx":115,"ny":88,"refTime":"2024-08-25T06:00:00:Z","depth":0,"parameterNumber":2,"parameterNumberName":"U-component_of_WINDS"},"data":[0.0,0.0,0.0,0.0,0.0,0.0,0.0,0.0,0.0,0.0,0.0,0.0,0.0,0.0,0.0,0.0,0.0,0.0,0.0,0.0,0.0,0.0,0.0,0.0,0.0,0.0,0.0,0.0,0.0,0.0,0.0,0.0,0.0,0.0,0.0,0.0,0.0,0.0,0.0,0.0,0.0,0.0,0.0,0.0,0.0,0.0,0.0,0.0,0.0,0.0,0.0,0.0,0.0,0.0,0.0,0.0,0.0,0.0,0.0,0.0,0.0,0.0,0.0,0.0,0.0,0.0,0.0,0.0,0.0,0.0,0.0,0.0,0.0,0.0,0.0,0.0,0.0,0.0,0.0,0.0,0.0,0.0,0.0,0.0,0.0,0.0,0.0,0.0,0.0,0.0,0.0,0.0,0.0,0.0,0.0,0.0,0.0,0.0,0.0,0.0,0.0,0.0,0.0,0.0,0.0,0.0,0.0,0.0,0.0,0.0,0.0,0.0,0.0,0.0,0.0,0.0,0.0,0.0,0.0,0.0,0.0,0.0,0.0,0.0,0.0,0.0,0.0,0.0,0.0,0.0,0.0,0.0,0.0,0.0,0.0,0.0,0.0,0.0,0.0,0.0,0.0,0.0,0.0,0.0,0.0,0.0,0.0,0.0,0.0,0.0,0.0,0.0,0.0,0.0,0.0,0.0,0.0,0.0,0.0,0.0,0.0,0.0,0.0,0.0,0.0,0.0,0.0,0.0,0.0,0.0,0.0,0.0,0.0,0.0,0.0,0.0,0.0,0.0,0.0,0.0,0.0,0.0,0.0,0.0,0.0,0.0,0.0,0.0,0.0,0.0,0.0,0.0,0.0,0.0,0.0,0.0,0.0,0.0,0.0,0.0,0.0,0.0,0.0,0.0,0.0,0.0,0.0,0.0,0.0,0.0,0.0,0.0,0.0,0.0,0.0,0.0,0.0,0.0,0.0,0.0,0.0,0.0,0.0,0.0,0.0,0.0,0.0,0.0,0.0,0.0,0.0,0.0,0.0,0.0,0.0,0.0,0.0,0.0,0.0,0.0,0.0,0.0,0.0,0.0,0.0,0.0,0.0,0.0,0.0,0.0,0.0,0.0,0.0,0.0,0.0,0.0,0.0,0.0,0.0,0.0,0.0,0.0,0.0,0.0,0.0,0.0,0.0,0.0,0.0,0.0,0.0,0.0,0.0,0.0,0.0,0.0,0.0,0.0,0.0,0.0,0.0,0.0,0.0,0.0,0.0,0.0,0.0,0.0,0.0,0.0,0.0,0.0,0.0,0.0,0.0,0.0,0.0,0.0,0.0,0.0,0.0,0.0,0.0,0.0,0.0,0.0,0.0,0.0,0.0,0.0,0.0,0.0,0.0,0.0,0.0,0.0,0.0,0.0,0.0,0.0,0.0,0.0,0.0,0.0,0.0,0.0,0.0,0.0,0.0,0.0,0.0,0.0,0.0,0.0,0.0,0.0,0.0,0.0,0.0,0.0,0.0,0.0,0.0,0.0,0.0,0.0,0.0,0.0,0.0,0.0,0.0,0.0,0.0,0.0,0.0,0.0,0.0,0.0,0.0,0.0,0.0,0.0,0.0,0.0,0.0,0.0,0.0,0.0,0.0,0.0,0.0,0.0,0.0,0.0,0.0,0.0,0.0,0.0,0.0,0.0,0.0,0.0,0.0,0.0,0.0,0.0,0.0,0.0,0.0,0.0,0.0,0.0,0.0,0.0,0.0,0.0,0.0,0.0,0.0,0.0,0.0,0.0,0.0,0.0,0.0,0.0,0.0,0.0,0.0,0.0,0.0,0.0,0.0,0.0,0.0,0.0,0.0,0.0,0.0,0.0,0.0,0.0,0.0,0.0,0.0,0.0,0.0,0.0,0.0,0.0,0.0,0.0,0.0,0.0,0.0,0.0,0.0,0.0,0.0,0.0,0.0,0.0,0.0,0.0,0.0,0.0,0.0,0.0,0.0,0.0,0.0,0.0,0.0,0.0,0.0,0.0,0.0,0.0,0.0,0.0,0.0,0.0,0.0,0.0,0.0,0.0,0.0,0.0,0.0,0.0,0.0,0.0,0.0,0.0,0.0,0.0,0.0,0.0,0.0,0.0,0.0,0.0,0.0,0.0,0.0,0.0,0.0,0.0,0.0,0.0,0.0,0.0,0.0,0.0,0.0,0.0,0.0,0.0,0.0,0.0,0.0,0.0,0.0,0.0,0.0,0.0,0.0,0.0,0.0,0.0,0.0,0.0,0.0,0.0,0.0,0.0,0.0,0.0,0.0,0.0,0.0,0.0,0.0,0.0,0.0,0.0,0.0,0.0,0.0,0.0,0.0,0.0,0.0,0.0,0.0,0.0,0.0,0.0,0.0,0.0,0.0,0.0,0.0,0.0,0.0,0.0,0.0,0.0,0.0,0.0,0.0,0.0,0.0,0.0,0.0,0.0,0.0,0.0,0.0,0.0,0.0,0.0,0.0,0.0,0.0,0.0,0.0,0.0,0.0,0.0,0.0,0.0,0.0,0.0,0.0,0.0,0.0,0.0,0.0,0.0,0.0,0.0,0.0,0.0,0.0,0.0,0.0,0.0,0.0,0.0,0.0,0.0,0.0,0.0,0.0,0.0,0.0,0.0,0.0,0.0,0.0,0.0,0.0,0.0,0.0,0.0,0.0,0.0,0.0,0.0,0.0,0.0,0.0,0.0,0.0,0.0,0.0,0.0,0.0,0.0,0.0,0.0,0.0,0.0,0.0,0.0,0.0,0.0,0.0,0.0,0.0,0.0,0.0,0.0,0.0,0.0,0.0,0.0,0.0,0.0,0.0,0.0,0.0,0.0,0.0,0.0,0.0,0.0,0.0,0.0,0.0,0.0,0.0,0.0,0.0,0.0,0.0,0.0,0.0,0.0,0.0,0.0,0.0,0.0,0.0,0.0,0.0,0.0,0.0,0.0,0.0,0.0,0.0,0.0,0.0,0.0,0.0,0.0,0.0,0.0,0.0,0.0,0.0,0.0,0.0,0.0,0.0,0.0,0.0,0.0,0.0,0.0,0.0,0.0,0.0,0.0,0.0,0.0,0.0,0.0,0.0,0.0,0.0,0.0,0.0,0.0,0.0,0.0,0.0,0.0,0.0,0.0,0.0,0.0,0.0,0.0,0.0,0.0,0.0,0.0,0.0,0.0,0.0,0.0,0.0,0.0,0.0,0.0,0.0,0.0,0.0,0.0,0.0,0.0,0.0,0.0,0.0,0.0,0.0,0.0,0.0,0.0,0.0,0.0,0.0,0.0,0.0,0.0,0.0,0.0,0.0,0.0,0.0,0.0,0.0,0.0,0.0,0.0,0.0,0.0,0.0,0.0,0.0,0.0,0.0,0.0,0.0,0.0,0.0,0.0,0.0,0.0,0.0,0.0,0.0,0.0,0.0,0.0,0.0,0.0,0.0,0.0,0.0,0.0,0.0,0.0,0.0,0.0,0.0,0.0,0.0,0.0,0.0,0.0,0.0,0.0,0.0,0.0,0.0,0.0,0.0,0.0,0.0,0.0,0.0,0.0,0.0,0.0,0.0,0.0,0.0,0.0,0.0,0.0,0.0,0.0,0.0,0.0,0.0,0.0,0.0,0.0,0.0,0.0,0.0,0.0,0.0,0.0,0.0,0.0,0.0,0.0,0.0,0.0,0.0,0.0,0.0,0.0,0.0,0.0,0.0,0.0,0.0,0.0,0.0,0.0,0.0,0.0,0.0,0.0,0.0,0.0,0.0,0.0,0.0,0.0,0.0,0.0,0.0,0.0,0.0,0.0,0.0,0.0,0.0,0.0,0.0,0.0,0.0,0.0,0.0,0.0,0.0,0.0,0.0,0.0,0.0,0.0,0.0,0.0,0.0,0.0,0.0,0.0,0.0,0.0,0.0,0.0,0.0,0.0,0.0,0.0,0.0,0.0,0.0,0.0,0.0,0.0,0.0,0.0,0.0,0.0,0.0,0.0,0.0,0.0,0.0,0.0,0.0,0.0,0.0,0.0,0.0,0.0,0.0,0.0,0.0,0.0,0.0,0.0,0.0,0.0,0.0,0.0,0.0,0.0,0.0,0.0,0.0,0.0,0.0,0.0,0.0,0.0,0.0,0.0,0.0,0.0,0.0,0.0,0.0,0.0,0.0,0.0,0.0,0.0,0.0,0.0,0.0,0.0,0.0,0.0,0.0,0.0,0.0,0.0,0.0,0.0,0.0,0.0,0.0,0.0,0.0,0.0,0.0,0.0,-3.3184,0.0,0.0,0.0,0.0,0.0,0.0,0.0,0.0,0.0,0.0,0.0,0.0,0.0,0.0,0.0,0.0,0.0,0.0,0.0,0.0,0.0,0.0,0.0,0.0,0.0,0.0,0.0,0.0,0.0,0.0,0.0,0.0,0.0,0.0,0.0,0.0,0.0,0.0,0.0,0.0,0.0,0.0,0.0,0.0,0.0,0.0,0.0,0.0,0.0,0.0,0.0,0.0,0.0,0.0,0.0,0.0,0.0,0.0,0.0,0.0,0.0,0.0,0.0,0.0,0.0,0.0,0.0,0.0,0.0,0.0,0.0,0.0,0.0,0.0,0.0,0.0,0.0,0.0,0.0,0.0,0.0,0.0,0.0,0.0,0.0,0.0,0.0,0.0,0.0,0.0,0.0,0.0,0.0,0.0,0.0,0.0,0.0,0.0,0.0,0.0,0.0,0.0,0.0,0.0,0.0,0.0,0.0,0.0,0.0,0.0,-3.5559,-3.5581,-3.5673,-3.5104,-3.3847,0.0,0.0,0.0,0.0,0.0,0.0,0.0,0.0,0.0,0.0,0.0,0.0,0.0,0.0,0.0,0.0,0.0,0.0,0.0,0.0,0.0,0.0,0.0,0.0,0.0,0.0,0.0,0.0,0.0,0.0,0.0,0.0,0.0,0.0,0.0,0.0,0.0,0.0,0.0,0.0,0.0,0.0,0.0,0.0,0.0,0.0,0.0,0.0,0.0,0.0,0.0,0.0,0.0,0.0,0.0,0.0,0.0,0.0,0.0,0.0,0.0,0.0,0.0,0.0,0.0,0.0,0.0,0.0,0.0,0.0,0.0,0.0,0.0,0.0,0.0,0.0,0.0,0.0,0.0,0.0,0.0,0.0,0.0,0.0,0.0,0.0,0.0,0.0,0.0,0.0,0.0,0.0,0.0,0.0,0.0,0.0,0.0,0.0,0.0,0.0,0.0,0.0,0.0,0.0,0.0,0.0,0.0,0.0,0.0,0.0,0.0,0.0,-3.6137,-3.5665,-3.4413,0.0,0.0,0.0,0.0,0.0,0.0,0.0,0.0,0.0,0.0,0.0,0.0,0.0,0.0,0.0,0.0,0.0,0.0,0.0,0.0,0.0,0.0,0.0,0.0,0.0,0.0,0.0,0.0,0.0,0.0,0.0,0.0,0.0,0.0,0.0,0.0,0.0,0.0,0.0,0.0,0.0,0.0,0.0,0.0,0.0,0.0,0.0,0.0,0.0,0.0,0.0,0.0,0.0,0.0,0.0,0.0,0.0,0.0,0.0,0.0,0.0,0.0,0.0,0.0,0.0,0.0,0.0,0.0,0.0,0.0,0.0,0.0,0.0,0.0,0.0,0.0,0.0,0.0,0.0,0.0,0.0,0.0,0.0,0.0,0.0,0.0,0.0,0.0,0.0,0.0,0.0,0.0,0.0,0.0,0.0,0.0,0.0,0.0,0.0,0.0,0.0,0.0,0.0,0.0,0.0,0.0,0.0,0.0,0.0,0.0,-3.6722,-3.6801,-3.7535,0.0,-3.4471,0.0,0.0,0.0,0.0,0.0,0.0,0.0,0.0,0.0,0.0,0.0,0.0,0.0,0.0,0.0,0.0,0.0,0.0,0.0,0.0,0.0,0.0,0.0,0.0,0.0,0.0,0.0,0.0,0.0,0.0,0.0,0.0,0.0,0.0,0.0,0.0,0.0,0.0,0.0,0.0,0.0,0.0,0.0,0.0,0.0,0.0,0.0,0.0,0.0,0.0,0.0,0.0,0.0,0.0,0.0,0.0,0.0,0.0,0.0,0.0,0.0,0.0,0.0,0.0,0.0,0.0,0.0,0.0,0.0,0.0,0.0,0.0,0.0,0.0,0.0,0.0,0.0,0.0,0.0,0.0,0.0,0.0,0.0,0.0,0.0,0.0,0.0,0.0,0.0,0.0,0.0,0.0,0.0,0.0,0.0,0.0,0.0,0.0,0.0,0.0,0.0,0.0,0.0,0.0,0.0,0.0,0.0,0.0,0.0,0.0,0.0,-3.7651,-3.7516,-3.6477,0.0,0.0,0.0,0.0,0.0,0.0,0.0,0.0,0.0,0.0,0.0,0.0,0.0,0.0,0.0,0.0,0.0,0.0,0.0,0.0,0.0,0.0,0.0,0.0,0.0,0.0,0.0,0.0,0.0,0.0,0.0,0.0,0.0,0.0,0.0,0.0,0.0,0.0,0.0,0.0,0.0,0.0,0.0,0.0,0.0,0.0,0.0,0.0,0.0,0.0,0.0,0.0,0.0,0.0,0.0,0.0,0.0,0.0,0.0,0.0,0.0,0.0,0.0,0.0,0.0,0.0,0.0,0.0,0.0,0.0,0.0,0.0,0.0,0.0,0.0,0.0,0.0,0.0,0.0,0.0,0.0,0.0,0.0,0.0,0.0,0.0,0.0,0.0,0.0,0.0,0.0,0.0,0.0,0.0,0.0,0.0,0.0,0.0,0.0,0.0,0.0,0.0,0.0,0.0,0.0,0.0,0.0,0.0,0.0,0.0,-3.6871,0.0,-3.8792,-3.7831,-3.6361,-3.4471,0.0,0.0,0.0,0.0,0.0,0.0,0.0,0.0,0.0,0.0,0.0,0.0,0.0,0.0,0.0,0.0,0.0,0.0,0.0,0.0,0.0,0.0,0.0,0.0,0.0,0.0,0.0,0.0,0.0,0.0,0.0,0.0,0.0,0.0,0.0,0.0,0.0,0.0,0.0,0.0,0.0,0.0,0.0,0.0,0.0,0.0,0.0,0.0,0.0,0.0,0.0,0.0,0.0,0.0,0.0,0.0,0.0,0.0,0.0,0.0,0.0,0.0,0.0,0.0,0.0,0.0,0.0,0.0,0.0,0.0,0.0,0.0,0.0,0.0,0.0,0.0,0.0,0.0,0.0,0.0,0.0,0.0,0.0,0.0,0.0,0.0,0.0,0.0,0.0,0.0,0.0,0.0,0.0,0.0,0.0,0.0,0.0,0.0,0.0,0.0,0.0,0.0,0.0,0.0,0.0,0.0,0.0,0.0,0.0,-3.7205,-3.8891,-4.052,-3.903,-3.6961,0.0,0.0,0.0,0.0,0.0,0.0,0.0,0.0,0.0,0.0,0.0,0.0,0.0,0.0,0.0,0.0,0.0,0.0,0.0,0.0,0.0,0.0,0.0,0.0,0.0,0.0,0.0,0.0,0.0,0.0,0.0,0.0,0.0,0.0,0.0,0.0,0.0,0.0,0.0,0.0,0.0,0.0,0.0,0.0,0.0,0.0,0.0,0.0,0.0,0.0,0.0,0.0,0.0,0.0,0.0,0.0,0.0,0.0,0.0,0.0,0.0,0.0,0.0,0.0,0.0,0.0,0.0,0.0,0.0,0.0,0.0,0.0,0.0,0.0,0.0,0.0,0.0,0.0,0.0,0.0,0.0,0.0,0.0,0.0,0.0,0.0,0.0,0.0,0.0,0.0,0.0,0.0,0.0,0.0,0.0,0.0,0.0,0.0,0.0,0.0,0.0,0.0,0.0,0.0,0.0,0.0,0.0,0.0,0.0,-3.6298,-3.8634,-3.9863,-3.9946,-3.8818,-3.7,0.0,0.0,0.0,0.0,0.0,0.0,0.0,0.0,0.0,0.0,0.0,0.0,0.0,0.0,0.0,0.0,0.0,0.0,0.0,0.0,0.0,0.0,0.0,0.0,0.0,0.0,0.0,0.0,0.0,0.0,0.0,0.0,0.0,0.0,0.0,0.0,0.0,0.0,0.0,0.0,0.0,0.0,0.0,0.0,0.0,0.0,0.0,0.0,0.0,0.0,0.0,0.0,0.0,0.0,0.0,0.0,0.0,0.0,0.0,0.0,0.0,0.0,0.0,0.0,0.0,0.0,0.0,0.0,0.0,0.0,0.0,0.0,0.0,0.0,0.0,0.0,0.0,0.0,0.0,0.0,0.0,0.0,0.0,0.0,0.0,0.0,0.0,0.0,0.0,0.0,0.0,0.0,0.0,0.0,0.0,0.0,0.0,0.0,0.0,0.0,0.0,0.0,0.0,0.0,0.0,0.0,0.0,0.0,0.0,-3.718,0.0,-4.01,0.0,-3.8663,-3.6884,0.0,0.0,0.0,0.0,0.0,0.0,0.0,0.0,0.0,0.0,0.0,0.0,0.0,0.0,0.0,0.0,0.0,0.0,0.0,0.0,0.0,0.0,0.0,0.0,0.0,0.0,0.0,0.0,0.0,0.0,0.0,0.0,0.0,0.0,0.0,0.0,0.0,0.0,0.0,0.0,0.0,0.0,0.0,0.0,0.0,0.0,0.0,0.0,0.0,0.0,0.0,0.0,0.0,0.0,0.0,0.0,0.0,0.0,0.0,0.0,0.0,0.0,0.0,0.0,0.0,0.0,0.0,0.0,0.0,0.0,0.0,0.0,0.0,0.0,0.0,0.0,0.0,0.0,0.0,0.0,0.0,0.0,0.0,0.0,0.0,0.0,0.0,0.0,0.0,0.0,0.0,0.0,0.0,0.0,0.0,0.0,0.0,0.0,0.0,0.0,0.0,0.0,0.0,0.0,0.0,0.0,0.0,0.0,-3.4655,-3.8048,-3.9096,-3.9597,-3.9501,-3.8682,-3.6607,0.0,0.0,0.0,0.0,0.0,0.0,0.0,0.0,0.0,0.0,0.0,0.0,0.0,0.0,0.0,0.0,0.0,0.0,0.0,0.0,0.0,0.0,0.0,0.0,0.0,0.0,0.0,0.0,0.0,0.0,0.0,0.0,0.0,0.0,0.0,0.0,0.0,0.0,0.0,0.0,0.0,0.0,0.0,0.0,0.0,0.0,0.0,0.0,0.0,0.0,0.0,0.0,0.0,0.0,0.0,0.0,0.0,0.0,0.0,0.0,0.0,0.0,0.0,0.0,0.0,0.0,0.0,0.0,0.0,0.0,0.0,0.0,0.0,0.0,0.0,0.0,0.0,0.0,0.0,0.0,0.0,0.0,0.0,0.0,0.0,0.0,0.0,0.0,0.0,0.0,0.0,0.0,0.0,0.0,0.0,0.0,0.0,0.0,0.0,0.0,0.0,0.0,0.0,0.0,0.0,0.0,0.0,0.0,0.0,-3.8942,-3.9927,-4.041,-4.0352,-3.8972,-3.6878,0.0,0.0,0.0,0.0,0.0,0.0,0.0,0.0,0.0,0.0,0.0,0.0,0.0,0.0,0.0,0.0,0.0,0.0,0.0,0.0,0.0,0.0,0.0,0.0,0.0,0.0,0.0,0.0,0.0,0.0,0.0,0.0,0.0,0.0,0.0,0.0,0.0,0.0,0.0,0.0,0.0,0.0,0.0,0.0,0.0,0.0,0.0,0.0,0.0,0.0,0.0,0.0,0.0,0.0,0.0,0.0,0.0,0.0,0.0,0.0,0.0,0.0,0.0,0.0,0.0,0.0,0.0,0.0,0.0,0.0,0.0,0.0,0.0,0.0,0.0,0.0,0.0,0.0,0.0,0.0,0.0,0.0,0.0,0.0,0.0,0.0,0.0,0.0,0.0,0.0,0.0,0.0,0.0,0.0,0.0,0.0,0.0,0.0,0.0,0.0,0.0,0.0,0.0,0.0,0.0,0.0,0.0,0.0,0.0,-4.0256,-4.0662,-4.0797,-4.0797,-3.9417,-3.7328,-3.451,0.0,0.0,0.0,0.0,0.0,0.0,0.0,0.0,0.0,0.0,0.0,0.0,0.0,0.0,0.0,0.0,0.0,0.0,0.0,0.0,0.0,0.0,0.0,0.0,0.0,0.0,0.0,0.0,0.0,0.0,0.0,0.0,0.0,0.0,0.0,0.0,0.0,0.0,0.0,0.0,0.0,0.0,0.0,0.0,0.0,0.0,0.0,0.0,0.0,0.0,0.0,0.0,0.0,0.0,0.0,0.0,0.0,0.0,0.0,0.0,0.0,0.0,0.0,0.0,0.0,0.0,0.0,0.0,0.0,0.0,0.0,0.0,0.0,0.0,0.0,0.0,0.0,0.0,0.0,0.0,0.0,0.0,0.0,0.0,0.0,0.0,0.0,0.0,0.0,0.0,0.0,0.0,0.0,0.0,0.0,0.0,0.0,0.0,0.0,0.0,0.0,0.0,0.0,0.0,0.0,0.0,0.0,0.0,-4.1949,-4.1351,-4.1061,-4.1067,-4.0042,-3.7972,0.0,0.0,0.0,0.0,0.0,0.0,0.0,0.0,0.0,0.0,0.0,0.0,0.0,0.0,0.0,0.0,0.0,0.0,0.0,0.0,0.0,0.0,0.0,0.0,0.0,0.0,0.0,0.0,0.0,0.0,0.0,0.0,0.0,0.0,0.0,0.0,0.0,0.0,0.0,0.0,0.0,0.0,0.0,0.0,0.0,0.0,0.0,0.0,0.0,0.0,0.0,0.0,0.0,0.0,0.0,0.0,0.0,0.0,0.0,0.0,0.0,0.0,0.0,0.0,0.0,0.0,0.0,0.0,0.0,0.0,0.0,0.0,0.0,0.0,0.0,0.0,0.0,0.0,0.0,0.0,0.0,0.0,0.0,0.0,0.0,0.0,0.0,0.0,0.0,0.0,0.0,0.0,0.0,0.0,0.0,0.0,0.0,0.0,0.0,0.0,0.0,0.0,0.0,0.0,0.0,0.0,0.0,0.0,0.0,-4.1868,-4.2917,-4.3513,-4.353,-4.0945,-3.8785,0.0,0.0,0.0,0.0,0.0,0.0,0.0,0.0,0.0,0.0,0.0,0.0,0.0,0.0,0.0,0.0,0.0,0.0,0.0,0.0,0.0,0.0,0.0,0.0,0.0,0.0,0.0,0.0,0.0,0.0,0.0,0.0,0.0,0.0,0.0,0.0,0.0,0.0,0.0,0.0,0.0,0.0,0.0,0.0,0.0,0.0,0.0,0.0,0.0,0.0,0.0,0.0,0.0,0.0,0.0,0.0,0.0,0.0,0.0,0.0,0.0,0.0,0.0,0.0,0.0,0.0,0.0,0.0,0.0,0.0,0.0,0.0,0.0,0.0,0.0,0.0,0.0,0.0,0.0,0.0,0.0,0.0,0.0,0.0,0.0,0.0,0.0,0.0,0.0,0.0,0.0,0.0,0.0,0.0,0.0,0.0,0.0,0.0,0.0,0.0,0.0,0.0,0.0,0.0,0.0,0.0,0.0,0.0,-4.0714,-4.2371,-4.4068,-4.4986,-4.5054,-4.2137,-3.9779,0.0,0.0,0.0,0.0,0.0,0.0,0.0,0.0,0.0,0.0,0.0,0.0,0.0,0.0,0.0,0.0,0.0,0.0,0.0,0.0,0.0,0.0,0.0,0.0,0.0,0.0,0.0,0.0,0.0,0.0,0.0,0.0,0.0,0.0,0.0,0.0,0.0,0.0,0.0,0.0,0.0,0.0,0.0,0.0,0.0,0.0,0.0,0.0,0.0,0.0,0.0,0.0,0.0,0.0,0.0,0.0,0.0,0.0,0.0,0.0,0.0,0.0,0.0,0.0,0.0,0.0,0.0,0.0,0.0,0.0,0.0,0.0,0.0,0.0,0.0,0.0,0.0,0.0,0.0,0.0,0.0,0.0,0.0,0.0,0.0,0.0,0.0,0.0,0.0,0.0,0.0,0.0,0.0,0.0,0.0,0.0,0.0,0.0,0.0,0.0,0.0,0.0,0.0,0.0,0.0,0.0,0.0,0.0,-4.1389,-4.3054,-4.4807,-4.569,-4.5615,-4.3299,-4.0861,0.0,0.0,0.0,0.0,0.0,0.0,0.0,0.0,0.0,0.0,0.0,0.0,0.0,0.0,0.0,0.0,0.0,0.0,0.0,0.0,0.0,0.0,0.0,0.0,0.0,0.0,0.0,0.0,0.0,0.0,0.0,0.0,0.0,0.0,0.0,0.0,0.0,0.0,0.0,0.0,0.0,0.0,0.0,0.0,0.0,0.0,0.0,0.0,0.0,0.0,0.0,0.0,0.0,0.0,0.0,0.0,0.0,0.0,0.0,0.0,0.0,0.0,0.0,0.0,0.0,0.0,0.0,0.0,0.0,0.0,0.0,0.0,0.0,0.0,0.0,0.0,0.0,0.0,0.0,0.0,0.0,0.0,0.0,0.0,0.0,0.0,0.0,0.0,0.0,0.0,0.0,0.0,0.0,0.0,0.0,0.0,0.0,0.0,0.0,0.0,0.0,0.0,0.0,0.0,0.0,0.0,0.0,0.0,-4.137,-4.3082,-4.4757,-4.5631,-4.5601,-4.322,-4.1328,0.0,0.0,0.0,0.0,0.0,0.0,0.0,0.0,0.0,0.0,0.0,0.0,0.0,0.0,0.0,0.0,0.0,0.0,0.0,0.0,0.0,0.0,0.0,0.0,0.0,0.0,0.0,0.0,0.0,0.0,0.0,0.0,0.0,0.0,0.0,0.0,0.0,0.0,0.0,0.0,0.0,0.0,0.0,0.0,0.0,0.0,0.0,0.0,-3.6731,0.0,0.0,0.0,0.0,0.0,0.0,0.0,0.0,0.0,0.0,0.0,0.0,0.0,0.0,0.0,0.0,0.0,0.0,0.0,0.0,0.0,0.0,0.0,0.0,0.0,0.0,0.0,0.0,0.0,0.0,0.0,0.0,0.0,0.0,0.0,0.0,0.0,0.0,0.0,0.0,0.0,0.0,0.0,0.0,0.0,0.0,0.0,0.0,0.0,0.0,0.0,0.0,0.0,0.0,0.0,0.0,0.0,0.0,0.0,-4.1338,-4.3066,-4.4335,-4.4989,-4.4921,-4.2953,-4.1462,0.0,0.0,0.0,0.0,0.0,0.0,0.0,0.0,0.0,0.0,0.0,0.0,0.0,0.0,0.0,0.0,0.0,0.0,0.0,0.0,0.0,0.0,0.0,0.0,0.0,0.0,0.0,0.0,0.0,0.0,0.0,0.0,0.0,0.0,0.0,0.0,0.0,0.0,0.0,0.0,0.0,0.0,0.0,0.0,0.0,0.0,0.0,0.0,0.0,0.0,0.0,0.0,0.0,0.0,0.0,0.0,0.0,0.0,0.0,0.0,0.0,0.0,0.0,0.0,0.0,0.0,0.0,0.0,0.0,0.0,0.0,0.0,0.0,0.0,0.0,0.0,0.0,0.0,0.0,0.0,0.0,0.0,0.0,0.0,0.0,0.0,0.0,0.0,0.0,0.0,0.0,0.0,0.0,0.0,0.0,0.0,0.0,0.0,0.0,0.0,0.0,0.0,0.0,0.0,0.0,0.0,0.0,-3.8607,-4.116,-4.2835,-4.3701,-4.4124,-4.4085,-4.247,-4.1158,-4.0195,0.0,0.0,0.0,0.0,0.0,0.0,0.0,0.0,0.0,0.0,0.0,0.0,0.0,0.0,0.0,0.0,0.0,0.0,0.0,0.0,0.0,0.0,0.0,0.0,0.0,0.0,0.0,0.0,0.0,0.0,0.0,0.0,0.0,0.0,0.0,0.0,0.0,0.0,-3.3869,-3.5712,0.0,0.0,0.0,0.0,0.0,0.0,0.0,0.0,-3.7299,0.0,0.0,0.0,0.0,0.0,0.0,0.0,0.0,0.0,0.0,0.0,0.0,0.0,0.0,0.0,0.0,0.0,0.0,0.0,0.0,0.0,0.0,0.0,0.0,0.0,0.0,0.0,0.0,0.0,0.0,0.0,0.0,0.0,0.0,0.0,0.0,0.0,0.0,0.0,0.0,0.0,0.0,0.0,0.0,0.0,0.0,0.0,0.0,0.0,0.0,0.0,0.0,0.0,0.0,0.0,0.0,-3.519,-3.7988,-4.0257,-4.1981,-4.2874,-4.3297,-4.3258,-4.1604,-4.0015,-3.8445,0.0,0.0,0.0,0.0,0.0,0.0,0.0,0.0,0.0,0.0,0.0,0.0,0.0,0.0,0.0,0.0,0.0,0.0,0.0,0.0,0.0,0.0,0.0,0.0,0.0,0.0,0.0,0.0,0.0,0.0,0.0,0.0,0.0,0.0,0.0,0.0,0.0,0.0,0.0,-3.6075,-3.7102,0.0,0.0,0.0,0.0,0.0,0.0,0.0,0.0,-3.7368,0.0,0.0,0.0,0.0,0.0,0.0,0.0,0.0,0.0,0.0,0.0,0.0,0.0,0.0,0.0,0.0,0.0,0.0,0.0,0.0,0.0,0.0,0.0,0.0,0.0,0.0,0.0,0.0,0.0,0.0,0.0,0.0,0.0,0.0,0.0,0.0,0.0,0.0,0.0,0.0,0.0,0.0,0.0,0.0,0.0,0.0,0.0,0.0,0.0,0.0,0.0,0.0,0.0,0.0,0.0,-3.516,-3.8129,-4.0366,-4.175,-4.222,-4.2431,-4.2393,-4.0785,-3.89,0.0,0.0,0.0,0.0,0.0,0.0,0.0,0.0,0.0,0.0,0.0,0.0,0.0,0.0,0.0,0.0,0.0,0.0,0.0,0.0,0.0,0.0,0.0,0.0,0.0,0.0,0.0,0.0,0.0,0.0,0.0,0.0,0.0,0.0,0.0,0.0,0.0,0.0,0.0,0.0,-3.7485,-3.8418,-3.9269,0.0,0.0,0.0,0.0,0.0,0.0,-3.8511,-3.7868,0.0,0.0,0.0,0.0,0.0,0.0,0.0,0.0,0.0,0.0,0.0,0.0,0.0,0.0,0.0,0.0,0.0,0.0,0.0,0.0,0.0,0.0,0.0,0.0,0.0,0.0,0.0,0.0,0.0,0.0,0.0,0.0,0.0,0.0,0.0,0.0,0.0,0.0,0.0,0.0,0.0,0.0,0.0,0.0,0.0,0.0,0.0,0.0,0.0,0.0,0.0,0.0,0.0,0.0,0.0,-3.5098,-3.8232,-4.0404,-4.1473,-4.1546,-4.147,-4.1277,-3.9654,-3.7654,0.0,0.0,0.0,0.0,0.0,0.0,0.0,0.0,0.0,0.0,0.0,0.0,0.0,0.0,0.0,0.0,0.0,0.0,0.0,0.0,0.0,0.0,0.0,0.0,0.0,0.0,0.0,0.0,0.0,0.0,0.0,0.0,0.0,0.0,0.0,0.0,0.0,0.0,0.0,0.0,0.0,-3.9702,-4.0775,-4.099,0.0,0.0,0.0,0.0,-3.9752,-3.9057,0.0,0.0,0.0,0.0,0.0,0.0,0.0,0.0,0.0,0.0,0.0,0.0,0.0,0.0,0.0,0.0,0.0,0.0,0.0,0.0,0.0,0.0,0.0,0.0,0.0,0.0,0.0,0.0,0.0,0.0,0.0,0.0,0.0,0.0,0.0,0.0,0.0,0.0,0.0,0.0,0.0,0.0,0.0,0.0,0.0,0.0,0.0,0.0,0.0,0.0,0.0,0.0,0.0,0.0,0.0,0.0,-3.4988,-3.7661,-3.9562,-4.0577,-4.065,-4.0323,-3.9592,-3.7908,-3.6178,0.0,0.0,0.0,0.0,0.0,0.0,0.0,0.0,0.0,0.0,0.0,0.0,0.0,0.0,0.0,0.0,0.0,0.0,0.0,0.0,0.0,0.0,0.0,0.0,0.0,0.0,0.0,0.0,0.0,0.0,0.0,0.0,0.0,0.0,0.0,0.0,0.0,0.0,0.0,0.0,0.0,-3.9875,-4.1443,-4.1774,-4.1835,0.0,0.0,-4.0661,-4.0642,-3.9915,0.0,0.0,0.0,0.0,0.0,0.0,0.0,0.0,0.0,0.0,0.0,0.0,0.0,0.0,0.0,0.0,0.0,0.0,0.0,0.0,0.0,0.0,0.0,0.0,0.0,0.0,0.0,0.0,0.0,0.0,0.0,0.0,0.0,0.0,0.0,0.0,0.0,0.0,0.0,0.0,0.0,0.0,0.0,0.0,0.0,0.0,0.0,0.0,0.0,0.0,0.0,0.0,0.0,0.0,0.0,-3.2485,-3.4773,-3.7724,-3.9518,-4.0082,-3.9771,-3.9359,-3.8917,-3.6998,-3.5342,0.0,0.0,0.0,0.0,0.0,0.0,0.0,0.0,0.0,0.0,0.0,0.0,0.0,0.0,0.0,0.0,0.0,0.0,0.0,0.0,0.0,0.0,0.0,0.0,0.0,0.0,0.0,0.0,0.0,0.0,0.0,0.0,0.0,0.0,0.0,0.0,0.0,0.0,0.0,0.0,0.0,0.0,-4.1617,-4.2275,0.0,0.0,0.0,-4.0797,-4.0797,0.0,0.0,0.0,0.0,0.0,0.0,0.0,0.0,0.0,0.0,0.0,0.0,0.0,0.0,0.0,0.0,0.0,0.0,0.0,0.0,0.0,0.0,0.0,0.0,0.0,0.0,0.0,0.0,0.0,0.0,0.0,0.0,0.0,0.0,0.0,0.0,0.0,0.0,0.0,0.0,0.0,0.0,0.0,0.0,0.0,0.0,0.0,0.0,0.0,0.0,0.0,0.0,0.0,0.0,0.0,0.0,0.0,-3.4599,-3.7404,-3.907,-3.9456,-3.887,-3.8347,-3.7952,-3.6001,0.0,0.0,0.0,0.0,0.0,0.0,0.0,0.0,0.0,0.0,0.0,0.0,0.0,0.0,0.0,0.0,0.0,0.0,0.0,0.0,0.0,0.0,0.0,0.0,0.0,0.0,0.0,-2.6349,0.0,0.0,0.0,0.0,0.0,0.0,0.0,0.0,0.0,0.0,0.0,0.0,0.0,0.0,-4.0886,-4.1694,-4.2537,-4.2834,0.0,0.0,-4.1029,-4.0835,-4.0428,-3.9762,0.0,0.0,0.0,0.0,0.0,0.0,0.0,0.0,0.0,0.0,0.0,0.0,0.0,0.0,0.0,0.0,0.0,0.0,0.0,0.0,0.0,0.0,0.0,0.0,0.0,0.0,0.0,0.0,0.0,0.0,0.0,0.0,0.0,0.0,0.0,0.0,0.0,0.0,0.0,0.0,0.0,0.0,0.0,0.0,0.0,0.0,0.0,0.0,0.0,0.0,0.0,0.0,0.0,0.0,0.0,-3.4551,-3.6288,-3.7679,-3.8624,-3.7915,-3.7109,-3.6283,-3.4624,-3.3344,0.0,0.0,0.0,0.0,0.0,0.0,0.0,0.0,0.0,0.0,0.0,0.0,0.0,0.0,0.0,0.0,0.0,0.0,0.0,0.0,0.0,0.0,0.0,0.0,0.0,0.0,0.0,0.0,0.0,0.0,0.0,0.0,0.0,0.0,0.0,0.0,0.0,0.0,0.0,0.0,0.0,-4.152,-4.1769,-4.2541,-4.2834,0.0,0.0,-4.1661,-4.0913,-4.1377,-4.128,-3.9675,0.0,0.0,0.0,0.0,0.0,0.0,0.0,0.0,0.0,0.0,0.0,0.0,0.0,0.0,0.0,0.0,0.0,0.0,0.0,0.0,0.0,0.0,0.0,0.0,0.0,0.0,0.0,0.0,0.0,0.0,0.0,0.0,0.0,0.0,0.0,0.0,0.0,0.0,0.0,0.0,0.0,0.0,0.0,0.0,0.0,0.0,0.0,0.0,0.0,0.0,0.0,0.0,0.0,-3.1589,-3.359,-3.5725,-3.7025,-3.7384,-3.6765,-3.6193,-3.5735,-3.4312,-3.31,0.0,0.0,0.0,0.0,0.0,0.0,0.0,0.0,0.0,0.0,0.0,0.0,0.0,0.0,0.0,0.0,0.0,0.0,0.0,0.0,0.0,0.0,0.0,0.0,0.0,0.0,0.0,0.0,-3.1171,-3.1891,-3.2262,0.0,0.0,0.0,0.0,0.0,0.0,0.0,0.0,0.0,0.0,-4.1436,-4.1587,-4.2359,0.0,0.0,-4.1525,-4.1164,-4.0855,-4.1067,-4.0874,-3.9694,-3.923,0.0,0.0,0.0,0.0,0.0,0.0,0.0,0.0,0.0,0.0,0.0,0.0,0.0,0.0,0.0,0.0,0.0,0.0,0.0,0.0,0.0,0.0,0.0,0.0,0.0,0.0,0.0,0.0,0.0,0.0,0.0,0.0,0.0,0.0,0.0,0.0,0.0,0.0,0.0,0.0,0.0,0.0,0.0,0.0,0.0,0.0,0.0,0.0,0.0,0.0,0.0,0.0,-3.1129,-3.2948,-3.489,-3.6022,-3.6263,-3.5621,-3.5204,-3.5014,-3.39,-3.2975,0.0,0.0,0.0,0.0,0.0,0.0,0.0,0.0,0.0,0.0,0.0,0.0,0.0,0.0,0.0,0.0,0.0,0.0,0.0,0.0,0.0,0.0,0.0,0.0,0.0,0.0,0.0,0.0,-3.2871,-3.35,-3.3586,0.0,0.0,0.0,0.0,0.0,0.0,0.0,0.0,0.0,0.0,-4.1448,-4.118,-4.1858,-4.2189,-4.1547,-4.1265,-4.1042,-4.0797,-4.0984,-4.0874,-4.0023,0.0,0.0,0.0,0.0,0.0,0.0,0.0,0.0,0.0,0.0,0.0,0.0,0.0,0.0,0.0,0.0,0.0,0.0,0.0,0.0,0.0,0.0,0.0,0.0,0.0,0.0,0.0,0.0,0.0,0.0,0.0,0.0,0.0,0.0,0.0,0.0,0.0,0.0,0.0,0.0,0.0,0.0,0.0,0.0,0.0,0.0,0.0,0.0,0.0,0.0,0.0,0.0,0.0,-3.0535,-3.287,-3.3716,-3.4491,-3.528,-3.4504,-3.406,-3.4029,-3.3235,-3.2834,-3.2834,0.0,0.0,0.0,0.0,0.0,0.0,0.0,0.0,0.0,0.0,0.0,0.0,0.0,0.0,0.0,0.0,0.0,0.0,0.0,0.0,0.0,0.0,0.0,0.0,0.0,0.0,-3.2575,-3.3506,-3.4123,0.0,0.0,0.0,0.0,0.0,0.0,0.0,0.0,0.0,0.0,-4.0679,-4.1699,-4.0454,-4.0989,-4.134,-4.0723,-4.1318,-4.1593,-4.0829,-4.1403,-4.1699,0.0,0.0,0.0,0.0,0.0,0.0,0.0,0.0,0.0,0.0,0.0,0.0,0.0,0.0,0.0,0.0,0.0,0.0,0.0,0.0,0.0,0.0,0.0,0.0,0.0,0.0,0.0,-2.9885,-2.9661,0.0,0.0,0.0,0.0,0.0,0.0,0.0,0.0,0.0,0.0,0.0,-3.3304,-3.2286,0.0,0.0,0.0,0.0,0.0,0.0,0.0,0.0,0.0,0.0,0.0,0.0,-3.0697,-3.2027,-3.3327,-3.4146,-3.4436,-3.4146,-3.3998,-3.3998,-3.3739,-3.3105,-3.2064,0.0,0.0,0.0,0.0,0.0,0.0,0.0,0.0,0.0,0.0,0.0,0.0,0.0,0.0,0.0,0.0,0.0,0.0,0.0,0.0,0.0,0.0,0.0,0.0,0.0,-3.2368,0.0,0.0,0.0,0.0,0.0,0.0,0.0,0.0,0.0,0.0,0.0,-3.9827,-4.0741,-4.1575,-4.1806,-4.0919,-4.1113,-4.1121,0.0,0.0,0.0,0.0,0.0,0.0,0.0,0.0,0.0,0.0,0.0,0.0,0.0,0.0,-3.9997,-3.7773,-3.7373,-3.7274,-3.7021,0.0,0.0,0.0,0.0,0.0,0.0,0.0,0.0,0.0,0.0,0.0,0.0,0.0,0.0,0.0,0.0,-2.9825,0.0,0.0,0.0,0.0,0.0,0.0,0.0,0.0,-3.3628,-3.4352,-3.4838,-3.4076,-3.3697,0.0,-3.3033,-3.1411,0.0,0.0,0.0,0.0,0.0,0.0,0.0,0.0,-3.0515,-3.1352,-3.2936,-3.3757,-3.377,-3.3863,-3.3934,-3.3934,-3.3934,-3.3313,-3.1986,-3.0821,-2.9563,0.0,0.0,0.0,0.0,0.0,0.0,0.0,0.0,0.0,0.0,0.0,0.0,0.0,0.0,0.0,0.0,0.0,0.0,0.0,0.0,0.0,0.0,0.0,-3.2827,0.0,0.0,0.0,0.0,0.0,0.0,0.0,0.0,0.0,-3.9234,-4.0037,-4.0959,-4.1839,-4.1991,-4.1863,-4.1529,0.0,0.0,0.0,0.0,0.0,0.0,0.0,-4.257,-4.3106,-4.3252,-4.3189,-4.2899,-4.3092,-4.2763,-4.1106,0.0,0.0,-3.905,-3.8644,-3.8649,-3.8659,-3.8681,-3.881,-3.9151,-3.9298,-3.937,0.0,0.0,0.0,0.0,0.0,0.0,0.0,0.0,-3.2889,-3.2462,0.0,-3.1429,0.0,0.0,0.0,0.0,0.0,0.0,0.0,0.0,-3.5535,-3.6262,-3.6194,-3.5521,-3.5214,-3.518,-3.4555,-3.3833,-3.2986,-3.1096,0.0,0.0,0.0,0.0,0.0,0.0,-3.0039,-3.0824,-3.243,-3.3255,-3.3197,-3.3556,-3.378,-3.3762,-3.3743,-3.3321,-3.2543,-3.2106,-3.0917,-2.8721,-2.8355,0.0,0.0,0.0,0.0,0.0,0.0,0.0,0.0,0.0,0.0,0.0,0.0,0.0,0.0,0.0,0.0,0.0,0.0,0.0,0.0,-3.2069,0.0,0.0,0.0,0.0,0.0,0.0,0.0,0.0,0.0,0.0,-3.9388,-4.1378,-4.269,-4.2104,0.0,0.0,0.0,0.0,-4.1387,-4.2392,-4.2563,-4.2628,-4.2862,-4.3035,-4.3153,-4.325,0.0,0.0,-4.2254,-4.2821,-4.2879,-4.1164,-4.1545,-4.1506,-3.9868,-3.9539,-3.9526,-3.9536,-3.9542,-3.9849,-4.062,-4.0762,-4.086,-3.2954,0.0,0.0,0.0,0.0,-3.2194,-3.2629,-3.3342,-3.3127,-3.2947,-3.2794,-3.2065,0.0,0.0,0.0,0.0,0.0,0.0,-3.3125,-3.4132,-3.5082,-3.5677,-3.5937,-3.5715,-3.5741,-3.5973,-3.579,-3.5031,-3.3822,-3.3227,-3.2003,-3.0242,0.0,0.0,0.0,0.0,-3.0874,-3.0689,-3.2133,-3.2396,-3.1347,-3.2484,-3.3075,-3.309,-3.2583,-3.1917,-3.1128,-3.0449,-2.9769,-2.904,-2.7919,0.0,0.0,0.0,0.0,0.0,0.0,0.0,0.0,0.0,0.0,0.0,0.0,0.0,0.0,0.0,0.0,0.0,0.0,0.0,-3.2556,-3.324,-3.3872,0.0,0.0,0.0,0.0,0.0,0.0,0.0,0.0,0.0,-4.1897,-4.2737,-4.3592,0.0,0.0,-4.3249,-4.2888,-4.2165,-4.1768,-4.2103,0.0,0.0,0.0,-4.3452,-4.3808,-4.445,-4.4771,-4.4643,-4.3775,-4.4428,-4.433,-4.2086,-4.2357,-4.2396,-4.0829,-4.0429,-4.041,-4.0416,-4.0422,-4.0505,-4.0761,-4.0873,-4.0953,-3.3107,-3.2244,-3.2579,-3.2765,-3.2813,-3.2813,-3.3088,-3.351,-3.3535,-3.3454,-3.3314,-3.287,-3.2216,-3.1397,-3.0744,0.0,0.0,0.0,-3.3504,-3.4543,-3.5,-3.5171,-3.5165,-3.528,-3.5284,-3.5256,-3.5342,-3.4976,-3.4096,-3.3766,-3.3035,-3.1812,0.0,0.0,-3.0198,-3.0919,-3.0969,-3.0311,-3.1505,-3.1552,-3.0376,-3.1658,-3.2204,-3.1916,-3.1755,-3.1326,-3.0526,-2.9908,-2.9556,-2.9498,-2.8585,-2.7991,0.0,0.0,0.0,0.0,0.0,0.0,0.0,0.0,0.0,0.0,0.0,-2.8417,-2.9413,0.0,0.0,0.0,-3.0345,-3.1602,-3.3703,-3.4249,0.0,0.0,0.0,0.0,0.0,0.0,0.0,-4.1027,-4.2423,-4.3459,-4.3767,-4.4033,-4.4382,-4.4917,-4.4056,-4.3404,-4.3523,0.0,-4.2455,-4.2888,-4.2988,-4.3218,-4.3779,-4.4044,-4.4353,-4.4938,-4.5185,-4.5026,-4.4259,-4.4913,-4.4789,-4.3011,-4.283,-4.284,-4.1506,-4.1048,-4.0797,-4.0797,-4.0797,-4.0797,-4.0797,-4.087,-4.0984,-3.3029,-3.2542,-3.3277,-3.3652,-3.3755,-3.3755,-3.3815,-3.3885,-3.3869,-3.3774,-3.3591,-3.3591,-3.3147,-3.2384,-3.1884,0.0,0.0,-3.3359,-3.3931,-3.4962,-3.4935,-3.4597,-3.4091,-3.4305,-3.4122,-3.3577,-3.388,-3.4002,-3.3919,-3.321,-3.285,-3.2747,-3.1583,-3.0663,-3.0121,-3.068,-3.0612,-2.9916,-3.0745,-3.0775,-3.0004,-3.1042,-3.1248,-3.046,-3.1141,-3.1141,-3.0371,-2.9964,-2.9811,-2.9863,-2.9702,-2.8995,-2.7641,0.0,0.0,0.0,0.0,0.0,0.0,0.0,0.0,0.0,0.0,0.0,0.0,0.0,0.0,0.0,-3.1632,0.0,-3.4332,-3.5201,0.0,0.0,0.0,-3.83,-3.8472,-4.0022,-4.1355,-4.2103,0.0,0.0,0.0,0.0,-4.493,-4.4746,-4.3473,-4.2957,-4.3996,-4.348,-4.3312,-4.4134,-4.435,-4.4374,-4.4416,-4.4527,-4.4625,-4.4834,-4.4878,-4.4623,-4.4045,-4.4579,-4.4547,-4.3221,-4.3115,-4.2985,-4.2144,-4.1377,-4.0881,-4.0803,-4.081,-4.0797,-4.0797,-4.084,-4.1082,-3.3306,-3.3149,-3.2819,-3.2711,-3.2765,-3.2753,-3.2765,-3.2776,-3.2776,-3.2765,-3.2726,-3.2699,-3.2606,-3.2396,-3.2264,-3.2509,-3.2998,-3.2455,-3.2476,-3.2946,-3.2611,-3.2534,-3.2695,-3.2906,-3.3072,-3.3207,-3.3309,-3.3151,-3.281,-3.2605,-3.2308,-3.191,-3.1696,-3.151,-3.1355,-3.151,-3.1234,-3.0491,-3.0716,-3.0439,-2.966,-3.049,-3.0541,-2.9758,-2.9915,-2.9671,-2.8921,-2.8285,-2.8187,-2.8724,-2.8224,-2.8,-2.8239,-2.6959,0.0,0.0,0.0,0.0,0.0,0.0,0.0,0.0,0.0,-2.9903,-3.1403,0.0,-3.2388,0.0,-3.3112,-3.4224,-3.583,-3.6662,0.0,0.0,-3.8506,-3.907,-3.9961,-4.045,-4.1126,-4.216,-4.3042,-4.3635,-4.3832,-4.3853,-4.395,-4.4077,-4.4127,-4.4061,-4.3806,-4.3778,-4.381,-4.4045,-4.4097,-4.4113,-4.414,-4.4292,-4.4449,-4.4581,-4.4682,-4.4688,-4.4467,-4.476,-4.473,-4.3963,-4.3826,-4.3365,-4.2143,-4.1747,-4.1361,-4.0835,-4.072,-4.0797,-4.0797,-4.0821,-4.0906,-3.4152,-3.3829,-3.3136,-3.2844,-3.2829,-3.2536,-3.2398,-3.2398,-3.2398,-3.2398,-3.2398,-3.2398,-3.2398,-3.2398,-3.2398,-3.2594,-3.2823,-3.2164,-3.1992,-3.2285,-3.182,-3.1581,-3.151,-3.1843,-3.1957,-3.1857,-3.2005,-3.1933,-3.1688,-3.1692,-3.1549,-3.1257,-3.1466,-3.156,-3.1579,-3.1727,-3.142,-3.0714,-3.0351,-3.011,-3.0041,-3.011,-2.9955,-2.9506,-2.9196,-2.8661,-2.7937,-2.7506,-2.7627,-2.8351,-2.8006,-2.8143,-2.8866,-2.7798,-2.7093,0.0,0.0,0.0,0.0,0.0,0.0,0.0,0.0,0.0,0.0,0.0,-3.4059,0.0,-3.4818,0.0,-3.7283,-3.8079,-3.8723,-3.9222,-3.9569,-4.004,-4.0677,-4.0911,-4.1427,-4.2416,-4.3106,-4.3479,-4.3479,-4.3479,-4.3421,-4.3232,-4.3534,-4.3725,-4.3519,-4.3647,-4.3828,-4.3828,-4.3923,-4.4005,-4.4005,-4.4082,-4.4192,-4.4262,-4.4341,-4.4374,-4.4388,-4.4553,-4.4478,-4.39,-4.3533,-4.3015,-4.1995,-4.1428,-4.1039,-4.0774,-4.0661,-4.0707,-4.0713,-4.0707,-4.0797,-3.5167,-3.4566,-3.3829,-3.349,-3.3367,-3.2767,-3.2459,-3.2398,-3.2398,-3.2398,-3.2398,-3.2398,-3.2398,-3.2398,-3.2398,-3.2566,-3.2796,-3.2069,-3.1899,-3.2151,-3.1602,-3.1055,-3.052,-3.091,-3.0767,-3.0161,-3.0439,-3.0605,-3.0645,-3.0645,-3.0683,-3.0707,-3.1004,-3.1142,-3.1142,-3.143,-3.1275,-3.0678,-3.0058,-3.0023,-3.0506,-2.9988,-2.961,-2.9317,-2.8783,-2.8094,-2.7318,-2.7369,-2.7698,-2.8318,-2.8438,-2.88,-2.942,-2.8869,-2.8492,0.0,-2.7843,0.0,0.0,0.0,0.0,0.0,0.0,0.0,0.0,-3.539,-3.5783,-3.6525,-3.668,-3.7284,-3.8612,-3.9405,-3.9836,-3.9871,-4.0498,-4.0894,-4.0942,-4.1312,-4.1845,-4.2575,-4.3022,-4.3276,-4.3259,-4.3315,-4.3054,-4.2507,-4.2586,-4.2822,-4.305,-4.3339,-4.3546,-4.3545,-4.3779,-4.3923,-4.3971,-4.3893,-4.3816,-4.3816,-4.3664,-4.3689,-4.3627,-4.3833,-4.3801,-4.3239,-4.2728,-4.2194,-4.1637,-4.0945,-4.0534,-4.0527,-4.0571,-4.0581,-4.0595,-4.0595,-4.0858,-3.5444,-3.526,-3.4582,-3.3966,-3.3398,-3.326,-3.2906,-3.2398,-3.2398,-3.2398,-3.2398,-3.2398,-3.2398,-3.2398,-3.2398,-3.2425,-3.2449,-3.1797,-3.1489,-3.1537,-3.0582,-3.0071,-2.9923,-2.9673,-2.9478,-2.9312,-2.9403,-2.955,-2.9827,-2.9827,-2.9919,-3.0069,-3.026,-3.0281,0.0,0.0,0.0,0.0,-3.0925,-3.0634,-2.9746,-3.051,-3.0167,-2.8527,-2.8836,0.0,-2.7255,-2.7671,-2.8014,-2.8168,-2.8733,0.0,0.0,0.0,0.0,0.0,0.0,0.0,0.0,0.0,0.0,0.0,-3.3871,-3.4249,-3.5156,-3.6339,-3.7374,-3.8094,-3.8698,-3.9181,-3.9474,-4.0181,-4.0664,-4.0664,-4.0808,-4.0965,-4.1117,-4.1249,-4.1433,-4.1775,-4.2074,-4.2225,-4.2246,-4.2376,-4.2483,-4.2302,-4.2331,-4.2391,-4.249,-4.2939,-4.3268,-4.3304,-4.3475,-4.3744,-4.3974,-4.3432,-4.3005,-4.2965,-4.2445,-4.2129,-4.2144,-4.2155,-4.2254,-4.2192,-4.2165,-4.1863,-4.1285,-4.1177,-4.0893,-4.0373,-4.0406,-4.0534,-4.06,-4.0588,-4.0653,-3.5984,0.0,-3.5275,-3.4797,0.0,-3.4075,-3.3537,-3.2859,-3.2536,-3.2398,-3.2398,-3.2398,-3.2398,-3.2398,-3.2398,-3.2398,-3.2367,-3.169,-3.1424,-3.1362,-3.0633,-3.0111,-2.9768,-2.9658,-2.9414,-2.9114,-2.9114,-2.9175,-2.9325,-2.9364,-2.9416,-2.9512,-2.9739,-2.981,-2.9767,-2.9967,-3.0183,-3.0294,-3.076,-3.0777,-3.0314,-3.0297,-3.0078,-2.9559,0.0,0.0,0.0,0.0,0.0,0.0,0.0,0.0,0.0,0.0,0.0,-3.1112,-3.1216,-3.1641,-3.2536,-3.2779,-3.3351,-3.4526,-3.4643,-3.4975,-3.5688,-3.6441,-3.7364,-3.8452,-3.8911,-3.9251,-3.9625,-4.0246,-4.0583,-4.0624,-4.0776,-4.0942,-4.1041,-4.114,-4.1255,-4.1408,-4.1591,-4.174,-4.1762,-4.1866,-4.1934,-4.1956,-4.204,-4.2103,-4.2145,-4.2611,-4.2995,-4.3142,-4.2919,-4.2887,-4.3081,-4.2535,-4.2045,-4.2099,-4.1869,-4.1627,-4.1605,-4.1605,-4.1551,-4.1297,-4.1212,-4.1025,-4.0476,-4.0394,-4.0352,-4.0106,-4.0082,-3.9994,-3.9778,-4.0103,-4.0557,-3.6492,-3.6445,-3.5891,-3.5584,-3.5445,-3.4921,-3.4197,-3.3352,0.0,0.0,0.0,-3.2398,-3.2398,-3.2398,-3.2398,-3.2398,-3.2367,-3.1813,-3.1578,-3.1547,-3.0985,-3.0435,-2.9921,-2.9821,-2.9517,-2.8975,-2.8975,-2.8959,-2.8975,-2.8982,-2.8959,-2.9006,-2.9257,-2.9384,-2.9422,-2.9701,-2.9816,-2.981,-3.0171,-3.0573,-3.0937,-2.9917,-2.9728,-3.0516,-2.9494,-2.8822,-2.8538,-2.8636,-2.8569,-2.8316,-2.8408,-2.9138,-3.0571,-3.0572,-3.1045,-3.2194,-3.2462,-3.2793,-3.341,-3.3712,-3.4187,-3.4958,-3.5015,-3.5421,-3.6319,-3.6458,-3.7125,-3.8564,-3.8681,-3.8932,-3.9543,-3.9952,-4.0171,-4.0171,-4.0468,-4.0662,-4.0662,-4.0795,-4.0913,-4.1047,-4.1232,-4.1471,-4.1538,-4.1604,-4.1604,-4.1626,-4.1762,-4.1764,-4.1782,-4.2047,-4.2442,-4.2704,-4.2195,-4.1808,-4.1954,-4.1432,-4.1048,-4.123,-4.116,-4.1134,-4.1163,-4.1144,-4.0884,-4.03,-4.016,-3.9974,-3.9557,-3.9539,-3.9481,-3.9539,-3.9548,-3.9353,-3.8703,-3.9193,-3.9832,-3.6492,-3.6492,-3.6384,-3.6045,-3.5506,-3.5414,-3.4628,-3.3367,-3.269,-3.2398,-3.2398,-3.2398,-3.2398,-3.2398,-3.2398,-3.2398,-3.2382,-3.2305,-3.2259,0.0,-3.1023,-3.0392,-3.0253,-2.9163,-2.8585,-2.8493,-2.8493,-2.8493,-2.8493,-2.8532,-2.8493,-2.8517,-2.8565,-2.8573,-2.8597,-2.8779,-2.8826,-2.8677,-2.9461,-2.9941,-3.0071,-2.9734,-2.9394,-2.9123,-2.8885,-2.8441,-2.7871,-2.842,-2.8684,-2.8642,-2.9226,-2.981,-3.0253,-3.0876,-3.1456,-3.1952,-3.2617,-3.3088,-3.3306,-3.3585,-3.3887,-3.4193,-3.4259,-3.4963,-3.6628,-3.707,-3.7869,-3.9276,-3.9374,-3.9476,-3.9594,-3.9662,-3.9705,-3.9688,-3.9756,-3.9774,-3.9859,-3.9851,-4.002,-4.0395,-4.0604,-4.0896,-4.1146,-4.1368,-4.1458,-4.1525,-4.1372,-4.1415,-4.1102,-4.1169,-4.1431,-4.1647,-4.1143,-4.0817,-4.0861,-4.0361,-4.0001,-4.0167,-3.9681,-3.9427,-3.9587,-3.9616,-3.9519,-3.9291,-3.9254,-3.9203,-3.9104,-3.935,-3.9083,-3.8665,-3.8603,-3.845,-3.7683,-3.7746,-3.7909,-3.5623,-3.5623,-3.5623,-3.5458,-3.5159,-3.4698,-3.3788,-3.2629,-3.2196,-3.2176,-3.2398,-3.2398,-3.2398,-3.2398,-3.2398,-3.2398,-3.2398,-3.2398,-3.2398,-3.2351,-3.1767,-3.112,-3.0371,-2.9756,-2.9119,-2.8442,-2.8411,-2.8411,-2.8411,-2.8411,-2.8411,-2.8411,-2.8411,-2.8411,-2.8411,-2.8493,-2.8477,-2.8411,-2.8943,-2.9143,-2.9113,-2.9097,-2.9076,-2.903,-2.9124,-2.8979,-2.8543,-2.881,-2.8898,-2.8713,-2.903,-2.9517,-3.0144,-3.042,-3.0935,-3.1775,-3.2331,-3.2841,-3.3288,-3.3555,-3.3745,-3.3873,-3.3873,-3.4639,-3.6447,-3.6727,-3.7406,-3.8788,-3.8952,-3.8952,-3.8952,-3.9152,-3.9259,-3.9259,-3.947,-3.961,-3.961,-3.961,-3.9705,-3.9885,-3.9978,-4.0111,-4.0302,-4.0449,-4.0405,-4.0302,-4.0219,-4.0153,-4.012,-3.9755,-3.9771,-4.0424,-4.0035,-3.9715,-3.9822,-3.9274,-3.892,-3.909,-3.8829,-3.8637,-3.874,-3.8796,-3.8714,-3.8339,-3.8336,-3.8247,-3.7949,-3.7888,-3.776,-3.7611,-3.7498,-3.7237,-3.6603,-3.6147,-3.6328,-3.4924,-3.4924,-3.4924,-3.4835,-3.4632,-3.3855,-3.2929,-3.2003,-3.1662,-3.1752,-3.2064,-3.2076,-3.2148,-3.2216,-3.2216,-3.2299,-3.2398,-3.2398,-3.2398,-3.2382,-3.2244,-3.1628,-3.0648,-3.0366,-2.9617,-2.8704,-2.8488,-2.8411,-2.8411,-2.8411,-2.8319,-2.8196,-2.8181,-2.8157,-2.8181,-2.8319,-2.8411,-2.8436,-2.8549,-2.8573,-2.8396,-2.8573,-2.8779,-2.9005,-2.9219,-2.9241,-2.9051,-2.9028,-2.8889,-2.8653,-2.8629,-2.9021,-2.9777,-2.9969,-3.0485,-3.1477,-3.2107,-3.2662,-3.315,-3.3398,-3.3539,-3.3607,-3.375,-3.4494,-3.5851,-3.6314,-3.6949,-3.8137,-3.842,-3.842,-3.8476,-3.8683,-3.8876,-3.8887,-3.9142,-3.9286,-3.9322,-3.9339,-3.9375,-3.9428,-3.947,-3.9506,-3.9551,-3.946,-3.9236,-3.8865,-3.8574,-3.8578,-3.8842,-3.824,-3.8184,-3.8787,-3.8783,-3.8595,-3.8762,-3.8365,-3.8108,-3.8269,-3.8136,-3.8041,-3.8065,-3.8184,-3.7974,-3.7407,-3.7438,-3.7362,-3.6859,-3.6773,-3.6712,-3.6558,-3.649,-3.6186,-3.5423,-3.4941,-3.5034,-3.489,-3.4924,-3.4857,-3.4569,-3.3979,-3.3349,-3.2607,-3.1897,-3.1324,-3.1087,-3.1131,-3.1146,-3.1364,-3.1739,-3.1768,-3.1964,-3.2342,-3.2398,-3.237,-3.2293,-3.1751,-3.1397,-3.114,-3.0079,-2.9433,-2.9202,-2.8664,-2.8411,-2.8411,-2.8411,-2.8119,-2.755,-2.7488,-2.7534,-2.758,-2.8119,-2.8411,-2.8411,-2.8436,-2.842,-2.8411,-2.842,-2.8444,-2.8468,-2.8517,-2.8501,-2.8517,-2.8468,-2.8468,-2.8436,-2.8444,-2.8572,-2.8942,-3.0011,-3.076,-3.0963,-3.2128,-3.2877,-3.2951,-3.2951,-3.3096,-3.334,-3.3889,-3.4553,-3.5443,-3.627,-3.7179,-3.8101,-3.8363,-3.8391,-3.8391,-3.8448,-3.8504,-3.8504,-3.856,-3.8516,-3.8572,-3.8504,-3.8655,-3.9007,-3.9034,-3.9195,-3.932,-3.8906,-3.8346,-3.7709,-3.7155,-3.6967,-3.7335,-3.6896,-3.6613,-3.7191,-3.7323,-3.7496,-3.7648,-3.7721,-3.7578,-3.7787,-3.7368,-3.7091,-3.7021,-3.6729,-3.6263,-3.6329,-3.644,-3.6431,-3.6456,-3.6668,-3.6294,-3.5644,-3.5484,-3.5349,-3.4587,-3.4259,-3.4565,-3.3402,-3.3604,-3.3624,-3.3191,-3.2532,-3.2521,-3.1794,-3.0608,-3.0609,-3.0433,-3.0205,-3.0174,-3.0583,-3.1263,-3.1292,-3.1408,-3.1566,-3.1566,-3.1566,-3.1551,-3.1281,-3.1106,-3.0873,-3.0023,-2.9515,-2.9356,-2.8735,-2.8411,-2.8411,-2.8411,-2.8258,-2.8027,-2.7996,-2.7996,-2.8011,-2.8273,-2.8411,-2.8411,-2.8411,-2.8411,-2.8411,-2.8411,-2.8411,-2.8411,-2.8411,-2.8411,-2.8411,-2.8411,-2.8411,-2.8411,-2.8411,-2.8645,-2.9088,-2.967,-3.0345,-3.1119,-3.2255,-3.2912,-3.2912,-3.2912,-3.2924,-3.3058,-3.3697,-3.4443,-3.5331,-3.6124,-3.6921,-3.7671,-3.8148,-3.8391,-3.8363,-3.8391,-3.8391,-3.8391,-3.8391,-3.8391,-3.8391,-3.8391,-3.8492,-3.8628,-3.8628,-3.8531,-3.8165,-3.7446,-3.6812,-3.6422,-3.5995,-3.5866,-3.6112,-3.583,-3.5827,-3.6155,-3.6128,-3.6129,-3.6457,-3.6552,-3.6449,-3.6132,-3.5812,-3.5651,-3.5665,-3.569,-3.5409,-3.5033,-3.5081,-3.4932,-3.4448,-3.4556,-3.4406,-3.4289,-3.4528,-3.4475,-3.4142,-3.4061,-3.4166,-3.2273,-3.2525,-3.2525,-3.2048,-3.1399,-3.1688,-3.0998,-2.9735,-2.996,-2.9943,-2.9602,-2.9602,-2.996,-3.0583,-3.0732,-3.0881,-3.0999,-3.0999,-3.0999,-3.0999,-3.0999,-3.0909,-3.0718,-3.009,-2.9699,-2.9492,-2.887,-2.85,-2.8297,-2.7896,-2.7823,-2.7926,-2.8134,-2.829,-2.8418,-2.8719,-2.8858,-2.8704,-2.8688,-2.8596,-2.8442,-2.8411,-2.8411,-2.8411,-2.8411,-2.8411,-2.8411,-2.8411,-2.8488,-2.8658,-2.8673,-2.8981,-2.9602,-2.9817,-3.0458,-3.1547,-3.2354,-3.2746,-3.2773,-3.2773,-3.2773,-3.2835,-3.3535,-3.4394,-3.5112,-3.6027,-3.6749,-3.7249,-3.7889,-3.8205,-3.8119,-3.8205,-3.8262,-3.8278,-3.8335,-3.8391,-3.8391,-3.8391,-3.8408,-3.8391,-3.842,-3.8035,-3.7123,-3.6258,-3.5603,-3.5284,-3.5053,-3.4998,-3.5197,-3.5184,-3.518,-3.5411,-3.5036,-3.5095,-3.551,-3.5584,-3.5233,-3.4883,-3.4674,-3.4428,-3.4303,-3.4429,-3.4336,-3.3818,-3.3797,-3.3766,-3.3629,-3.3292,-3.3126,-3.3343,-3.3616,-3.3873,-3.385,-3.3889,-3.3941,-3.2092,-3.2128,-3.2128,-3.1684,-3.0942,-3.0962,-3.0448,-2.9571,-2.9634,-2.9602,-2.9602,-2.9602,-2.9634,-2.9713,-3.0174,-3.0553,-3.094,-3.094,-3.0911,-3.0911,-3.094,-3.0984,-3.094,-3.0292,-2.9982,-2.9873,-2.9252,-2.8663,-2.8116,-2.6967,-2.6391,-2.6853,-2.761,-2.805,-2.8535,-2.9541,-2.993,-2.9301,-2.925,-2.9039,-2.8501,-2.8449,-2.8479,-2.8446,-2.8411,-2.8411,-2.8411,-2.8411,-2.8704,-2.931,-2.9341,-2.9648,-3.0325,-3.0951,-3.1609,-3.2228,-3.2367,-3.2425,-3.2425,-3.237,-3.237,-3.2567,-3.3541,-3.4443,-3.4551,-3.5841,-3.6707,-3.6969,-3.7358,-3.7608,-3.7431,-3.777,-3.7972,-3.8017,-3.8234,-3.8363,-3.8391,-3.8391,-3.8391,-3.8375,-3.8278,-3.7711,-3.6546,-3.5714,-3.4971,-3.4468,-3.4208,-3.4333,-3.4634,-3.4723,-3.4575,-3.4353,-3.4253,-3.4443,-3.5065,-3.4729,-3.4556,-3.4138,-3.3467,-3.3475,-3.3283,-3.3073,-3.2841,-3.2712,-3.2816,-3.2894,-3.2954,-3.2978,-3.2965,-3.3085,-3.3281,-3.3458,-3.3231,-3.3652,-3.359,-3.1556,-3.1813,-3.2019,-3.152,-3.061,-3.0603,-3.0086,-2.9299,-2.9289,-2.9415,-2.9571,-2.9602,-2.9602,-2.9602,-2.9789,-2.9929,-3.0113,-3.0099,-3.0113,-3.0113,-3.0113,-3.0266,-3.0451,-2.9871,-2.9711,-2.9882,-2.9309,-2.8897,-2.8662,-2.8162,-2.801,-2.8172,-2.8417,-2.8646,-2.8868,-2.9268,-2.9373,-2.9194,-2.9137,-2.9002,-2.8831,-2.9067,-2.9094,-2.8786,-2.853,-2.8411,-2.8411,-2.8787,-2.9166,-2.9387,-2.9787,-3.0325,-3.1012,-3.1659,-3.2121,-3.2324,-3.212,-3.1966,-3.1923,-3.1667,-3.1508,-3.1613,-3.2766,-3.3561,-3.3771,-3.4779,-3.5655,-3.5737,-3.5849,-3.5882,-3.6166,-3.7207,-3.8221,-3.8234,-3.8307,-3.8363,-3.8391,-3.8391,-3.8391,-3.8262,-3.7695,-3.6821,-3.627,-3.525,-3.4424,-3.4165,-3.4101,-3.4159,-3.4194,-3.3982,-3.3671,-3.3397,-3.2881,-3.2502,-3.2684,-3.293,-3.2849,-3.2393,-3.1983,-3.2082,-3.1985,-3.2205,-3.2107,-3.2161,-3.2162,-3.2231,-3.2368,-3.2518,-3.2551,-3.2634,-3.2842,-3.2826,-3.2442,-3.278,-3.2598,-3.1161,-3.1421,-3.1629,-3.1164,-3.0246,-3.0192,-2.9733,-2.8963,-2.894,-2.9067,-2.9257,-2.9289,-2.932,-2.9415,-2.9446,-2.9509,-2.9602,-2.9602,-2.9602,-2.9602,-2.9602,-2.9758,-2.995,-2.961,-2.9559,-2.9725,-2.9204,-2.89,-2.8871,-2.8697,-2.868,-2.8763,-2.8995,-2.9183,-2.931,-2.9542,-2.9587,-2.9382,-2.9323,-2.9235,-2.9086,-2.929,-2.933,-2.9007,-2.876,-2.8576,-2.8591,-2.9016,-2.9405,-2.9633,-3.0042,-3.0558,-3.1238,-3.1693,-3.1964,-3.1908,-3.1667,-3.1466,-3.1437,-3.1175,-3.0999,-3.1058,-3.2224,-3.2976,-3.3079,-3.4171,-3.482,-3.4909,-3.5008,-3.5073,-3.5352,-3.66,-3.7621,-3.7783,-3.7915,-3.8017,-3.8062,-3.8062,-3.7933,-3.7608,-3.6954,-3.6325,-3.5866,-3.4845,-3.4246,-3.4101,-3.4101,-3.4036,-3.3761,-3.342,-3.2821,-3.2457,-3.1782,-3.1303,-3.1243,-3.1369,-3.1694,-3.1335,-3.1283,-3.1188,-3.1198,-3.1408,-3.1559,-3.1598,-3.1671,-3.1726,-3.1837,-3.2019,-3.2126,-3.2179,-3.235,-3.2471,-3.2155,-3.1861,-3.1722,-3.1024,-3.1024,-3.1024,-3.0603,-2.9922,-2.9837,-2.9362,-2.8731,-2.86,-2.8619,-2.8716,-2.8651,-2.8844,-2.9035,-2.9099,-2.9257,-2.9477,-2.9477,-2.954,-2.9602,-2.9602,-2.9602,-2.9651,-2.9608,-2.9566,-2.9614,-2.9031,-2.8764,-2.8782,-2.8374,-2.8266,-2.8555,-2.9145,-2.9522,-2.9971,-3.0368,-3.0499,-2.9987,-2.9827,-2.962,-2.9104,-2.9148,-2.915,-2.905,-2.9059,-2.9057,-2.9015,-2.9042,-2.9376,-2.9892,-3.0055,-3.0336,-3.0939,-3.1102,-3.1058,-3.1102,-3.1029,-3.0999,-3.0999,-3.094,-3.0851,-3.0998,-3.2132,-3.2717,-3.2801,-3.3891,-3.4655,-3.464,-3.4912,-3.5204,-3.5237,-3.5565,-3.6073,-3.6538,-3.6919,-3.7161,-3.7296,-3.7371,-3.7103,-3.6514,-3.6143,-3.5948,-3.5257,-3.4391,-3.3889,-3.3933,-3.3887,-3.3718,-3.3307,-3.2967,-3.2352,-3.1454,-3.0924,-3.0672,-3.0271,-2.9978,-3.0349,-3.0613,-3.0773,-3.0804,-3.0845,-3.1001,-3.1159,-3.1257,-3.1428,-3.1502,-3.1634,-3.1802,-3.1874,-3.1966,-3.2092,-3.1949,-3.138,-3.1013,-3.1092,-3.1024,-3.1024,-3.1024,-3.0642,-2.9981,-2.9622,-2.9186,-2.8759,-2.843,-2.8406,-2.8554,-2.8587,-2.8651,-2.8716,-2.8748,-2.8812,-2.8908,-2.8908,-2.9162,-2.9509,-2.9602,-2.9571,-2.9602,-2.9602,-2.9602,-2.9588,-2.9434,-2.9321,-2.9248,-2.908,-2.9132,-2.9266,-2.9409,-2.9584,-2.9708,-2.9907,-2.9893,-2.9765,-2.9736,-2.9578,-2.9451,-2.9721,-2.9737,-2.9497,-2.9706,-2.9751,-2.9453,-2.9595,-2.9794,-2.9999,-3.0454,-3.0793,-3.0955,-3.0999,-3.0999,-3.0955,-3.0673,-3.0523,-3.0493,-3.0235,-3.0083,-3.0195,-3.0868,-3.1208,-3.1393,-3.2497,-3.3216,-3.3282,-3.3636,-3.3962,-3.3962,-3.4016,-3.4666,-3.5931,-3.6136,-3.6245,-3.6307,-3.6291,-3.6061,-3.5611,-3.5093,-3.4553,-3.3991,-3.3372,-3.3156,-3.3375,-3.3125,-3.2787,-3.291,-3.2167,-3.1568,-3.0953,-3.0587,-3.0247,-3.0042,-2.9896,-3.0076,-3.03,-3.0389,-3.0477,-3.0497,-3.0597,-3.0744,-3.0911,-3.1086,-3.1261,-3.1413,-3.1579,-3.169,-3.1747,-3.1843,-3.1254,-3.0369,-3.0118,-3.0201,-3.1024,-3.1024,-3.1024,-3.0529,-2.9823,-2.9405,-2.8943,-2.841,-2.8027,-2.8,-2.8164,-2.8197,-2.8308,-2.8406,-2.8406,-2.849,-2.8587,-2.8587,-2.8812,-2.9226,-2.9383,-2.9415,-2.9415,-2.9415,-2.932,-2.9289,-2.9352,-2.9352,-2.9226,-2.9226,-2.9289,-2.9369,-2.9415,-2.9401,-2.9415,-2.954,-2.9509,-2.9289,-2.9463,-2.954,-2.9509,-2.9806,-2.9898,-2.9696,-2.9898,-2.9867,-2.9637,-2.9773,-2.984,-2.9927,-3.0275,-3.0478,-3.0477,-3.0463,-3.0463,-3.0403,-3.0235,-3.0052,-3.0021,-2.982,-2.9602,-2.9715,-3.0178,-3.0516,-3.0722,-3.1648,-3.2384,-3.2497,-3.2981,-3.3276,-3.3312,-3.3312,-3.3825,-3.4718,-3.5163,-3.5357,-3.5439,-3.5245,-3.4856,-3.4378,-3.3924,-3.3432,-3.289,-3.255,-3.2351,-3.2625,-3.2248,-3.1732,-3.1879,-3.1214,-3.0726,-3.0399,-3.0164,-2.996,-2.9945,-2.9896,-2.9896,-2.9989,-3.0081,-3.013,-3.0177,-3.0258,-3.0368,-3.0471,-3.0644,-3.0785,-3.0942,-3.134,-3.1559,-3.1582,-3.1466,-3.0783,-3.0023,-2.9415,-2.9317,-3.1024,-3.1024,-3.1024,-3.0411,-2.9536,-2.9388,-2.8773,-2.7811,-2.7549,-2.757,-2.7556,-2.7603,-2.7736,-2.8013,-2.8046,-2.821,-2.8457,-2.8457,-2.849,-2.8651,-2.8876,-2.9004,-2.9067,-2.9067,-2.894,-2.878,-2.894,-2.894,-2.8716,-2.8716,-2.8748,-2.9067,-2.9067,-2.9067,-2.9099,-2.9383,-2.9194,-2.8844,-2.9226,-2.932,-2.9099,-2.9352,-2.9509,-2.9477,-2.954,-2.9571,-2.9526,-2.9594,-2.9639,-2.962,-2.9699,-2.9758,-2.9665,-2.9602,-2.9696,-2.9727,-2.9634,-2.9634,-2.9634,-2.9634,-2.9602,-2.9659,-3.0066,-3.0469,-3.0638,-3.1443,-3.2188,-3.2398,-3.289,-3.3206,-3.3248,-3.3276,-3.3382,-3.3417,-3.4119,-3.4547,-3.4659,-3.4159,-3.36,-3.3004,-3.2736,-3.2532,-3.186,-3.1694,-3.1806,-3.185,-3.1445,-3.0849,-3.0572,-3.0201,-2.9698,-2.9468,-2.933,-2.9298,-2.9182,-2.9357,-2.9357,-2.9425,-2.9605,-2.982,-2.9913,-3.0,-2.9886,-2.9959,-3.0103,-3.0249,-3.0516,-3.0864,-3.1053,-3.0972,-3.0678,-3.0245,-2.9661,-2.8988,-2.8553,-3.1024,-3.1024,-3.1024,-3.0817,-3.0461,-2.9666,-2.914,-2.8699,-2.785,-2.7503,-2.7503,-2.7503,-2.757,-2.7636,-2.7669,-2.7736,-2.7802,-2.7822,-2.7954,-2.821,-2.8308,-2.849,-2.8683,-2.8716,-2.8683,-2.8587,-2.8651,-2.8683,-2.8587,-2.8522,-2.8619,-2.8716,-2.8716,-2.8716,-2.8748,-2.8844,-2.878,-2.8619,-2.8748,-2.8844,-2.878,-2.8812,-2.8876,-2.8876,-2.9099,-2.9226,-2.9257,-2.9491,-2.9602,-2.9602,-2.9602,-2.9602,-2.9602,-2.9602,-2.9602,-2.9602,-2.9602,-2.9602,-2.9602,-2.9602,-2.9602,-2.9602,-2.9799,-3.0038,-3.0469,-3.0778,-3.1471,-3.2103,-3.2595,-3.2848,-3.315,-3.3262,-3.3262,-3.3312,-3.3478,-3.3494,-3.32,-3.291,-3.2445,-3.1578,-3.1411,-3.1118,-3.0818,-3.0658,-3.0807,-3.0967,-3.044,-2.9759,-2.9648,-2.9068,-2.8535,-2.8424,-2.8319,-2.8352,-2.8424,-2.8677,-2.8795,-2.8834,-2.909,-2.9486,-2.9649,-2.9832,-2.9535,-2.93,-2.9501,-2.965,-2.9938,-3.0272,-3.0288,-3.032,-3.0127,-2.9786,-2.899,-2.8288,-2.8027,-3.019,-3.0228,-3.047,-3.0312,-2.9872,-2.9441,-2.9,-2.8477,-2.7829,-2.7503,-2.7503,-2.7503,-2.7503,-2.7503,-2.7503,-2.7503,-2.7503,-2.7503,-2.7623,-2.7815,-2.7868,-2.8066,-2.8308,-2.8406,-2.8308,-2.8164,-2.8295,-2.8262,-2.8151,-2.8131,-2.8229,-2.836,-2.8406,-2.8406,-2.8406,-2.8522,-2.8411,-2.8262,-2.8392,-2.8554,-2.8406,-2.8536,-2.8587,-2.8619,-2.8812,-2.8876,-2.894,-2.9081,-2.9303,-2.9509,-2.9602,-2.9602,-2.9602,-2.9602,-2.9602,-2.9602,-2.9602,-2.9602,-2.9602,-2.9602,-2.9602,-2.9602,-2.9602,-2.9785,-3.0108,-3.0315,-3.0965,-3.1443,-3.2033,-3.2539,-3.2834,-3.2946,-3.2932,-3.2876,-3.2707,-3.2525,-3.237,-3.194,-3.1378,-3.0795,-3.045,-3.0227,-2.9924,-2.9896,-3.0068,-3.0143,-2.9407,-2.9097,-2.8935,-2.8122,-2.7565,-2.754,-2.77,-2.7874,-2.7947,-2.8119,-2.8255,-2.828,-2.8487,-2.8928,-2.9141,-2.9381,-2.9197,-2.8897,-2.8973,-2.9106,-2.9438,-2.9658,-2.9621,-2.9596,-2.9551,-2.9026,-2.8139,-2.7741,-2.7487,-2.9121,-2.916,-2.9678,-2.9315,-2.8619,-2.8872,-2.8485,-2.7652,-2.7312,-2.7255,-2.7255,-2.7356,-2.7335,-2.7423,-2.7423,-2.7503,-2.7503,-2.7503,-2.7503,-2.757,-2.757,-2.7749,-2.8013,-2.8033,-2.7868,-2.7689,-2.7901,-2.7835,-2.7689,-2.7556,-2.7703,-2.7947,-2.8046,-2.8046,-2.8079,-2.8262,-2.8085,-2.7789,-2.8085,-2.8229,-2.8112,-2.8243,-2.8327,-2.836,-2.849,-2.8587,-2.8619,-2.8683,-2.8908,-2.9446,-2.9477,-2.9446,-2.9446,-2.9477,-2.954,-2.954,-2.954,-2.9602,-2.9602,-2.9602,-2.9602,-2.9602,-2.9602,-2.9673,-2.9838,-3.0193,-3.0469,-3.0951,-3.164,-3.2103,-3.2483,-3.2455,-3.2366,-3.2261,-3.1758,-3.1691,-3.1668,-3.1072,-3.0469,-3.0385,-2.9912,-2.9673,-2.9602,-2.9602,-2.9682,-2.9862,-2.9023,-2.8484,-2.8165,-2.7476,-2.7068,-2.6916,-2.7185,-2.7525,-2.7575,-2.7625,-2.77,-2.779,-2.7963,-2.8264,-2.8404,-2.8568,-2.8618,-2.8586,-2.8584,-2.8736,-2.9014,-2.9092,-2.9041,-2.8829,-2.871,-2.7945,-2.7092,-2.7108,-2.6954,-2.9121,-2.9121,-2.9238,-2.9153,-2.8845,-2.8189,-2.7739,-2.7415,-2.6592,-2.6346,-2.6346,-2.6667,-2.685,-2.6884,-2.7222,-2.7503,-2.7456,-2.7456,-2.7503,-2.7503,-2.7503,-2.7536,-2.7636,-2.7669,-2.7603,-2.7536,-2.7556,-2.757,-2.7503,-2.7503,-2.7536,-2.7636,-2.7703,-2.7636,-2.7669,-2.7769,-2.7703,-2.757,-2.7689,-2.7769,-2.7703,-2.7736,-2.7802,-2.7835,-2.8079,-2.8341,-2.8554,-2.8587,-2.8683,-2.878,-2.8812,-2.8812,-2.8908,-2.9081,-2.9194,-2.9257,-2.9446,-2.9571,-2.9602,-2.9571,-2.9602,-2.9602,-2.9631,-2.9827,-3.0231,-2.9982,-3.0375,-3.0881,-3.112,-3.1469,-3.2073,-3.2344,-3.1916,-3.1378,-3.0912,-3.0278,-2.9686,-3.0036,-3.0209,-2.9862,-2.9698,-2.9602,-2.9602,-2.9602,-2.9577,-2.9482,-2.8848,-2.8033,-2.7442,-2.6931,-2.6613,-2.6431,-2.6537,-2.6823,-2.6849,-2.6927,-2.7056,-2.7185,-2.7388,-2.7565,-2.7703,-2.7864,-2.7915,-2.8035,-2.8132,-2.8351,-2.8557,-2.8659,-2.8658,-2.8276,-2.7917,-2.7331,-2.6888,-2.6719,-2.6527,-2.8195,-2.8235,-2.8554,-2.8515,-2.8215,-2.7715,-2.7324,-2.698,-2.6265,-2.5896,-2.5965,-2.622,-2.6324,-2.6311,-2.6633,-2.6837,-2.7154,-2.739,-2.7503,-2.7503,-2.7503,-2.7503,-2.7503,-2.7503,-2.7503,-2.7503,-2.7503,-2.7503,-2.7503,-2.7503,-2.7503,-2.7503,-2.7503,-2.7536,-2.7503,-2.7503,-2.7536,-2.7503,-2.7503,-2.7503,-2.7503,-2.7503,-2.7503,-2.7503,-2.7703,-2.7934,-2.8033,-2.8066,-2.8052,-2.8085,-2.8099,-2.8262,-2.8568,-2.8748,-2.8844,-2.8908,-2.9004,-2.9226,-2.9289,-2.9383,-2.9446,-2.9571,-2.9602,-2.9771,-3.008,-2.9996,-3.015,-3.0545,-3.0735,-3.1055,-3.1237,-3.0671,-3.0342,-3.0009,-2.9477,-2.8771,-2.8379,-2.9203,-2.9792,-2.9362,-2.9369,-2.954,-2.9602,-2.9415,-2.9467,-2.9355,-2.8489,-2.7719,-2.7497,-2.6947,-2.6299,-2.6056,-2.6002,-2.6042,-2.6069,-2.6163,-2.6351,-2.6537,-2.6759,-2.689,-2.7012,-2.7145,-2.7284,-2.745,-2.7651,-2.7793,-2.7988,-2.8105,-2.8238,-2.7973,-2.7604,-2.7089,-2.6788,-2.6769,-2.6475,-2.719,-2.7272,-2.7817,-2.7747,-2.7325,-2.7324,-2.7027,-2.6578,-2.6056,-2.5779,-2.5773,-2.5809,-2.5903,-2.5804,-2.5931,-2.6186,-2.6577,-2.6939,-2.7074,-2.7074,-2.7074,-2.7154,-2.7255,-2.7289,-2.739,-2.7469,-2.7503,-2.7503,-2.7503,-2.7503,-2.7503,-2.7503,-2.7503,-2.7503,-2.7503,-2.7503,-2.7503,-2.7503,-2.7503,-2.7503,-2.7503,-2.7503,-2.7503,-2.7503,-2.7536,-2.7674,-2.7807,-2.7846,-2.7779,-2.7751,-2.7696,-2.7952,-2.8325,-2.8419,-2.8457,-2.849,-2.8509,-2.8638,-2.894,-2.9035,-2.9131,-2.9446,-2.9509,-2.9415,-2.9477,-2.9622,-2.96,-2.9683,-2.9833,-3.0261,-2.9872,-2.9346,-2.8689,-2.8307,-2.7816,-2.7423,-2.7438,-2.8403,-2.8766,-2.861,-2.8629,-2.8817,-2.8976,-2.8912,-2.9093,-2.9028,-2.814,-2.7474,-2.7196,-2.6792,-2.6036,-2.5893,-2.5893,-2.5893,-2.5921,-2.5948,-2.6056,-2.6123,-2.6297,-2.6351,-2.64,-2.6393,-2.6594,-2.6988,-2.7191,-2.7316,-2.7519,-2.7774,-2.7806,-2.7674,-2.7641,-2.7406,-2.7163,-2.6882,-2.6491,-2.719,-2.719,-2.7313,-2.7296,-2.7175,-2.686,-2.6624,-2.6442,-2.5972,-2.5477,-2.5228,-2.5609,-2.5553,-2.5361,-2.5687,-2.5943,-2.606,-2.6277,-2.6311,-2.6311,-2.6311,-2.6449,-2.6782,-2.685,-2.7053,-2.739,-2.7423,-2.7356,-2.7503,-2.7503,-2.7503,-2.7503,-2.7503,-2.7503,-2.7503,-2.7503,-2.7469,-2.7429,-2.7455,-2.7494,-2.7413,-2.7478,-2.7504,-2.7504,-2.7496,-2.7686,-2.8061,-2.8234,-2.8464,-2.8873,-2.8466,-2.8285,-2.8148,-2.7794,-2.7747,-2.7954,-2.7842,-2.7927,-2.8365,-2.8619,-2.8651,-2.8812,-2.8926,-2.8798,-2.8587,-2.863,-2.8762,-2.8432,-2.8556,-2.8812,-2.8677,-2.8192,-2.8001,-2.7613,-2.7272,-2.6913,-2.6333,-2.6867,-2.7782,-2.7571,-2.7749,-2.8026,-2.8222,-2.8279,-2.8231,-2.7985,-2.7228,-2.6717,-2.6471,-2.6039,-2.5479,-2.5591,-2.5893,-2.5893,-2.5921,-2.5921,-2.5948,-2.5975,-2.6042,-2.6042,-2.6021,-2.5764,-2.5901,-2.6454,-2.6698,-2.6746,-2.7022,-2.7388,-2.7479,-2.7391,-2.7586,-2.7812,-2.7481,-2.7087,-2.67,-2.719,-2.719,-2.719,-2.719,-2.7098,-2.6691,-2.6501,-2.6432,-2.5934,-2.5566,-2.547,-2.5579,-2.5462,-2.5126,-2.5203,-2.5397,-2.5501,-2.5791,-2.5896,-2.5896,-2.5931,-2.6,-2.6302,-2.6302,-2.6414,-2.6586,-2.6654,-2.7053,-2.7456,-2.7503,-2.7469,-2.7503,-2.7503,-2.7503,-2.7503,-2.7503,-2.7348,-2.724,-2.7323,-2.7339,-2.7148,-2.7291,-2.7455,-2.7432,-2.7468,-2.7597,-2.7784,-2.7885,-2.7999,-2.8142,-2.7962,-2.7852,-2.7666,-2.7344,-2.6989,-2.7227,-2.705,-2.6981,-2.7384,-2.7484,-2.7504,-2.769,-2.7947,-2.7961,-2.8003,-2.8211,-2.8222,-2.7931,-2.7303,-2.7311,-2.6984,-2.6768,-2.6385,-2.6124,-2.6114,-2.5863,-2.5558,-2.5965,-2.6242,-2.6573,-2.7116,-2.7484,-2.7637,-2.7617,-2.7413,-2.6902,-2.6224,-2.5932,-2.5731,-2.521,-2.4723,-2.5175,-2.5495,-2.5633,-2.566,-2.5729,-2.5757,-2.5784,-2.5893,-2.5893,-2.5892,-2.5753,-2.5834,-2.6193,-2.6281,-2.627,-2.651,-2.6837,-2.6965,-2.7118,-2.7234,-2.7339,-2.7426,-2.7269,-2.6941,-2.7108,-2.719,-2.719,-2.719,-2.7121,-2.6806,-2.6634,-2.6542,-2.6232,-2.5952,-2.5865,-2.5842,-2.5616,-2.5153,-2.4987,-2.4929,-2.5004,-2.5431,-2.5453,-2.5477,-2.5598,-2.5692,-2.5711,-2.5856,-2.6,-2.6307,-2.627,-2.6493,-2.7134,-2.7255,-2.7323,-2.7289,-2.7323,-2.7255,-2.7154,-2.7152,-2.6965,-2.7009,-2.7165,-2.7192,-2.6991,-2.7164,-2.7409,-2.7409,-2.7409,-2.7484,-2.7681,-2.7718,-2.7816,-2.7902,-2.7789,-2.7589,-2.7427,-2.6876,-2.655,-2.6529,-2.6189,-2.6265,-2.6544,-2.6756,-2.7019,-2.724,-2.7143,-2.7316,-2.7362,-2.767,-2.79,-2.7655,-2.7041,-2.6202,-2.5732,-2.5133,-2.4968,-2.4932,-2.4968,-2.4849,-2.5028,-2.523,-2.5324,-2.5804,-2.6505,-2.6731,-2.6765,-2.6667,-2.6409,-2.5941,-2.5282,-2.5128,-2.4846,-2.4296,-2.4063,-2.4624,-2.4992,-2.5203,-2.5314,-2.5439,-2.5467,-2.5481,-2.5729,-2.5893,-2.5893,-2.5877,-2.5988,-2.6014,-2.5859,-2.5893,-2.6097,-2.63,-2.6553,-2.6733,-2.6792,-2.695,-2.7195,-2.7476,-2.7418,-2.6839,-2.719,-2.719,-2.719,-2.7179,-2.7058,-2.7087,-2.7052,-2.6909,-2.6783,-2.633,-2.6386,-2.6094,-2.5624,-2.513,-2.4949,-2.4888,-2.4792,-2.4809,-2.4868,-2.5065,-2.5249,-2.5242,-2.5636,-2.5985,-2.6227,-2.6359,-2.6609,-2.6829,-2.6853,-2.682,-2.6845,-2.6786,-2.6636,-2.6461,-2.6714,-2.6669,-2.6708,-2.7115,-2.7324,-2.7299,-2.7322,-2.7396,-2.7396,-2.7432,-2.754,-2.7831,-2.7916,-2.8076,-2.8504,-2.8261,-2.8124,-2.7957,-2.7053,-2.6591,-2.6492,-2.6523,-2.6645,-2.6993,-2.6981,-2.6968,-2.7077,-2.7357,-2.7372,-2.7188,-2.6887,-2.6747,-2.5857,-2.576,-2.5571,-2.5177,-2.4871,-2.4813,-2.4754,-2.4718,-2.4754,-2.4825,-2.4849,-2.4885,-2.4957,-2.5676,-2.5652,-2.5616,-2.5508,-2.5329,-2.4866,-2.4469,-2.4327,-2.4123,-2.368,-2.3446,-2.4005,-2.4439,-2.4667,-2.4809,-2.4964,-2.5006,-2.5076,-2.5328,-2.566,-2.5702,-2.5674,-2.5866,-2.5821,-2.5684,-2.5559,-2.5678,-2.5901,-2.6188,-2.636,-2.6457,-2.6739,-2.7085,-2.7364,-2.7599,-2.6155,-2.6798,-2.6561,-2.6603,-2.6757,-2.6561,-2.649,-2.652,-2.6715,-2.6714,-2.6574,-2.6806,-2.6622,-2.6106,-2.5589,-2.5371,-2.5314,-2.5069,-2.505,-2.4978,-2.5184,-2.5335,-2.5454,-2.5634,-2.5927,-2.604,-2.6129,-2.6268,-2.6457,-2.663,-2.6646,-2.6596,-2.642,-2.6362,-2.6197,-2.649,-2.6542,-2.6624,-2.679,-2.7025,-2.7211,-2.7282,-2.727,-2.7282,-2.7309,-2.7427,-2.7609,-2.7648,-2.7719,-2.7955,-2.7696,-2.7667,-2.7592,-2.7175,-2.6887,-2.6915,-2.6903,-2.6749,-2.6464,-2.6493,-2.6555,-2.6508,-2.6645,-2.6579,-2.6566,-2.6729,-2.6588,-2.6147,-2.6078,-2.5672,-2.5034,-2.4883,-2.4686,-2.457,-2.4538,-2.4574,-2.461,-2.4646,-2.4682,-2.4729,-2.4801,-2.4885,-2.4969,-2.5075,-2.511,-2.4904,-2.4372,-2.3964,-2.3774,-2.3498,-2.3349,-2.3416,-2.3816,-2.4137,-2.4224,-2.4339,-2.4352,-2.441,-2.4439,-2.4823,-2.5244,-2.5397,-2.5439,-2.5688,-2.5766,-2.5604,-2.541,-2.5474,-2.5735,-2.5937,-2.6124,-2.6393,-2.666,-2.7016,-2.7274,-2.5485,-2.6155,-2.5979,-2.6052,-2.6321,-2.601,-2.5937,-2.5937,-2.6218,-2.6332,-2.6456,-2.6775,-2.6805,-2.652,-2.6073,-2.5899,-2.5849,-2.5645,-2.5549,-2.5522,-2.5535,-2.5396,-2.5383,-2.5479,-2.5743,-2.5743,-2.6004,-2.6294,-2.6556,-2.6627,-2.6589,-2.6542,-2.6335,-2.6166,-2.6311,-2.6513,-2.6588,-2.6752,-2.6779,-2.6978,-2.7163,-2.7191,-2.7203,-2.7185,-2.7179,-2.719,-2.719,-2.7208,-2.726,-2.726,-2.7301,-2.7313,-2.7249,-2.7185,-2.711,-2.7151,-2.7111,-2.6881,-2.6523,-2.6339,-2.6094,-2.6083,-2.6067,-2.6556,-2.6731,-2.7047,-2.7013,-2.6461,-2.6426,-2.5869,-2.521,-2.4889,-2.4662,-2.4445,-2.4273,-2.4309,-2.4381,-2.4418,-2.4465,-2.449,-2.4526,-2.4574,-2.4706,-2.4849,-2.4886,-2.485,-2.4396,-2.3721,-2.3313,-2.3045,-2.2887,-2.2781,-2.2889,-2.3148,-2.3237,-2.3386,-2.3505,-2.3699,-2.3758,-2.3962,-2.441,-2.4666,-2.4709,-2.509,-2.5495,-2.5439,-2.5079,-2.5185,-2.5288,-2.5487,-2.569,-2.5877,-2.6154,-2.6529,-2.682,-2.4828,-2.5327,-2.5728,-2.5906,-2.5937,-2.5937,-2.5853,-2.578,-2.5895,-2.5937,-2.6052,-2.6321,-2.6535,-2.646,-2.6365,-2.6297,-2.6353,-2.5458,-2.5268,-2.5211,-2.5105,-2.5069,-2.5178,-2.5489,-2.5817,-2.5858,-2.6058,-2.6497,-2.6852,-2.6507,-2.6492,-2.6448,-2.6261,-2.6077,-2.6147,-2.6453,-2.676,-2.6967,-2.7036,-2.7082,-2.7167,-2.719,-2.719,-2.719,-2.719,-2.719,-2.719,-2.719,-2.719,-2.719,-2.719,-2.719,-2.719,-2.719,-2.719,-2.719,-2.719,-2.7041,-2.6869,-2.6846,-2.7007,-2.7052,-2.7007,-2.6903,-2.7007,-2.7098,-2.6978,-2.6674,-2.6634,-2.6106,-2.5406,-2.49,-2.4923,-2.4533,-2.4361,-2.4317,-2.433,-2.4273,-2.4273,-2.4225,-2.4261,-2.4381,-2.4418,-2.4562,-2.4706,-2.4719,-2.4023,-2.3309,-2.2613,-2.2269,-2.2099,-2.1968,-2.1937,-2.2018,-2.2049,-2.2254,-2.272,-2.2937,-2.3027,-2.3242,-2.3598,-2.3787,-2.3946,-2.4295,-2.4639,-2.4726,-2.4882,-2.4969,-2.5053,-2.5102,-2.5237,-2.5491,-2.5576,-2.5823,-2.6094,-2.4572,-2.4786,-2.4967,-2.5211,-2.5454,-2.5168,-2.5052,-2.5094,-2.5338,-2.5633,-2.5895,-2.6063,-2.6135,-2.611,-2.6138,-2.6158,-2.6084,-2.5776,-2.5562,-2.5576,-2.5532,-2.548,-2.5541,-2.5541,-2.5881,-2.589,-2.6065,-2.6151,-2.6295,-2.6263,-2.6155,-2.6131,-2.6127,-2.6186,-2.6288,-2.6531,-2.6897,-2.7046,-2.7149,-2.7179,-2.719,-2.719,-2.719,-2.719,-2.719,-2.719,-2.719,-2.719,-2.719,-2.7149,-2.7149,-2.7149,-2.7149,-2.7149,-2.719,-2.719,-2.719,-2.719,-2.719,-2.719,-2.719,-2.719,-2.7179,-2.719,-2.719,-2.719,-2.7121,-2.699,-2.6909,-2.6462,-2.606,-2.583,-2.567,-2.4981,-2.4579,-2.4453,-2.4292,-2.4223,-2.4189,-2.4225,-2.4225,-2.4236,-2.4273,-2.4309,-2.4454,-2.4492,-2.371,-2.2946,-2.2292,-2.1776,-2.1651,-2.1604,-2.1604,-2.1635,-2.1655,-2.1862,-2.2068,-2.218,-2.231,-2.2543,-2.2792,-2.2955,-2.3165,-2.3492,-2.3816,-2.4008,-2.4268,-2.4652,-2.4869,-2.4998,-2.5067,-2.5162,-2.5216,-2.5188,-2.5384,-2.4507,-2.4507,-2.4507,-2.4711,-2.4914,-2.4668,-2.4507,-2.454,-2.4828,-2.5168,-2.5475,-2.5601,-2.5717,-2.5728,-2.5884,-2.5926,-2.5893,-2.5735,-2.5684,-2.5547,-2.5453,-2.5517,-2.5517,-2.558,-2.561,-2.5728,-2.5853,-2.5937,-2.5979,-2.5937,-2.5955,-2.5942,-2.5824,-2.6039,-2.6266,-2.6635,-2.6809,-2.6809,-2.6809,-2.6809,-2.6768,-2.6779,-2.6779,-2.6738,-2.6738,-2.6727,-2.6685,-2.6697,-2.6738,-2.6727,-2.6768,-2.685,-2.6933,-2.7015,-2.7067,-2.7149,-2.719,-2.719,-2.719,-2.719,-2.719,-2.719,-2.719,-2.719,-2.719,-2.719,-2.7144,-2.7156,-2.7144,-2.7024,-2.6554,-2.6352,-2.5819,-2.5084,-2.4843,-2.4682,-2.4349,-2.4189,-2.4189,-2.4189,-2.4189,-2.4189,-2.42,-2.4213,-2.4112,-2.4069,-2.3445,-2.2747,-2.2201,-2.1748,-2.1501,-2.1466,-2.1466,-2.1498,-2.1529,-2.1612,-2.1663,-2.1663,-2.1776,-2.1839,-2.2032,-2.2187,-2.239,-2.2695,-2.2985,-2.3284,-2.3492,-2.3741,-2.4308,-2.4893,-2.492,-2.485,-2.4706,-2.4664,-2.4778,-2.4507,-2.4507,-2.4507,-2.4497,-2.4583,-2.4497,-2.4507,-2.4507,-2.454,-2.4625,-2.4754,-2.5041,-2.52,-2.5295,-2.5549,-2.5644,-2.5601,-2.5338,-2.52,-2.5126,-2.4914,-2.4668,-2.4796,-2.4999,-2.5211,-2.5327,-2.5464,-2.5644,-2.577,-2.5644,-2.5728,-2.5728,-2.5626,-2.5771,-2.5904,-2.5926,-2.5937,-2.5937,-2.6021,-2.6063,-2.6104,-2.6115,-2.6157,-2.6157,-2.6157,-2.6188,-2.6188,-2.6199,-2.6229,-2.6188,-2.6188,-2.6313,-2.6509,-2.6539,-2.6715,-2.7026,-2.7067,-2.7108,-2.7138,-2.7149,-2.7067,-2.7056,-2.7015,-2.7097,-2.719,-2.719,-2.719,-2.719,-2.7179,-2.7001,-2.6703,-2.6439,-2.5911,-2.5509,-2.5291,-2.4958,-2.4648,-2.4361,-2.4395,-2.4235,-2.4189,-2.4189,-2.4189,-2.4143,-2.3925,-2.3639,-2.3075,-2.2558,-2.2154,-2.1795,-2.1559,-2.134,-2.136,-2.136,-2.1371,-2.1296,-2.1265,-2.1233,-2.1296,-2.1443,-2.1474,-2.1557,-2.1765,-2.1982,-2.2156,-2.2421,-2.2573,-2.2695,-2.3416,-2.4105,-2.4465,-2.4478,-2.4303,-2.4229,-2.439,-2.4507,-2.4507,-2.4507,-2.4507,-2.4507,-2.4507,-2.4507,-2.4507,-2.4507,-2.4507,-2.454,-2.47,-2.4743,-2.4828,-2.4871,-2.5052,-2.4967,-2.4914,-2.4743,-2.4711,-2.454,-2.454,-2.4583,-2.4668,-2.4743,-2.4796,-2.4967,-2.5052,-2.4924,-2.5094,-2.5009,-2.4967,-2.5137,-2.5348,-2.5728,-2.5895,-2.5895,-2.5895,-2.5937,-2.5895,-2.5895,-2.5853,-2.5853,-2.5853,-2.5812,-2.5812,-2.5812,-2.577,-2.577,-2.577,-2.577,-2.5895,-2.6052,-2.6093,-2.6177,-2.6354,-2.6354,-2.6354,-2.6354,-2.6354,-2.6479,-2.6592,-2.6757,-2.688,-2.7097,-2.719,-2.719,-2.7149,-2.7108,-2.7,-2.7024,-2.6938,-2.6571,-2.6232,-2.5961,-2.5463,-2.5119,-2.4832,-2.4671,-2.4349,-2.4189,-2.4116,-2.408,-2.3934,-2.3679,-2.3496,-2.2984,-2.2868,-2.2547,-2.2042,-2.1684,-2.1371,-2.1233,-2.1233,-2.1224,-2.1362,-2.1362,-2.1328,-2.127,-2.1265,-2.1233,-2.1201,-2.1296,-2.1588,-2.1557,-2.1545,-2.1939,-2.2298,-2.2713,-2.3225,-2.3682,-2.4089,-2.4099,-2.4083,-2.4171,-2.4507,-2.4507,-2.4507,-2.4507,-2.4507,-2.4507,-2.4507,-2.4507,-2.4507,-2.4507,-2.4497,-2.4497,-2.4497,-2.4497,-2.4507,-2.4507,-2.4507,-2.4497,-2.4497,-2.4507,-2.4507,-2.4507,-2.4507,-2.4507,-2.454,-2.4507,-2.4507,-2.455,-2.4583,-2.455,-2.454,-2.4583,-2.4507,-2.4839,-2.5221,-2.5348,-2.5348,-2.5306,-2.5306,-2.5306,-2.5348,-2.5348,-2.5348,-2.5348,-2.5348,-2.5391,-2.5391,-2.5391,-2.5433,-2.5433,-2.5433,-2.5517,-2.5601,-2.5686,-2.5728,-2.5812,-2.5895,-2.5853,-2.577,-2.5675,-2.5832,-2.5988,-2.6155,-2.6426,-2.6685,-2.6655,-2.6685,-2.6727,-2.685,-2.6715,-2.658,-2.6622,-2.6408,-2.6015,-2.5494,-2.497,-2.4476,-2.411,-2.3856,-2.3668,-2.3751,-2.3751,-2.3776,-2.3666,-2.3427,-2.3194,-2.2988,-2.2889,-2.2776,-2.2298,-2.1832,-2.157,-2.1531,-2.1722,-2.1688,-2.1617,-2.1583,-2.1489,-2.1408,-2.1351,-2.1201,-2.1201,-2.1201,-2.1201,-2.1316,-2.1431,-2.1639,-2.1959,-2.2298,-2.2634,-2.2997,-2.3412,-2.3747,-2.3835,-2.3865,-2.4507,-2.4507,-2.4507,-2.4507,-2.4507,-2.4507,-2.4507,-2.4507,-2.4507,-2.4507,-2.4507,-2.4507,-2.4507,-2.4507,-2.4507,-2.4507,-2.4507,-2.4507,-2.4507,-2.4507,-2.4507,-2.4507,-2.4507,-2.4507,-2.4507,-2.4507,-2.4507,-2.4507,-2.4507,-2.4507,-2.4507,-2.4507,-2.4507,-2.4625,-2.4721,-2.4754,-2.4754,-2.4796,-2.4796,-2.4796,-2.4807,-2.4721,-2.4754,-2.4754,-2.4754,-2.4754,-2.4754,-2.4711,-2.4668,-2.4668,-2.4636,-2.4828,-2.5031,-2.5158,-2.5464,-2.5686,-2.577,-2.5517,-2.5295,-2.52,-2.52,-2.5327,-2.5591,-2.577,-2.6032,-2.6157,-2.6188,-2.6177,-2.6207,-2.5779,-2.5516,-2.5377,-2.5239,-2.4712,-2.4158,-2.3626,-2.3092,-2.2767,-2.2576,-2.2565,-2.2805,-2.2889,-2.2953,-2.2905,-2.2782,-2.2627,-2.2445,-2.2548,-2.246,-2.2299,-2.1931,-2.1799,-2.1913,-2.2332,-2.2252,-2.19,-2.2019,-2.1983,-2.173,-2.1615,-2.1431,-2.1293,-2.1305,-2.1305,-2.1236,-2.1316,-2.1463,-2.1608,-2.1827,-2.2125,-2.2341,-2.2768,-2.3143,-2.3305,-2.3395,-2.4507,-2.4507,-2.4507,-2.4507,-2.4507,-2.4507,-2.4507,-2.4507,-2.4507,-2.4507,-2.4507,-2.4507,-2.4507,-2.4507,-2.4507,-2.4507,-2.4507,-2.4507,-2.4507,-2.4507,-2.4507,-2.4507,-2.4507,-2.4507,-2.4507,-2.4507,-2.4507,-2.4507,-2.4507,-2.4507,-2.4507,-2.4507,-2.4507,-2.4507,-2.4507,-2.4507,-2.4507,-2.4507,-2.4507,-2.4507,-2.4507,-2.4507,-2.4507,-2.4507,-2.4507,-2.4507,-2.4507,-2.4507,-2.4507,-2.4507,-2.4507,-2.4625,-2.4658,-2.47,-2.4839,-2.4839,-2.4882,-2.4839,-2.4711,-2.4711,-2.4658,-2.4605,-2.4786,-2.5348,-2.5644,-2.5728,-2.5686,-2.5485,-2.5295,-2.4904,-2.4553,-2.4352,-2.4141,-2.375,-2.33,-2.301,-2.25,-2.2241,-2.203,-2.192,-2.2168,-2.1993,-2.2059,-2.2069,-2.1983,-2.1832,-2.18,-2.1906,-2.2067,-2.1919,-2.1897,-2.1773,-2.1813,-2.2147,-2.2203,-2.1934,-2.2253,-2.2454,-2.209,-2.1828,-2.1812,-2.1675,-2.1514,-2.1399,-2.1385,-2.1293,-2.1233,-2.1411,-2.1557,-2.1443,-2.162,-2.2106,-2.2525,-2.272,-2.2902,-2.4507,-2.4507,-2.4507,-2.4507,-2.4507,-2.4507,-2.4507,-2.4507,-2.4507,-2.4507,-2.4507,-2.4507,-2.4507,-2.4507,-2.4507,-2.4507,-2.4507,-2.4507,-2.4507,-2.4507,-2.4507,-2.4507,-2.4507,-2.4507,-2.4507,-2.4507,-2.4507,-2.4507,-2.4507,-2.4507,-2.4507,-2.4507,-2.4507,-2.4507,-2.4507,-2.4507,-2.4507,-2.4507,-2.4507,-2.4507,-2.4507,-2.4507,-2.4507,-2.4507,-2.4507,-2.4507,-2.4507,-2.4507,-2.4507,-2.4507,-2.4507,-2.4497,-2.4497,-2.4497,-2.454,-2.4583,-2.4583,-2.4411,-2.4196,-2.41,-2.397,-2.3787,-2.3734,-2.3897,-2.4294,-2.4466,-2.4413,-2.4274,-2.4168,-2.3986,-2.3674,-2.3371,-2.312,-2.2858,-2.2664,-2.2524,-2.225,-2.1964,-2.1758,-2.156,-2.137,-2.1158,-2.1096,-2.1135,-2.1019,-2.0682,-2.0527,-2.0537,-2.1016,-2.1422,-2.1554,-2.1613,-2.1638,-2.1788,-2.1836,-2.1887,-2.2055,-2.2165,-2.2001,-2.1879,-2.2025,-2.21,-2.1951,-2.1722,-2.1525,-2.1445,-2.142,-2.1247,-2.1296,-2.1227,-2.1261,-2.1572,-2.1944,-2.2168,-2.2372,-2.4507,-2.4507,-2.4507,-2.4507,-2.4497,-2.4411,-2.4368,-2.4411,-2.4282,-2.4411,-2.4454,-2.4507,-2.4507,-2.4507,-2.4507,-2.4507,-2.4507,-2.4507,-2.4507,-2.4507,-2.4507,-2.4507,-2.4507,-2.4507,-2.4507,-2.4507,-2.4507,-2.4507,-2.4507,-2.4507,-2.4507,-2.4507,-2.4507,-2.4507,-2.4507,-2.4507,-2.4411,-2.4196,-2.4282,-2.4325,-2.4464,-2.4507,-2.4507,-2.4507,-2.4507,-2.4507,-2.4507,-2.4507,-2.4507,-2.4507,-2.4507,-2.4507,-2.4507,-2.4335,-2.4378,-2.4229,-2.41,-2.3787,-2.3527,-2.3396,-2.3081,-2.2809,-2.2438,-2.2624,-2.3018,-2.342,-2.3454,-2.3226,-2.3129,-2.2867,-2.2517,-2.2208,-2.1952,-2.1739,-2.1604,-2.1592,-2.1505,-2.1207,-2.0941,-2.0702,-2.0408,-2.0182,-2.007,-2.0109,-2.0031,-1.9569,-1.946,-1.949,-1.9825,-2.0546,-2.0881,-2.1116,-2.1261,-2.1254,-2.1441,-2.1528,-2.168,-2.1739,-2.1728,-2.171,-2.1787,-2.2035,-2.2377,-2.2192,-2.1962,-2.1766,-2.1673,-2.1638,-2.1573,-2.143,-2.1407,-2.1223,-2.1366,-2.1631,-2.1765,-2.4507,-2.4507,-2.4507,-2.4507,-2.4421,-2.3937,-2.3764,-2.3677,-2.3115,-2.3517,-2.4358,-2.4454,-2.4507,-2.4507,-2.4507,-2.4507,-2.4507,-2.4507,-2.4507,-2.4464,-2.4421,-2.4282,-2.4411,-2.4229,-2.4368,-2.4507,-2.4507,-2.4464,-2.4507,-2.4507,-2.4507,-2.4454,-2.4421,-2.4378,-2.4272,-2.4272,-2.41,-2.3754,-2.3754,-2.397,-2.4229,-2.4411,-2.4507,-2.4454,-2.4411,-2.4411,-2.4411,-2.4497,-2.4497,-2.4507,-2.4507,-2.4507,-2.4507,-2.4034,-2.3764,-2.3667,-2.329,-2.2974,-2.2765,-2.2677,-2.2457,-2.2403,-2.2217,-2.2006,-2.2094,-2.2448,-2.2492,-2.2262,-2.2041,-2.1739,-2.1436,-2.1132,-2.0907,-2.0781,-2.0645,-2.0693,-2.0739,-2.0465,-2.0109,-1.9853,-1.9506,-1.934,-1.9221,-1.9082,-1.8962,-1.8931,-1.8882,-1.8922,-1.8971,-1.945,-1.9698,-2.0042,-2.0517,-2.0681,-2.0826,-2.0939,-2.0997,-2.1364,-2.1453,-2.1487,-2.1505,-2.1693,-2.1943,-2.2434,-2.2477,-2.2093,-2.1969,-2.2307,-2.2205,-2.1777,-2.1486,-2.1295,-2.1006,-2.1104,-2.119,-2.3333,-2.2911,-2.2911,-2.3052,-2.3159,-2.2862,-2.2818,-2.2906,-2.258,-2.2843,-2.356,-2.3927,-2.4196,-2.4411,-2.4507,-2.4411,-2.4454,-2.4507,-2.4239,-2.411,-2.4013,-2.3754,-2.3744,-2.3647,-2.3474,-2.356,-2.397,-2.411,-2.4325,-2.4454,-2.4454,-2.411,-2.4067,-2.3927,-2.3691,-2.3551,-2.343,-2.3038,-2.2994,-2.3212,-2.3604,-2.3604,-2.356,-2.356,-2.3831,-2.397,-2.4186,-2.4282,-2.4497,-2.4378,-2.4206,-2.3754,-2.3527,-2.3169,-2.3038,-2.2896,-2.2668,-2.2262,-2.205,-2.1926,-2.1784,-2.1695,-2.1516,-2.1087,-2.1042,-2.1302,-2.1347,-2.1123,-2.1123,-2.0862,-2.0862,-2.0645,-2.0555,-2.0473,-2.0428,-2.0475,-2.039,-2.0191,-1.9931,-1.9756,-1.9388,-1.8997,-1.8876,-1.8776,-1.8696,-1.882,-1.87,-1.8652,-1.866,-1.862,-1.8803,-1.8993,-1.9569,-1.9687,-1.9638,-1.9904,-2.0168,-2.0585,-2.1001,-2.1088,-2.105,-2.1229,-2.15,-2.1892,-2.2127,-2.1994,-2.2029,-2.2293,-2.2193,-2.1696,-2.1483,-2.1394,-2.1047,-2.0803,-2.1018,-2.1747,-2.0935,-2.0935,-2.1168,-2.1552,-2.1516,-2.1686,-2.1952,-2.1943,-2.1952,-2.2129,-2.2677,-2.344,-2.4013,-2.4229,-2.4229,-2.4133,-2.3874,-2.3657,-2.3484,-2.3353,-2.3125,-2.2853,-2.2536,-2.2668,-2.2799,-2.3125,-2.357,-2.396,-2.3917,-2.3701,-2.3406,-2.3222,-2.3081,-2.258,-2.2394,-2.2448,-2.2315,-2.2271,-2.2183,-2.2271,-2.235,-2.2526,-2.2711,-2.295,-2.3319,-2.358,-2.3797,-2.4186,-2.4013,-2.3624,-2.3212,-2.2765,-2.2492,-2.2325,-2.2227,-2.1961,-2.1606,-2.1401,-2.1221,-2.0907,-2.06,-2.0382,-2.0292,-2.0337,-2.0382,-2.0382,-2.0382,-2.0337,-2.0337,-2.0337,-2.0337,-2.0337,-2.0337,-2.0292,-2.0292,-2.0138,-2.0009,-1.9881,-1.9735,-1.935,-1.8928,-1.8761,-1.8618,-1.86,-1.8668,-1.8647,-1.862,-1.8571,-1.8451,-1.8442,-1.8523,-1.8754,-1.8803,-1.8772,-1.9042,-1.9499,-1.9618,-2.0001,-2.0362,-2.0604,-2.0673,-2.091,-2.1312,-2.1424,-2.1464,-2.1621,-2.1826,-2.1617,-2.1506,-2.1585,-2.1461,-2.121,-2.1029,-2.1167,-2.1069,-2.089,-2.089,-2.0935,-2.0944,-2.0475,-2.0294,-2.0249,-1.9812,-1.9803,-2.0385,-2.061,-2.132,-2.279,-2.2799,-2.2843,-2.3018,-2.2931,-2.2843,-2.2624,-2.2633,-2.2492,-2.2271,-2.1961,-2.2315,-2.2448,-2.2536,-2.2668,-2.3202,-2.3018,-2.2755,-2.258,-2.258,-2.2492,-2.2448,-2.2217,-2.1908,-2.1695,-2.1481,-2.1445,-2.1302,-2.1606,-2.2306,-2.2492,-2.2526,-2.258,-2.2668,-2.2711,-2.2799,-2.2755,-2.2668,-2.2482,-2.2138,-2.1793,-2.1615,-2.1481,-2.1212,-2.0952,-2.0736,-2.069,-2.0428,-2.0382,-2.0292,-2.0292,-2.0337,-2.0337,-2.0337,-2.0337,-2.0337,-2.0337,-2.0337,-2.0337,-2.0292,-2.0292,-2.0292,-2.0292,-2.0215,-2.0155,-2.0078,-1.9898,-1.9632,-1.9325,-1.9118,-1.8919,-1.8652,-1.8648,-1.8484,-1.8449,-1.8386,-1.8262,-1.8213,-1.821,-1.821,-1.8411,-1.8652,-1.8652,-1.8922,-1.8922,-1.9033,-1.9402,-1.9737,-2.0041,-2.0275,-2.0579,-2.0865,-2.1014,-2.1186,-2.1234,-2.1385,-2.1323,-2.1585,-2.1588,-2.1271,-2.1192,-2.1311]},{"header":{"parameterUnit":"m.s-1","parameterCategory":1,"la1":31.0,"la2":29.5877,"lo1":-88.7671,"lo2":-86.6584,"dy":0.0162,"dx":0.0185,"nx":115,"ny":88,"refTime":"2024-08-25T06:00:00:Z","depth":0,"parameterNumber":3,"parameterNumberName":"V-component_of_WINDS"},"data":[0.0,0.0,0.0,0.0,0.0,0.0,0.0,0.0,0.0,0.0,0.0,0.0,0.0,0.0,0.0,0.0,0.0,0.0,0.0,0.0,0.0,0.0,0.0,0.0,0.0,0.0,0.0,0.0,0.0,0.0,0.0,0.0,0.0,0.0,0.0,0.0,0.0,0.0,0.0,0.0,0.0,0.0,0.0,0.0,0.0,0.0,0.0,0.0,0.0,0.0,0.0,0.0,0.0,0.0,0.0,0.0,0.0,0.0,0.0,0.0,0.0,0.0,0.0,0.0,0.0,0.0,0.0,0.0,0.0,0.0,0.0,0.0,0.0,0.0,0.0,0.0,0.0,0.0,0.0,0.0,0.0,0.0,0.0,0.0,0.0,0.0,0.0,0.0,0.0,0.0,0.0,0.0,0.0,0.0,0.0,0.0,0.0,0.0,0.0,0.0,0.0,0.0,0.0,0.0,0.0,0.0,0.0,0.0,0.0,0.0,0.0,0.0,0.0,0.0,0.0,0.0,0.0,0.0,0.0,0.0,0.0,0.0,0.0,0.0,0.0,0.0,0.0,0.0,0.0,0.0,0.0,0.0,0.0,0.0,0.0,0.0,0.0,0.0,0.0,0.0,0.0,0.0,0.0,0.0,0.0,0.0,0.0,0.0,0.0,0.0,0.0,0.0,0.0,0.0,0.0,0.0,0.0,0.0,0.0,0.0,0.0,0.0,0.0,0.0,0.0,0.0,0.0,0.0,0.0,0.0,0.0,0.0,0.0,0.0,0.0,0.0,0.0,0.0,0.0,0.0,0.0,0.0,0.0,0.0,0.0,0.0,0.0,0.0,0.0,0.0,0.0,0.0,0.0,0.0,0.0,0.0,0.0,0.0,0.0,0.0,0.0,0.0,0.0,0.0,0.0,0.0,0.0,0.0,0.0,0.0,0.0,0.0,0.0,0.0,0.0,0.0,0.0,0.0,0.0,0.0,0.0,0.0,0.0,0.0,0.0,0.0,0.0,0.0,0.0,0.0,0.0,0.0,0.0,0.0,0.0,0.0,0.0,0.0,0.0,0.0,0.0,0.0,0.0,0.0,0.0,0.0,0.0,0.0,0.0,0.0,0.0,0.0,0.0,0.0,0.0,0.0,0.0,0.0,0.0,0.0,0.0,0.0,0.0,0.0,0.0,0.0,0.0,0.0,0.0,0.0,0.0,0.0,0.0,0.0,0.0,0.0,0.0,0.0,0.0,0.0,0.0,0.0,0.0,0.0,0.0,0.0,0.0,0.0,0.0,0.0,0.0,0.0,0.0,0.0,0.0,0.0,0.0,0.0,0.0,0.0,0.0,0.0,0.0,0.0,0.0,0.0,0.0,0.0,0.0,0.0,0.0,0.0,0.0,0.0,0.0,0.0,0.0,0.0,0.0,0.0,0.0,0.0,0.0,0.0,0.0,0.0,0.0,0.0,0.0,0.0,0.0,0.0,0.0,0.0,0.0,0.0,0.0,0.0,0.0,0.0,0.0,0.0,0.0,0.0,0.0,0.0,0.0,0.0,0.0,0.0,0.0,0.0,0.0,0.0,0.0,0.0,0.0,0.0,0.0,0.0,0.0,0.0,0.0,0.0,0.0,0.0,0.0,0.0,0.0,0.0,0.0,0.0,0.0,0.0,0.0,0.0,0.0,0.0,0.0,0.0,0.0,0.0,0.0,0.0,0.0,0.0,0.0,0.0,0.0,0.0,0.0,0.0,0.0,0.0,0.0,0.0,0.0,0.0,0.0,0.0,0.0,0.0,0.0,0.0,0.0,0.0,0.0,0.0,0.0,0.0,0.0,0.0,0.0,0.0,0.0,0.0,0.0,0.0,0.0,0.0,0.0,0.0,0.0,0.0,0.0,0.0,0.0,0.0,0.0,0.0,0.0,0.0,0.0,0.0,0.0,0.0,0.0,0.0,0.0,0.0,0.0,0.0,0.0,0.0,0.0,0.0,0.0,0.0,0.0,0.0,0.0,0.0,0.0,0.0,0.0,0.0,0.0,0.0,0.0,0.0,0.0,0.0,0.0,0.0,0.0,0.0,0.0,0.0,0.0,0.0,0.0,0.0,0.0,0.0,0.0,0.0,0.0,0.0,0.0,0.0,0.0,0.0,0.0,0.0,0.0,0.0,0.0,0.0,0.0,0.0,0.0,0.0,0.0,0.0,0.0,0.0,0.0,0.0,0.0,0.0,0.0,0.0,0.0,0.0,0.0,0.0,0.0,0.0,0.0,0.0,0.0,0.0,0.0,0.0,0.0,0.0,0.0,0.0,0.0,0.0,0.0,0.0,0.0,0.0,0.0,0.0,0.0,0.0,0.0,0.0,0.0,0.0,0.0,0.0,0.0,0.0,0.0,0.0,0.0,0.0,0.0,0.0,0.0,0.0,0.0,0.0,0.0,0.0,0.0,0.0,0.0,0.0,0.0,0.0,0.0,0.0,0.0,0.0,0.0,0.0,0.0,0.0,0.0,0.0,0.0,0.0,0.0,0.0,0.0,0.0,0.0,0.0,0.0,0.0,0.0,0.0,0.0,0.0,0.0,0.0,0.0,0.0,0.0,0.0,0.0,0.0,0.0,0.0,0.0,0.0,0.0,0.0,0.0,0.0,0.0,0.0,0.0,0.0,0.0,0.0,0.0,0.0,0.0,0.0,0.0,0.0,0.0,0.0,0.0,0.0,0.0,0.0,0.0,0.0,0.0,0.0,0.0,0.0,0.0,0.0,0.0,0.0,0.0,0.0,0.0,0.0,0.0,0.0,0.0,0.0,0.0,0.0,0.0,0.0,0.0,0.0,0.0,0.0,0.0,0.0,0.0,0.0,0.0,0.0,0.0,0.0,0.0,0.0,0.0,0.0,0.0,0.0,0.0,0.0,0.0,0.0,0.0,0.0,0.0,0.0,0.0,0.0,0.0,0.0,0.0,0.0,0.0,0.0,0.0,0.0,0.0,0.0,0.0,0.0,0.0,0.0,0.0,0.0,0.0,0.0,0.0,0.0,0.0,0.0,0.0,0.0,0.0,0.0,0.0,0.0,0.0,0.0,0.0,0.0,0.0,0.0,0.0,0.0,0.0,0.0,0.0,0.0,0.0,0.0,0.0,0.0,0.0,0.0,0.0,0.0,0.0,0.0,0.0,0.0,0.0,0.0,0.0,0.0,0.0,0.0,0.0,0.0,0.0,0.0,0.0,0.0,0.0,0.0,0.0,0.0,0.0,0.0,0.0,0.0,0.0,0.0,0.0,0.0,0.0,0.0,0.0,0.0,0.0,0.0,0.0,0.0,0.0,0.0,0.0,0.0,0.0,0.0,0.0,0.0,0.0,0.0,0.0,0.0,0.0,0.0,0.0,0.0,0.0,0.0,0.0,0.0,0.0,0.0,0.0,0.0,0.0,0.0,0.0,0.0,0.0,0.0,0.0,0.0,0.0,0.0,0.0,0.0,0.0,0.0,0.0,0.0,0.0,0.0,0.0,0.0,0.0,0.0,0.0,0.0,0.0,0.0,0.0,0.0,0.0,0.0,0.0,0.0,0.0,0.0,0.0,0.0,0.0,0.0,0.0,0.0,0.0,0.0,0.0,0.0,0.0,0.0,0.0,0.0,0.0,0.0,0.0,0.0,0.0,0.0,0.0,0.0,0.0,0.0,0.0,0.0,0.0,0.0,0.0,0.0,0.0,0.0,0.0,0.0,0.0,0.0,0.0,0.0,0.0,0.0,0.0,0.0,0.0,0.0,0.0,0.0,0.0,0.0,0.0,0.0,0.0,0.0,0.0,0.0,0.0,0.0,0.0,0.0,0.0,0.0,0.0,0.0,0.0,0.0,0.0,0.0,0.0,0.0,0.0,0.0,0.0,0.0,0.0,0.0,0.0,0.0,0.0,0.0,0.0,0.0,0.0,0.0,0.0,0.0,0.0,0.0,0.0,0.0,0.0,0.0,0.0,0.0,0.0,0.0,0.0,0.0,0.0,0.0,0.0,0.0,0.0,0.0,0.0,0.0,0.0,0.0,0.0,0.0,0.0,0.0,0.0,0.0,0.0,0.0,0.0,0.0,0.0,0.0,0.0,0.0,0.0,0.0,0.0,0.0,0.0,0.0,0.0,0.0,0.0,0.0,0.0,0.0,0.0,0.0,0.0,0.0,0.0,0.0,0.0,0.0,0.0,0.0,0.0,0.0,0.0,0.0,0.0,0.0,0.0,0.0,0.0,0.0,0.0,0.0,0.0,0.0,0.0,0.0,0.0,0.0,0.0,0.0,0.4701,0.0,0.0,0.0,0.0,0.0,0.0,0.0,0.0,0.0,0.0,0.0,0.0,0.0,0.0,0.0,0.0,0.0,0.0,0.0,0.0,0.0,0.0,0.0,0.0,0.0,0.0,0.0,0.0,0.0,0.0,0.0,0.0,0.0,0.0,0.0,0.0,0.0,0.0,0.0,0.0,0.0,0.0,0.0,0.0,0.0,0.0,0.0,0.0,0.0,0.0,0.0,0.0,0.0,0.0,0.0,0.0,0.0,0.0,0.0,0.0,0.0,0.0,0.0,0.0,0.0,0.0,0.0,0.0,0.0,0.0,0.0,0.0,0.0,0.0,0.0,0.0,0.0,0.0,0.0,0.0,0.0,0.0,0.0,0.0,0.0,0.0,0.0,0.0,0.0,0.0,0.0,0.0,0.0,0.0,0.0,0.0,0.0,0.0,0.0,0.0,0.0,0.0,0.0,0.0,0.0,0.0,0.0,0.0,0.0,0.0,0.5592,0.5318,0.5093,0.4934,0.4757,0.0,0.0,0.0,0.0,0.0,0.0,0.0,0.0,0.0,0.0,0.0,0.0,0.0,0.0,0.0,0.0,0.0,0.0,0.0,0.0,0.0,0.0,0.0,0.0,0.0,0.0,0.0,0.0,0.0,0.0,0.0,0.0,0.0,0.0,0.0,0.0,0.0,0.0,0.0,0.0,0.0,0.0,0.0,0.0,0.0,0.0,0.0,0.0,0.0,0.0,0.0,0.0,0.0,0.0,0.0,0.0,0.0,0.0,0.0,0.0,0.0,0.0,0.0,0.0,0.0,0.0,0.0,0.0,0.0,0.0,0.0,0.0,0.0,0.0,0.0,0.0,0.0,0.0,0.0,0.0,0.0,0.0,0.0,0.0,0.0,0.0,0.0,0.0,0.0,0.0,0.0,0.0,0.0,0.0,0.0,0.0,0.0,0.0,0.0,0.0,0.0,0.0,0.0,0.0,0.0,0.0,0.0,0.0,0.0,0.0,0.0,0.0,0.5159,0.5012,0.4798,0.0,0.0,0.0,0.0,0.0,0.0,0.0,0.0,0.0,0.0,0.0,0.0,0.0,0.0,0.0,0.0,0.0,0.0,0.0,0.0,0.0,0.0,0.0,0.0,0.0,0.0,0.0,0.0,0.0,0.0,0.0,0.0,0.0,0.0,0.0,0.0,0.0,0.0,0.0,0.0,0.0,0.0,0.0,0.0,0.0,0.0,0.0,0.0,0.0,0.0,0.0,0.0,0.0,0.0,0.0,0.0,0.0,0.0,0.0,0.0,0.0,0.0,0.0,0.0,0.0,0.0,0.0,0.0,0.0,0.0,0.0,0.0,0.0,0.0,0.0,0.0,0.0,0.0,0.0,0.0,0.0,0.0,0.0,0.0,0.0,0.0,0.0,0.0,0.0,0.0,0.0,0.0,0.0,0.0,0.0,0.0,0.0,0.0,0.0,0.0,0.0,0.0,0.0,0.0,0.0,0.0,0.0,0.0,0.0,0.0,0.5611,0.5213,0.5317,0.0,0.4806,0.0,0.0,0.0,0.0,0.0,0.0,0.0,0.0,0.0,0.0,0.0,0.0,0.0,0.0,0.0,0.0,0.0,0.0,0.0,0.0,0.0,0.0,0.0,0.0,0.0,0.0,0.0,0.0,0.0,0.0,0.0,0.0,0.0,0.0,0.0,0.0,0.0,0.0,0.0,0.0,0.0,0.0,0.0,0.0,0.0,0.0,0.0,0.0,0.0,0.0,0.0,0.0,0.0,0.0,0.0,0.0,0.0,0.0,0.0,0.0,0.0,0.0,0.0,0.0,0.0,0.0,0.0,0.0,0.0,0.0,0.0,0.0,0.0,0.0,0.0,0.0,0.0,0.0,0.0,0.0,0.0,0.0,0.0,0.0,0.0,0.0,0.0,0.0,0.0,0.0,0.0,0.0,0.0,0.0,0.0,0.0,0.0,0.0,0.0,0.0,0.0,0.0,0.0,0.0,0.0,0.0,0.0,0.0,0.0,0.0,0.0,0.5333,0.5314,0.5127,0.0,0.0,0.0,0.0,0.0,0.0,0.0,0.0,0.0,0.0,0.0,0.0,0.0,0.0,0.0,0.0,0.0,0.0,0.0,0.0,0.0,0.0,0.0,0.0,0.0,0.0,0.0,0.0,0.0,0.0,0.0,0.0,0.0,0.0,0.0,0.0,0.0,0.0,0.0,0.0,0.0,0.0,0.0,0.0,0.0,0.0,0.0,0.0,0.0,0.0,0.0,0.0,0.0,0.0,0.0,0.0,0.0,0.0,0.0,0.0,0.0,0.0,0.0,0.0,0.0,0.0,0.0,0.0,0.0,0.0,0.0,0.0,0.0,0.0,0.0,0.0,0.0,0.0,0.0,0.0,0.0,0.0,0.0,0.0,0.0,0.0,0.0,0.0,0.0,0.0,0.0,0.0,0.0,0.0,0.0,0.0,0.0,0.0,0.0,0.0,0.0,0.0,0.0,0.0,0.0,0.0,0.0,0.0,0.0,0.0,0.6046,0.0,0.5495,0.5317,0.511,0.4806,0.0,0.0,0.0,0.0,0.0,0.0,0.0,0.0,0.0,0.0,0.0,0.0,0.0,0.0,0.0,0.0,0.0,0.0,0.0,0.0,0.0,0.0,0.0,0.0,0.0,0.0,0.0,0.0,0.0,0.0,0.0,0.0,0.0,0.0,0.0,0.0,0.0,0.0,0.0,0.0,0.0,0.0,0.0,0.0,0.0,0.0,0.0,0.0,0.0,0.0,0.0,0.0,0.0,0.0,0.0,0.0,0.0,0.0,0.0,0.0,0.0,0.0,0.0,0.0,0.0,0.0,0.0,0.0,0.0,0.0,0.0,0.0,0.0,0.0,0.0,0.0,0.0,0.0,0.0,0.0,0.0,0.0,0.0,0.0,0.0,0.0,0.0,0.0,0.0,0.0,0.0,0.0,0.0,0.0,0.0,0.0,0.0,0.0,0.0,0.0,0.0,0.0,0.0,0.0,0.0,0.0,0.0,0.0,0.0,0.6059,0.5899,0.5695,0.5485,0.5195,0.0,0.0,0.0,0.0,0.0,0.0,0.0,0.0,0.0,0.0,0.0,0.0,0.0,0.0,0.0,0.0,0.0,0.0,0.0,0.0,0.0,0.0,0.0,0.0,0.0,0.0,0.0,0.0,0.0,0.0,0.0,0.0,0.0,0.0,0.0,0.0,0.0,0.0,0.0,0.0,0.0,0.0,0.0,0.0,0.0,0.0,0.0,0.0,0.0,0.0,0.0,0.0,0.0,0.0,0.0,0.0,0.0,0.0,0.0,0.0,0.0,0.0,0.0,0.0,0.0,0.0,0.0,0.0,0.0,0.0,0.0,0.0,0.0,0.0,0.0,0.0,0.0,0.0,0.0,0.0,0.0,0.0,0.0,0.0,0.0,0.0,0.0,0.0,0.0,0.0,0.0,0.0,0.0,0.0,0.0,0.0,0.0,0.0,0.0,0.0,0.0,0.0,0.0,0.0,0.0,0.0,0.0,0.0,0.0,0.6156,0.5903,0.5735,0.557,0.5455,0.52,0.0,0.0,0.0,0.0,0.0,0.0,0.0,0.0,0.0,0.0,0.0,0.0,0.0,0.0,0.0,0.0,0.0,0.0,0.0,0.0,0.0,0.0,0.0,0.0,0.0,0.0,0.0,0.0,0.0,0.0,0.0,0.0,0.0,0.0,0.0,0.0,0.0,0.0,0.0,0.0,0.0,0.0,0.0,0.0,0.0,0.0,0.0,0.0,0.0,0.0,0.0,0.0,0.0,0.0,0.0,0.0,0.0,0.0,0.0,0.0,0.0,0.0,0.0,0.0,0.0,0.0,0.0,0.0,0.0,0.0,0.0,0.0,0.0,0.0,0.0,0.0,0.0,0.0,0.0,0.0,0.0,0.0,0.0,0.0,0.0,0.0,0.0,0.0,0.0,0.0,0.0,0.0,0.0,0.0,0.0,0.0,0.0,0.0,0.0,0.0,0.0,0.0,0.0,0.0,0.0,0.0,0.0,0.0,0.0,0.5972,0.0,0.5591,0.0,0.5434,0.5184,0.0,0.0,0.0,0.0,0.0,0.0,0.0,0.0,0.0,0.0,0.0,0.0,0.0,0.0,0.0,0.0,0.0,0.0,0.0,0.0,0.0,0.0,0.0,0.0,0.0,0.0,0.0,0.0,0.0,0.0,0.0,0.0,0.0,0.0,0.0,0.0,0.0,0.0,0.0,0.0,0.0,0.0,0.0,0.0,0.0,0.0,0.0,0.0,0.0,0.0,0.0,0.0,0.0,0.0,0.0,0.0,0.0,0.0,0.0,0.0,0.0,0.0,0.0,0.0,0.0,0.0,0.0,0.0,0.0,0.0,0.0,0.0,0.0,0.0,0.0,0.0,0.0,0.0,0.0,0.0,0.0,0.0,0.0,0.0,0.0,0.0,0.0,0.0,0.0,0.0,0.0,0.0,0.0,0.0,0.0,0.0,0.0,0.0,0.0,0.0,0.0,0.0,0.0,0.0,0.0,0.0,0.0,0.0,0.5916,0.5729,0.5582,0.5521,0.5508,0.5436,0.5186,0.0,0.0,0.0,0.0,0.0,0.0,0.0,0.0,0.0,0.0,0.0,0.0,0.0,0.0,0.0,0.0,0.0,0.0,0.0,0.0,0.0,0.0,0.0,0.0,0.0,0.0,0.0,0.0,0.0,0.0,0.0,0.0,0.0,0.0,0.0,0.0,0.0,0.0,0.0,0.0,0.0,0.0,0.0,0.0,0.0,0.0,0.0,0.0,0.0,0.0,0.0,0.0,0.0,0.0,0.0,0.0,0.0,0.0,0.0,0.0,0.0,0.0,0.0,0.0,0.0,0.0,0.0,0.0,0.0,0.0,0.0,0.0,0.0,0.0,0.0,0.0,0.0,0.0,0.0,0.0,0.0,0.0,0.0,0.0,0.0,0.0,0.0,0.0,0.0,0.0,0.0,0.0,0.0,0.0,0.0,0.0,0.0,0.0,0.0,0.0,0.0,0.0,0.0,0.0,0.0,0.0,0.0,0.0,0.0,0.582,0.57,0.5634,0.5626,0.5477,0.5224,0.0,0.0,0.0,0.0,0.0,0.0,0.0,0.0,0.0,0.0,0.0,0.0,0.0,0.0,0.0,0.0,0.0,0.0,0.0,0.0,0.0,0.0,0.0,0.0,0.0,0.0,0.0,0.0,0.0,0.0,0.0,0.0,0.0,0.0,0.0,0.0,0.0,0.0,0.0,0.0,0.0,0.0,0.0,0.0,0.0,0.0,0.0,0.0,0.0,0.0,0.0,0.0,0.0,0.0,0.0,0.0,0.0,0.0,0.0,0.0,0.0,0.0,0.0,0.0,0.0,0.0,0.0,0.0,0.0,0.0,0.0,0.0,0.0,0.0,0.0,0.0,0.0,0.0,0.0,0.0,0.0,0.0,0.0,0.0,0.0,0.0,0.0,0.0,0.0,0.0,0.0,0.0,0.0,0.0,0.0,0.0,0.0,0.0,0.0,0.0,0.0,0.0,0.0,0.0,0.0,0.0,0.0,0.0,0.0,0.6016,0.5805,0.5688,0.5688,0.554,0.5246,0.4812,0.0,0.0,0.0,0.0,0.0,0.0,0.0,0.0,0.0,0.0,0.0,0.0,0.0,0.0,0.0,0.0,0.0,0.0,0.0,0.0,0.0,0.0,0.0,0.0,0.0,0.0,0.0,0.0,0.0,0.0,0.0,0.0,0.0,0.0,0.0,0.0,0.0,0.0,0.0,0.0,0.0,0.0,0.0,0.0,0.0,0.0,0.0,0.0,0.0,0.0,0.0,0.0,0.0,0.0,0.0,0.0,0.0,0.0,0.0,0.0,0.0,0.0,0.0,0.0,0.0,0.0,0.0,0.0,0.0,0.0,0.0,0.0,0.0,0.0,0.0,0.0,0.0,0.0,0.0,0.0,0.0,0.0,0.0,0.0,0.0,0.0,0.0,0.0,0.0,0.0,0.0,0.0,0.0,0.0,0.0,0.0,0.0,0.0,0.0,0.0,0.0,0.0,0.0,0.0,0.0,0.0,0.0,0.0,0.6316,0.595,0.5771,0.5726,0.5583,0.5294,0.0,0.0,0.0,0.0,0.0,0.0,0.0,0.0,0.0,0.0,0.0,0.0,0.0,0.0,0.0,0.0,0.0,0.0,0.0,0.0,0.0,0.0,0.0,0.0,0.0,0.0,0.0,0.0,0.0,0.0,0.0,0.0,0.0,0.0,0.0,0.0,0.0,0.0,0.0,0.0,0.0,0.0,0.0,0.0,0.0,0.0,0.0,0.0,0.0,0.0,0.0,0.0,0.0,0.0,0.0,0.0,0.0,0.0,0.0,0.0,0.0,0.0,0.0,0.0,0.0,0.0,0.0,0.0,0.0,0.0,0.0,0.0,0.0,0.0,0.0,0.0,0.0,0.0,0.0,0.0,0.0,0.0,0.0,0.0,0.0,0.0,0.0,0.0,0.0,0.0,0.0,0.0,0.0,0.0,0.0,0.0,0.0,0.0,0.0,0.0,0.0,0.0,0.0,0.0,0.0,0.0,0.0,0.0,0.0,0.6584,0.6701,0.6552,0.6166,0.5754,0.5408,0.0,0.0,0.0,0.0,0.0,0.0,0.0,0.0,0.0,0.0,0.0,0.0,0.0,0.0,0.0,0.0,0.0,0.0,0.0,0.0,0.0,0.0,0.0,0.0,0.0,0.0,0.0,0.0,0.0,0.0,0.0,0.0,0.0,0.0,0.0,0.0,0.0,0.0,0.0,0.0,0.0,0.0,0.0,0.0,0.0,0.0,0.0,0.0,0.0,0.0,0.0,0.0,0.0,0.0,0.0,0.0,0.0,0.0,0.0,0.0,0.0,0.0,0.0,0.0,0.0,0.0,0.0,0.0,0.0,0.0,0.0,0.0,0.0,0.0,0.0,0.0,0.0,0.0,0.0,0.0,0.0,0.0,0.0,0.0,0.0,0.0,0.0,0.0,0.0,0.0,0.0,0.0,0.0,0.0,0.0,0.0,0.0,0.0,0.0,0.0,0.0,0.0,0.0,0.0,0.0,0.0,0.0,0.0,0.6631,0.6901,0.7177,0.7125,0.6683,0.611,0.5768,0.0,0.0,0.0,0.0,0.0,0.0,0.0,0.0,0.0,0.0,0.0,0.0,0.0,0.0,0.0,0.0,0.0,0.0,0.0,0.0,0.0,0.0,0.0,0.0,0.0,0.0,0.0,0.0,0.0,0.0,0.0,0.0,0.0,0.0,0.0,0.0,0.0,0.0,0.0,0.0,0.0,0.0,0.0,0.0,0.0,0.0,0.0,0.0,0.0,0.0,0.0,0.0,0.0,0.0,0.0,0.0,0.0,0.0,0.0,0.0,0.0,0.0,0.0,0.0,0.0,0.0,0.0,0.0,0.0,0.0,0.0,0.0,0.0,0.0,0.0,0.0,0.0,0.0,0.0,0.0,0.0,0.0,0.0,0.0,0.0,0.0,0.0,0.0,0.0,0.0,0.0,0.0,0.0,0.0,0.0,0.0,0.0,0.0,0.0,0.0,0.0,0.0,0.0,0.0,0.0,0.0,0.0,0.0,0.6973,0.7205,0.7498,0.7543,0.7276,0.6664,0.6198,0.0,0.0,0.0,0.0,0.0,0.0,0.0,0.0,0.0,0.0,0.0,0.0,0.0,0.0,0.0,0.0,0.0,0.0,0.0,0.0,0.0,0.0,0.0,0.0,0.0,0.0,0.0,0.0,0.0,0.0,0.0,0.0,0.0,0.0,0.0,0.0,0.0,0.0,0.0,0.0,0.0,0.0,0.0,0.0,0.0,0.0,0.0,0.0,0.0,0.0,0.0,0.0,0.0,0.0,0.0,0.0,0.0,0.0,0.0,0.0,0.0,0.0,0.0,0.0,0.0,0.0,0.0,0.0,0.0,0.0,0.0,0.0,0.0,0.0,0.0,0.0,0.0,0.0,0.0,0.0,0.0,0.0,0.0,0.0,0.0,0.0,0.0,0.0,0.0,0.0,0.0,0.0,0.0,0.0,0.0,0.0,0.0,0.0,0.0,0.0,0.0,0.0,0.0,0.0,0.0,0.0,0.0,0.0,0.7202,0.75,0.7791,0.7892,0.7836,0.7039,0.6499,0.0,0.0,0.0,0.0,0.0,0.0,0.0,0.0,0.0,0.0,0.0,0.0,0.0,0.0,0.0,0.0,0.0,0.0,0.0,0.0,0.0,0.0,0.0,0.0,0.0,0.0,0.0,0.0,0.0,0.0,0.0,0.0,0.0,0.0,0.0,0.0,0.0,0.0,0.0,0.0,0.0,0.0,0.0,0.0,0.0,0.0,0.0,0.0,0.3254,0.0,0.0,0.0,0.0,0.0,0.0,0.0,0.0,0.0,0.0,0.0,0.0,0.0,0.0,0.0,0.0,0.0,0.0,0.0,0.0,0.0,0.0,0.0,0.0,0.0,0.0,0.0,0.0,0.0,0.0,0.0,0.0,0.0,0.0,0.0,0.0,0.0,0.0,0.0,0.0,0.0,0.0,0.0,0.0,0.0,0.0,0.0,0.0,0.0,0.0,0.0,0.0,0.0,0.0,0.0,0.0,0.0,0.0,0.0,0.7382,0.7594,0.7818,0.7933,0.787,0.7332,0.6892,0.0,0.0,0.0,0.0,0.0,0.0,0.0,0.0,0.0,0.0,0.0,0.0,0.0,0.0,0.0,0.0,0.0,0.0,0.0,0.0,0.0,0.0,0.0,0.0,0.0,0.0,0.0,0.0,0.0,0.0,0.0,0.0,0.0,0.0,0.0,0.0,0.0,0.0,0.0,0.0,0.0,0.0,0.0,0.0,0.0,0.0,0.0,0.0,0.0,0.0,0.0,0.0,0.0,0.0,0.0,0.0,0.0,0.0,0.0,0.0,0.0,0.0,0.0,0.0,0.0,0.0,0.0,0.0,0.0,0.0,0.0,0.0,0.0,0.0,0.0,0.0,0.0,0.0,0.0,0.0,0.0,0.0,0.0,0.0,0.0,0.0,0.0,0.0,0.0,0.0,0.0,0.0,0.0,0.0,0.0,0.0,0.0,0.0,0.0,0.0,0.0,0.0,0.0,0.0,0.0,0.0,0.0,0.733,0.7489,0.7553,0.7706,0.778,0.7773,0.7489,0.7165,0.6771,0.0,0.0,0.0,0.0,0.0,0.0,0.0,0.0,0.0,0.0,0.0,0.0,0.0,0.0,0.0,0.0,0.0,0.0,0.0,0.0,0.0,0.0,0.0,0.0,0.0,0.0,0.0,0.0,0.0,0.0,0.0,0.0,0.0,0.0,0.0,0.0,0.0,0.0,0.6929,0.6337,0.0,0.0,0.0,0.0,0.0,0.0,0.0,0.0,0.3263,0.0,0.0,0.0,0.0,0.0,0.0,0.0,0.0,0.0,0.0,0.0,0.0,0.0,0.0,0.0,0.0,0.0,0.0,0.0,0.0,0.0,0.0,0.0,0.0,0.0,0.0,0.0,0.0,0.0,0.0,0.0,0.0,0.0,0.0,0.0,0.0,0.0,0.0,0.0,0.0,0.0,0.0,0.0,0.0,0.0,0.0,0.0,0.0,0.0,0.0,0.0,0.0,0.0,0.0,0.0,0.0,0.748,0.7341,0.7325,0.745,0.756,0.7634,0.7628,0.7336,0.7011,0.6692,0.0,0.0,0.0,0.0,0.0,0.0,0.0,0.0,0.0,0.0,0.0,0.0,0.0,0.0,0.0,0.0,0.0,0.0,0.0,0.0,0.0,0.0,0.0,0.0,0.0,0.0,0.0,0.0,0.0,0.0,0.0,0.0,0.0,0.0,0.0,0.0,0.0,0.0,0.0,0.6523,0.6084,0.0,0.0,0.0,0.0,0.0,0.0,0.0,0.0,0.3146,0.0,0.0,0.0,0.0,0.0,0.0,0.0,0.0,0.0,0.0,0.0,0.0,0.0,0.0,0.0,0.0,0.0,0.0,0.0,0.0,0.0,0.0,0.0,0.0,0.0,0.0,0.0,0.0,0.0,0.0,0.0,0.0,0.0,0.0,0.0,0.0,0.0,0.0,0.0,0.0,0.0,0.0,0.0,0.0,0.0,0.0,0.0,0.0,0.0,0.0,0.0,0.0,0.0,0.0,0.0,0.7714,0.7931,0.7801,0.7409,0.7444,0.7482,0.7475,0.7146,0.6815,0.0,0.0,0.0,0.0,0.0,0.0,0.0,0.0,0.0,0.0,0.0,0.0,0.0,0.0,0.0,0.0,0.0,0.0,0.0,0.0,0.0,0.0,0.0,0.0,0.0,0.0,0.0,0.0,0.0,0.0,0.0,0.0,0.0,0.0,0.0,0.0,0.0,0.0,0.0,0.0,0.6736,0.6386,0.6264,0.0,0.0,0.0,0.0,0.0,0.0,0.4473,0.3688,0.0,0.0,0.0,0.0,0.0,0.0,0.0,0.0,0.0,0.0,0.0,0.0,0.0,0.0,0.0,0.0,0.0,0.0,0.0,0.0,0.0,0.0,0.0,0.0,0.0,0.0,0.0,0.0,0.0,0.0,0.0,0.0,0.0,0.0,0.0,0.0,0.0,0.0,0.0,0.0,0.0,0.0,0.0,0.0,0.0,0.0,0.0,0.0,0.0,0.0,0.0,0.0,0.0,0.0,0.0,0.7902,0.8476,0.8312,0.7406,0.7326,0.7312,0.7278,0.7037,0.6682,0.0,0.0,0.0,0.0,0.0,0.0,0.0,0.0,0.0,0.0,0.0,0.0,0.0,0.0,0.0,0.0,0.0,0.0,0.0,0.0,0.0,0.0,0.0,0.0,0.0,0.0,0.0,0.0,0.0,0.0,0.0,0.0,0.0,0.0,0.0,0.0,0.0,0.0,0.0,0.0,0.0,0.6644,0.6367,0.5989,0.0,0.0,0.0,0.0,0.5543,0.4839,0.0,0.0,0.0,0.0,0.0,0.0,0.0,0.0,0.0,0.0,0.0,0.0,0.0,0.0,0.0,0.0,0.0,0.0,0.0,0.0,0.0,0.0,0.0,0.0,0.0,0.0,0.0,0.0,0.0,0.0,0.0,0.0,0.0,0.0,0.0,0.0,0.0,0.0,0.0,0.0,0.0,0.0,0.0,0.0,0.0,0.0,0.0,0.0,0.0,0.0,0.0,0.0,0.0,0.0,0.0,0.0,0.8118,0.8435,0.8139,0.72,0.7122,0.7065,0.6937,0.6812,0.6501,0.0,0.0,0.0,0.0,0.0,0.0,0.0,0.0,0.0,0.0,0.0,0.0,0.0,0.0,0.0,0.0,0.0,0.0,0.0,0.0,0.0,0.0,0.0,0.0,0.0,0.0,0.0,0.0,0.0,0.0,0.0,0.0,0.0,0.0,0.0,0.0,0.0,0.0,0.0,0.0,0.0,0.6673,0.7121,0.643,0.588,0.0,0.0,0.5669,0.5667,0.5211,0.0,0.0,0.0,0.0,0.0,0.0,0.0,0.0,0.0,0.0,0.0,0.0,0.0,0.0,0.0,0.0,0.0,0.0,0.0,0.0,0.0,0.0,0.0,0.0,0.0,0.0,0.0,0.0,0.0,0.0,0.0,0.0,0.0,0.0,0.0,0.0,0.0,0.0,0.0,0.0,0.0,0.0,0.0,0.0,0.0,0.0,0.0,0.0,0.0,0.0,0.0,0.0,0.0,0.0,0.0,0.9507,0.9074,0.9756,0.967,0.8703,0.8092,0.7963,0.8361,0.7317,0.683,0.0,0.0,0.0,0.0,0.0,0.0,0.0,0.0,0.0,0.0,0.0,0.0,0.0,0.0,0.0,0.0,0.0,0.0,0.0,0.0,0.0,0.0,0.0,0.0,0.0,0.0,0.0,0.0,0.0,0.0,0.0,0.0,0.0,0.0,0.0,0.0,0.0,0.0,0.0,0.0,0.0,0.0,0.7151,0.6885,0.0,0.0,0.0,0.5688,0.5688,0.0,0.0,0.0,0.0,0.0,0.0,0.0,0.0,0.0,0.0,0.0,0.0,0.0,0.0,0.0,0.0,0.0,0.0,0.0,0.0,0.0,0.0,0.0,0.0,0.0,0.0,0.0,0.0,0.0,0.0,0.0,0.0,0.0,0.0,0.0,0.0,0.0,0.0,0.0,0.0,0.0,0.0,0.0,0.0,0.0,0.0,0.0,0.0,0.0,0.0,0.0,0.0,0.0,0.0,0.0,0.0,0.0,0.9717,1.0637,1.0697,0.9838,0.8929,0.8765,0.9331,0.7981,0.0,0.0,0.0,0.0,0.0,0.0,0.0,0.0,0.0,0.0,0.0,0.0,0.0,0.0,0.0,0.0,0.0,0.0,0.0,0.0,0.0,0.0,0.0,0.0,0.0,0.0,0.0,0.8466,0.0,0.0,0.0,0.0,0.0,0.0,0.0,0.0,0.0,0.0,0.0,0.0,0.0,0.0,0.7994,0.7164,0.7214,0.6976,0.0,0.0,0.5721,0.5694,0.5502,0.5323,0.0,0.0,0.0,0.0,0.0,0.0,0.0,0.0,0.0,0.0,0.0,0.0,0.0,0.0,0.0,0.0,0.0,0.0,0.0,0.0,0.0,0.0,0.0,0.0,0.0,0.0,0.0,0.0,0.0,0.0,0.0,0.0,0.0,0.0,0.0,0.0,0.0,0.0,0.0,0.0,0.0,0.0,0.0,0.0,0.0,0.0,0.0,0.0,0.0,0.0,0.0,0.0,0.0,0.0,0.0,0.9744,1.0277,1.0228,0.9541,0.9234,0.8995,0.892,0.8633,0.8275,0.0,0.0,0.0,0.0,0.0,0.0,0.0,0.0,0.0,0.0,0.0,0.0,0.0,0.0,0.0,0.0,0.0,0.0,0.0,0.0,0.0,0.0,0.0,0.0,0.0,0.0,0.0,0.0,0.0,0.0,0.0,0.0,0.0,0.0,0.0,0.0,0.0,0.0,0.0,0.0,0.0,0.8212,0.7412,0.731,0.6976,0.0,0.0,0.5855,0.5704,0.5769,0.5756,0.5532,0.0,0.0,0.0,0.0,0.0,0.0,0.0,0.0,0.0,0.0,0.0,0.0,0.0,0.0,0.0,0.0,0.0,0.0,0.0,0.0,0.0,0.0,0.0,0.0,0.0,0.0,0.0,0.0,0.0,0.0,0.0,0.0,0.0,0.0,0.0,0.0,0.0,0.0,0.0,0.0,0.0,0.0,0.0,0.0,0.0,0.0,0.0,0.0,0.0,0.0,0.0,0.0,0.0,1.0036,1.031,1.1008,1.1231,1.0985,1.0239,1.0037,1.05,0.9435,0.8908,0.0,0.0,0.0,0.0,0.0,0.0,0.0,0.0,0.0,0.0,0.0,0.0,0.0,0.0,0.0,0.0,0.0,0.0,0.0,0.0,0.0,0.0,0.0,0.0,0.0,0.0,0.0,0.0,0.9866,0.9788,0.971,0.0,0.0,0.0,0.0,0.0,0.0,0.0,0.0,0.0,0.0,0.9091,0.8272,0.809,0.0,0.0,0.6113,0.5739,0.5696,0.5726,0.5699,0.5534,0.547,0.0,0.0,0.0,0.0,0.0,0.0,0.0,0.0,0.0,0.0,0.0,0.0,0.0,0.0,0.0,0.0,0.0,0.0,0.0,0.0,0.0,0.0,0.0,0.0,0.0,0.0,0.0,0.0,0.0,0.0,0.0,0.0,0.0,0.0,0.0,0.0,0.0,0.0,0.0,0.0,0.0,0.0,0.0,0.0,0.0,0.0,0.0,0.0,0.0,0.0,0.0,0.0,1.0189,1.0785,1.1505,1.1878,1.1958,1.1146,1.0973,1.1504,1.0364,0.9846,0.0,0.0,0.0,0.0,0.0,0.0,0.0,0.0,0.0,0.0,0.0,0.0,0.0,0.0,0.0,0.0,0.0,0.0,0.0,0.0,0.0,0.0,0.0,0.0,0.0,0.0,0.0,0.0,1.0641,1.0402,1.0188,0.0,0.0,0.0,0.0,0.0,0.0,0.0,0.0,0.0,0.0,0.9999,0.88,0.8611,0.8249,0.7092,0.6397,0.5905,0.5824,0.576,0.5699,0.558,0.0,0.0,0.0,0.0,0.0,0.0,0.0,0.0,0.0,0.0,0.0,0.0,0.0,0.0,0.0,0.0,0.0,0.0,0.0,0.0,0.0,0.0,0.0,0.0,0.0,0.0,0.0,0.0,0.0,0.0,0.0,0.0,0.0,0.0,0.0,0.0,0.0,0.0,0.0,0.0,0.0,0.0,0.0,0.0,0.0,0.0,0.0,0.0,0.0,0.0,0.0,0.0,0.0,1.018,1.0958,1.1445,1.1834,1.2062,1.1797,1.1645,1.1676,1.1403,1.1186,1.1066,0.0,0.0,0.0,0.0,0.0,0.0,0.0,0.0,0.0,0.0,0.0,0.0,0.0,0.0,0.0,0.0,0.0,0.0,0.0,0.0,0.0,0.0,0.0,0.0,0.0,0.0,1.1575,1.1455,1.1211,0.0,0.0,0.0,0.0,0.0,0.0,0.0,0.0,0.0,0.0,1.0805,1.0687,0.883,0.8759,0.8411,0.7043,0.6683,0.6448,0.6147,0.6003,0.586,0.0,0.0,0.0,0.0,0.0,0.0,0.0,0.0,0.0,0.0,0.0,0.0,0.0,0.0,0.0,0.0,0.0,0.0,0.0,0.0,0.0,0.0,0.0,0.0,0.0,0.0,0.0,1.5974,1.6021,0.0,0.0,0.0,0.0,0.0,0.0,0.0,0.0,0.0,0.0,0.0,1.7615,1.7076,0.0,0.0,0.0,0.0,0.0,0.0,0.0,0.0,0.0,0.0,0.0,0.0,1.0495,1.095,1.1435,1.1757,1.1815,1.1757,1.1706,1.1706,1.1617,1.1359,1.0962,0.0,0.0,0.0,0.0,0.0,0.0,0.0,0.0,0.0,0.0,0.0,0.0,0.0,0.0,0.0,0.0,0.0,0.0,0.0,0.0,0.0,0.0,0.0,0.0,0.0,1.2142,0.0,0.0,0.0,0.0,0.0,0.0,0.0,0.0,0.0,0.0,0.0,1.1467,1.1394,1.153,1.1202,1.0107,0.9633,0.9069,0.0,0.0,0.0,0.0,0.0,0.0,0.0,0.0,0.0,0.0,0.0,0.0,0.0,0.0,0.5621,0.5309,0.5211,0.5073,0.4751,0.0,0.0,0.0,0.0,0.0,0.0,0.0,0.0,0.0,0.0,0.0,0.0,0.0,0.0,0.0,0.0,1.6575,0.0,0.0,0.0,0.0,0.0,0.0,0.0,0.0,1.788,1.8265,1.8475,1.8119,1.7917,0.0,1.7334,1.6091,0.0,0.0,0.0,0.0,0.0,0.0,0.0,0.0,1.1296,1.1567,1.2069,1.2328,1.2291,1.2033,1.1892,1.1892,1.1892,1.1715,1.1248,1.1142,1.0943,0.0,0.0,0.0,0.0,0.0,0.0,0.0,0.0,0.0,0.0,0.0,0.0,0.0,0.0,0.0,0.0,0.0,0.0,0.0,0.0,0.0,0.0,0.0,1.3014,0.0,0.0,0.0,0.0,0.0,0.0,0.0,0.0,0.0,1.2418,1.2336,1.2327,1.2244,1.214,1.1807,1.1031,0.0,0.0,0.0,0.0,0.0,0.0,0.0,0.6647,0.6635,0.6319,0.607,0.6029,0.6056,0.601,0.5731,0.0,0.0,0.5488,0.5431,0.5389,0.5175,0.5007,0.4765,0.4374,0.3265,0.2236,0.0,0.0,0.0,0.0,0.0,0.0,0.0,0.0,1.8419,1.846,0.0,1.8375,0.0,0.0,0.0,0.0,0.0,0.0,0.0,0.0,1.8994,1.9332,1.9295,1.8937,1.8724,1.8705,1.8132,1.7659,1.7171,1.5546,0.0,0.0,0.0,0.0,0.0,0.0,1.2558,1.2807,1.3267,1.352,1.3455,1.2755,1.2378,1.2372,1.2365,1.221,1.2006,1.2606,1.253,1.1604,1.1927,0.0,0.0,0.0,0.0,0.0,0.0,0.0,0.0,0.0,0.0,0.0,0.0,0.0,0.0,0.0,0.0,0.0,0.0,0.0,0.0,1.4069,0.0,0.0,0.0,0.0,0.0,0.0,0.0,0.0,0.0,0.0,1.3083,1.3345,1.3409,1.2722,0.0,0.0,0.0,0.0,1.08,1.008,0.9778,0.9402,0.8672,0.7879,0.7318,0.7092,0.0,0.0,0.5985,0.6018,0.6026,0.5739,0.5839,0.5833,0.5559,0.5513,0.5467,0.5249,0.5206,0.5114,0.4763,0.379,0.2812,2.1299,0.0,0.0,0.0,0.0,2.0313,2.0538,2.0834,2.07,2.0839,2.1043,2.0625,0.0,0.0,0.0,0.0,0.0,0.0,1.9805,1.9905,2.0408,2.0391,1.9971,1.9848,1.9558,1.9127,1.893,1.8528,1.7889,1.7343,1.6263,1.4628,0.0,0.0,0.0,0.0,1.3585,1.3423,1.3972,1.4002,1.3427,1.3747,1.3954,1.3918,1.3663,1.3384,1.3093,1.3043,1.2944,1.2854,1.2394,0.0,0.0,0.0,0.0,0.0,0.0,0.0,0.0,0.0,0.0,0.0,0.0,0.0,0.0,0.0,0.0,0.0,0.0,0.0,1.5311,1.5368,1.5303,0.0,0.0,0.0,0.0,0.0,0.0,0.0,0.0,0.0,1.5821,1.5292,1.4797,0.0,0.0,1.3584,1.2552,1.224,1.1927,1.1528,0.0,0.0,0.0,0.9832,0.9112,0.9094,0.8045,0.7171,0.7031,0.664,0.623,0.5915,0.5953,0.5958,0.5738,0.5637,0.5634,0.559,0.5546,0.5513,0.5366,0.4612,0.3628,2.3779,2.2735,2.2286,2.2048,2.1976,2.1976,2.2056,2.2233,2.2196,2.2353,2.263,2.238,2.209,2.173,2.113,0.0,0.0,0.0,2.0834,2.0858,2.1082,2.0873,2.0303,2.0062,1.9659,1.9142,1.894,1.8548,1.8081,1.7954,1.7288,1.6165,0.0,0.0,1.4404,1.4706,1.4647,1.4255,1.4607,1.4504,1.3883,1.4178,1.4296,1.4126,1.4055,1.3866,1.3551,1.3591,1.3704,1.3873,1.352,1.3314,0.0,0.0,0.0,0.0,0.0,0.0,0.0,0.0,0.0,0.0,0.0,1.444,1.5108,0.0,0.0,0.0,1.5171,1.5756,1.6575,1.6704,0.0,0.0,0.0,0.0,0.0,0.0,0.0,1.7415,1.7572,1.7669,1.7794,1.7234,1.6483,1.5631,1.5009,1.4313,1.3358,0.0,1.2777,1.2552,1.2276,1.2036,1.1987,1.1135,1.0444,1.0168,0.9399,0.8701,0.8553,0.7919,0.7244,0.686,0.6497,0.6164,0.5833,0.5723,0.5688,0.5688,0.5688,0.5688,0.5688,0.4973,0.4127,2.5805,2.5254,2.4177,2.3618,2.3471,2.3471,2.335,2.318,2.3169,2.3375,2.374,2.374,2.3589,2.3313,2.2533,0.0,0.0,2.1716,2.1512,2.1372,2.1303,2.0994,2.0434,1.9956,1.9453,1.8949,1.8443,1.8175,1.8082,1.7751,1.7513,1.7457,1.6397,1.5624,1.5182,1.5632,1.5682,1.5284,1.5287,1.5093,1.4715,1.4352,1.3994,1.3602,1.3946,1.3946,1.3562,1.4212,1.462,1.4646,1.4971,1.4853,1.4198,0.0,0.0,0.0,0.0,0.0,0.0,0.0,0.0,0.0,0.0,0.0,0.0,0.0,0.0,0.0,1.6598,0.0,1.7587,1.8032,0.0,0.0,0.0,1.8422,1.8196,1.8292,1.852,1.8856,0.0,0.0,0.0,0.0,1.8096,1.6397,1.5555,1.4844,1.4136,1.3761,1.3449,1.323,1.319,1.3039,1.2684,1.2139,1.1541,1.0867,1.0516,1.0405,1.0219,0.9526,0.881,0.8157,0.7312,0.652,0.6064,0.5907,0.5791,0.578,0.5735,0.5688,0.5688,0.506,0.4499,2.6021,2.5841,2.5183,2.4874,2.4802,2.485,2.4802,2.4755,2.4755,2.4802,2.4886,2.4921,2.485,2.4803,2.459,2.4331,2.403,2.358,2.3218,2.2855,2.2204,2.1585,2.098,2.0612,2.0118,1.9512,1.9377,1.8947,1.828,1.8166,1.7816,1.7281,1.6853,1.6578,1.6453,1.6578,1.6433,1.6042,1.6032,1.5846,1.5481,1.5661,1.5562,1.5163,1.5242,1.5118,1.4697,1.4568,1.4673,1.4953,1.4771,1.4693,1.47,1.4071,0.0,0.0,0.0,0.0,0.0,0.0,0.0,0.0,0.0,1.59,1.6697,0.0,1.7176,0.0,1.756,1.8006,1.8602,1.9034,0.0,0.0,1.9461,1.9426,1.9114,1.9131,1.9068,1.8826,1.9051,1.9257,1.9343,1.9296,1.8826,1.7808,1.6718,1.5765,1.5137,1.4489,1.4076,1.4046,1.401,1.3962,1.3811,1.3383,1.2851,1.2311,1.1712,1.1297,1.1293,1.0591,0.9661,0.8745,0.8321,0.7695,0.6722,0.6472,0.6412,0.6239,0.5949,0.5688,0.5688,0.551,0.5159,2.6683,2.643,2.5889,2.5661,2.5648,2.542,2.5312,2.5312,2.5312,2.5312,2.5312,2.5312,2.5312,2.5312,2.5312,2.5123,2.479,2.4237,2.3781,2.3349,2.2488,2.1807,2.1254,2.0679,2.0066,1.9522,1.9278,1.8904,1.8434,1.8389,1.8169,1.7774,1.7442,1.727,1.7235,1.7003,1.6707,1.6288,1.6138,1.601,1.5973,1.601,1.5927,1.5689,1.5524,1.5239,1.4854,1.4625,1.4689,1.5074,1.4891,1.4925,1.5228,1.4741,1.4444,0.0,0.0,0.0,0.0,0.0,0.0,0.0,0.0,0.0,0.0,0.0,1.8109,0.0,1.8513,0.0,1.9616,2.0034,2.0319,2.0418,2.0598,2.0622,2.0447,2.0064,1.976,1.9723,1.9531,1.9415,1.9415,1.9415,1.9162,1.8518,1.7589,1.6675,1.6001,1.5296,1.4771,1.4771,1.4484,1.4298,1.4298,1.4058,1.3775,1.348,1.3082,1.2829,1.278,1.2042,1.109,1.0236,0.9651,0.8898,0.7594,0.7212,0.7052,0.6503,0.6213,0.6038,0.5994,0.6038,0.5824,2.7414,2.6946,2.643,2.6166,2.6069,2.56,2.536,2.5312,2.5312,2.5312,2.5312,2.5312,2.5312,2.5312,2.5312,2.5159,2.4826,2.433,2.3874,2.3467,2.2593,2.1947,2.1519,2.0605,1.9933,1.954,1.9067,1.88,1.8734,1.8734,1.871,1.8633,1.8172,1.7935,1.7935,1.7467,1.6937,1.6355,1.6066,1.6048,1.6263,1.6071,1.5868,1.567,1.5385,1.5017,1.4563,1.4591,1.4805,1.5136,1.5201,1.5394,1.5725,1.539,1.5349,0.0,1.5315,0.0,0.0,0.0,0.0,0.0,0.0,0.0,0.0,1.8768,1.9026,1.9421,1.9503,1.9824,2.053,2.0952,2.1181,2.12,2.1476,2.1687,2.1597,2.088,2.0466,2.0708,1.9947,1.9438,1.943,1.9399,1.9169,1.8814,1.8241,1.7628,1.6958,1.615,1.5581,1.5527,1.4914,1.4484,1.434,1.4262,1.4184,1.4184,1.4082,1.4195,1.407,1.3349,1.256,1.189,1.1,0.9984,0.8519,0.8098,0.765,0.6918,0.6653,0.6473,0.6384,0.6384,0.6471,2.763,2.7486,2.6958,2.6477,2.6093,2.5985,2.5709,2.5312,2.5312,2.5312,2.5312,2.5312,2.5312,2.5312,2.5312,2.5276,2.5182,2.462,2.4381,2.4254,2.2993,2.2404,2.2243,2.1362,2.0929,2.086,2.0732,2.0452,1.9977,1.9977,1.9803,1.9574,1.9278,1.9245,0.0,0.0,0.0,0.0,1.6966,1.6806,1.6109,1.6869,1.6722,1.5529,1.582,0.0,1.4721,1.5142,1.5409,1.5494,1.5804,0.0,0.0,0.0,0.0,0.0,0.0,0.0,0.0,0.0,0.0,0.0,2.0001,1.9624,1.8791,1.9271,1.982,2.0255,2.0576,2.0833,2.0989,2.1365,2.1621,2.1621,2.1641,2.1553,2.1177,2.0961,2.0771,2.0432,1.99,1.9578,1.9532,1.9201,1.8915,1.8889,1.8681,1.8542,1.8365,1.7185,1.6393,1.6298,1.5663,1.4956,1.4394,1.4164,1.4025,1.396,1.3791,1.3688,1.3642,1.3545,1.2969,1.2148,1.1743,1.1217,1.0007,0.9176,0.8552,0.8168,0.7489,0.6874,0.6476,0.6428,0.6393,2.8114,0.0,2.7498,2.7126,0.0,2.6622,2.6202,2.5673,2.542,2.5312,2.5312,2.5312,2.5312,2.5312,2.5312,2.5312,2.5288,2.4759,2.4496,2.4448,2.3347,2.2742,2.2483,2.1846,2.142,2.1201,2.1201,2.1051,2.0773,2.0752,2.0645,2.0473,2.0107,1.9966,2.0031,1.9694,1.8998,1.8068,1.8164,1.8174,1.8035,1.8025,1.7629,1.6809,0.0,0.0,0.0,0.0,0.0,0.0,0.0,0.0,0.0,0.0,0.0,1.9019,1.9036,1.939,2.0281,2.0186,2.0337,2.0848,2.0919,2.0705,2.0294,2.067,2.114,2.1755,2.2015,2.2207,2.2419,2.2309,2.2264,2.223,2.1909,2.1597,2.1365,2.1132,2.0907,2.0645,2.0229,1.9965,1.992,1.9745,1.9554,1.9509,1.9325,1.9188,1.9096,1.8032,1.7044,1.6669,1.61,1.5451,1.4782,1.4387,1.4068,1.378,1.3604,1.3525,1.3468,1.3468,1.3251,1.2626,1.2501,1.2104,1.1035,1.0353,0.9874,0.9305,0.8794,0.8364,0.7957,0.7297,0.6741,2.851,2.8474,2.8041,2.7801,2.7693,2.7222,2.6657,2.6057,0.0,0.0,0.0,2.5312,2.5312,2.5312,2.5312,2.5312,2.5288,2.4855,2.4616,2.4592,2.3722,2.3091,2.2701,2.2218,2.1742,2.1391,2.1391,2.138,2.1391,2.1348,2.138,2.1316,2.0869,2.0623,2.0602,2.0128,1.9922,1.9966,1.9453,1.9477,1.9995,1.9197,1.8621,1.8381,1.7504,1.7105,1.7275,1.7377,1.7636,1.8039,1.8185,1.8385,1.878,1.915,1.9826,2.0857,2.0981,2.1296,2.1852,2.1529,2.1362,2.1527,2.151,2.1706,2.2147,2.2069,2.2362,2.3229,2.3299,2.3451,2.376,2.3299,2.296,2.296,2.2432,2.2078,2.2078,2.1748,2.1526,2.1311,2.0952,2.0564,2.0428,2.0292,2.0292,2.0246,1.992,1.9642,1.9372,1.8501,1.7526,1.6876,1.6409,1.5892,1.5218,1.4824,1.4385,1.3795,1.3572,1.3464,1.3375,1.3369,1.3284,1.2997,1.3049,1.2604,1.1764,1.1338,1.1042,1.0225,0.9952,0.9766,0.9381,0.8375,0.7472,2.851,2.851,2.8426,2.8098,2.7678,2.7606,2.6994,2.6069,2.554,2.5312,2.5312,2.5312,2.5312,2.5312,2.5312,2.5312,2.53,2.524,2.5204,0.0,2.4184,2.3691,2.3583,2.2631,2.2133,2.2061,2.2061,2.2061,2.2061,2.2042,2.2061,2.203,2.1968,2.1925,2.1894,2.1588,2.1526,2.1757,2.0581,1.9911,1.9856,2.0009,1.978,1.9094,1.9028,1.878,1.8403,1.8811,1.9121,1.9183,1.9574,1.9684,1.9506,1.9765,2.0379,2.14,2.1742,2.2476,2.3702,2.3408,2.3073,2.2793,2.2729,2.2868,2.3167,2.2716,2.2754,2.3599,2.3776,2.372,2.379,2.3714,2.3681,2.3671,2.3594,2.3487,2.342,2.3357,2.3105,2.2564,2.2104,2.1516,2.1078,2.0682,2.0501,2.0365,2.0234,1.9921,1.9166,1.8599,1.7961,1.7251,1.6832,1.6284,1.5634,1.5191,1.4757,1.4125,1.3857,1.3576,1.3102,1.3015,1.2936,1.2814,1.2802,1.2643,1.2376,1.1843,1.1299,1.0768,1.0253,0.9676,0.9439,0.9018,0.8578,2.9496,2.9496,2.9496,2.9359,2.9047,2.8161,2.7484,2.6957,2.613,2.5594,2.5312,2.5312,2.5312,2.5312,2.5312,2.5312,2.5312,2.5312,2.5312,2.5276,2.4819,2.4314,2.3782,2.33,2.2751,2.2221,2.2197,2.2197,2.2197,2.2197,2.2197,2.2197,2.2197,2.2197,2.2197,2.2061,2.2049,2.2197,2.1368,2.1028,2.1103,2.1092,2.0787,2.0139,1.9969,1.987,1.9847,2.008,2.0329,2.0623,2.0851,2.0909,2.0863,2.1152,2.1812,2.2822,2.2849,2.321,2.4129,2.3824,2.3519,2.3335,2.3335,2.353,2.3953,2.3737,2.3945,2.483,2.4935,2.4935,2.4935,2.4584,2.4413,2.4413,2.4069,2.38,2.38,2.38,2.3681,2.3377,2.3139,2.2867,2.257,2.2306,2.1938,2.1429,2.0659,1.9747,1.8869,1.8591,1.823,1.763,1.7252,1.6756,1.6089,1.5619,1.5184,1.4518,1.4325,1.411,1.3766,1.3548,1.3189,1.3015,1.278,1.2427,1.233,1.1946,1.1634,1.1454,1.1152,1.0722,1.0453,0.9982,0.9142,3.0292,3.0292,3.0292,3.0215,2.9972,2.8597,2.7938,2.7697,2.6804,2.6117,2.5734,2.5687,2.5629,2.5511,2.5511,2.5406,2.5312,2.5312,2.5312,2.53,2.5192,2.4711,2.3998,2.3725,2.3192,2.2426,2.2258,2.2197,2.2197,2.2197,2.2125,2.2029,2.2017,2.2048,2.2017,2.2125,2.2197,2.2166,2.1956,2.1925,2.2185,2.1925,2.1588,2.1219,2.089,2.0858,2.1155,2.1187,2.1376,2.1788,2.1819,2.1819,2.1883,2.2379,2.3024,2.372,2.3758,2.3894,2.4251,2.4043,2.3813,2.3751,2.3852,2.4153,2.4698,2.4783,2.5099,2.5784,2.5853,2.5853,2.577,2.5422,2.5126,2.5073,2.4637,2.437,2.4274,2.4284,2.4188,2.4102,2.4069,2.3973,2.3823,2.371,2.3169,2.2213,2.1053,1.9922,1.9049,1.8858,1.8572,1.7984,1.7572,1.7083,1.6503,1.6137,1.5688,1.5026,1.483,1.4698,1.4469,1.404,1.3587,1.3201,1.2754,1.2365,1.2021,1.1904,1.184,1.1746,1.1637,1.1627,1.1254,1.0766,0.9757,3.033,3.0292,3.0368,2.9985,2.9473,2.8799,2.8283,2.7789,2.7169,2.6905,2.6824,2.6837,2.6552,2.6164,2.6129,2.5826,2.5382,2.5312,2.5347,2.5287,2.4807,2.453,2.4384,2.3553,2.3047,2.2867,2.2445,2.2197,2.2197,2.2197,2.1969,2.1524,2.1476,2.1512,2.1548,2.1969,2.2197,2.2197,2.2166,2.2154,2.2197,2.2154,2.2123,2.2092,2.203,2.2018,2.203,2.2092,2.2092,2.2166,2.2123,2.2023,2.1859,2.2615,2.3179,2.3332,2.4155,2.4718,2.4718,2.4718,2.449,2.4223,2.4565,2.5046,2.5515,2.5633,2.5732,2.5942,2.5937,2.5895,2.5895,2.5812,2.5728,2.5728,2.5644,2.5675,2.5591,2.5728,2.5464,2.485,2.4807,2.4551,2.3978,2.3493,2.2984,2.249,2.1777,2.0968,2.0061,1.9721,1.9212,1.829,1.7702,1.7286,1.6811,1.6647,1.6291,1.5749,1.5383,1.508,1.4676,1.4191,1.3603,1.3538,1.2949,1.2678,1.2242,1.1914,1.1924,1.184,1.1701,1.1486,1.1238,1.1173,1.0526,3.1905,3.175,3.17,3.1019,3.0007,2.9411,2.8817,2.8232,2.7681,2.7643,2.7921,2.7954,2.7477,2.6701,2.6667,2.653,2.6311,2.6311,2.6311,2.6299,2.6074,2.5642,2.5001,2.4312,2.3635,2.2987,2.245,2.2197,2.2197,2.2197,2.2077,2.1897,2.1873,2.1873,2.1885,2.2089,2.2197,2.2197,2.2197,2.2197,2.2197,2.2197,2.2197,2.2197,2.2197,2.2197,2.2197,2.2197,2.2197,2.2197,2.2197,2.2279,2.2472,2.287,2.3337,2.3933,2.4472,2.4801,2.4801,2.4801,2.4754,2.4574,2.4991,2.5428,2.567,2.6006,2.6336,2.6562,2.6218,2.5895,2.5937,2.5895,2.5895,2.5895,2.5895,2.5895,2.5895,2.5895,2.578,2.5506,2.5506,2.5262,2.4607,2.3627,2.2947,2.2539,2.2004,2.1232,2.0536,2.0479,2.0167,1.9325,1.8707,1.8013,1.734,1.7093,1.6852,1.6466,1.6226,1.5966,1.5693,1.5242,1.4803,1.4332,1.3952,1.3584,1.3266,1.3092,1.2992,1.2522,1.1847,1.1577,1.1465,1.1521,1.1143,3.3129,3.2881,3.2881,3.1978,3.0521,3.0137,2.9416,2.859,2.8183,2.8229,2.8587,2.8587,2.8183,2.7477,2.731,2.7142,2.7007,2.7007,2.7007,2.7007,2.7007,2.6574,2.5833,2.5305,2.4646,2.3882,2.3378,2.3028,2.2813,2.2439,2.228,2.2214,2.2329,2.2352,2.2252,2.2438,2.2546,2.2426,2.2414,2.2342,2.2221,2.2197,2.2197,2.2197,2.2197,2.2197,2.2197,2.2197,2.2258,2.239,2.2402,2.2642,2.318,2.3348,2.3797,2.4592,2.4826,2.4957,2.4921,2.4921,2.4921,2.4968,2.55,2.5918,2.61,2.6537,2.7007,2.725,2.6592,2.6135,2.626,2.6135,2.6052,2.6063,2.5979,2.5895,2.5895,2.5895,2.5906,2.5895,2.5853,2.5655,2.4981,2.3885,2.3066,2.2804,2.2224,2.1499,2.1096,2.1193,2.1086,2.0188,1.9621,1.8906,1.7898,1.7308,1.7137,1.6919,1.6678,1.6514,1.6638,1.61,1.5603,1.4749,1.4651,1.4376,1.3844,1.379,1.3934,1.3302,1.2652,1.212,1.207,1.1959,1.1811,3.3304,3.3269,3.3269,3.2312,3.0874,3.0827,2.9986,2.8619,2.8554,2.8587,2.8587,2.8587,2.8554,2.8444,2.7954,2.751,2.7074,2.7074,2.7108,2.7108,2.7074,2.6994,2.6896,2.6391,2.6063,2.5741,2.5205,2.4752,2.428,2.3339,2.254,2.2234,2.276,2.2714,2.2546,2.3289,2.3489,2.3151,2.3059,2.279,2.2368,2.2277,2.2301,2.2375,2.2197,2.2197,2.2197,2.2197,2.2426,2.2951,2.2975,2.3216,2.3746,2.4181,2.464,2.518,2.5288,2.5276,2.5276,2.5347,2.5347,2.5444,2.6323,2.6849,2.6934,2.7564,2.7976,2.7921,2.7267,2.6887,2.7133,2.6693,2.6404,2.6373,2.6093,2.5937,2.5895,2.5895,2.5895,2.5884,2.5819,2.5437,2.465,2.4033,2.3422,2.3085,2.2911,2.2617,2.2117,2.2014,2.1552,2.0794,2.0277,1.9835,1.8546,1.7839,1.7229,1.6974,1.696,1.6463,1.6233,1.5997,1.5576,1.5254,1.5215,1.4904,1.4286,1.4083,1.4163,1.3831,1.3404,1.3011,1.2839,1.2331,1.2101,3.3839,3.3597,3.3374,3.2498,3.1285,3.121,3.0349,2.8981,2.8908,2.878,2.8619,2.8587,2.8587,2.8587,2.8392,2.8216,2.802,2.8006,2.802,2.802,2.802,2.7855,2.7478,2.6955,2.6518,2.6148,2.5646,2.5286,2.508,2.4643,2.4402,2.4274,2.4378,2.4412,2.4331,2.4613,2.4701,2.4551,2.4557,2.4444,2.4192,2.3908,2.3876,2.4155,2.2897,2.2197,2.2197,2.2541,2.2787,2.3011,2.3324,2.3746,2.423,2.4735,2.5095,2.5311,2.5664,2.5886,2.5908,2.622,2.638,2.6468,2.7373,2.7975,2.815,2.8862,2.9457,2.9328,2.916,2.9057,2.8703,2.7406,2.6146,2.6093,2.6021,2.5937,2.5895,2.5895,2.5895,2.5808,2.5426,2.4836,2.4465,2.3777,2.322,2.3045,2.3001,2.2879,2.2686,2.2439,2.2023,2.1585,2.0797,1.9966,1.959,1.8821,1.8209,1.7863,1.7637,1.7374,1.7141,1.681,1.6403,1.6254,1.6079,1.5939,1.5525,1.5207,1.5136,1.4958,1.4494,1.3892,1.3646,1.3078,1.2636,3.423,3.3991,3.377,3.284,3.1665,3.1608,3.0722,2.9344,2.9257,2.9131,2.894,2.8908,2.8876,2.878,2.8748,2.8683,2.8587,2.8587,2.8587,2.8587,2.8587,2.8425,2.8051,2.7672,2.7324,2.6941,2.6411,2.6136,2.6109,2.5952,2.5767,2.5615,2.5766,2.5819,2.5704,2.5794,2.5833,2.5711,2.5659,2.5582,2.5396,2.5071,2.4995,2.516,2.3973,2.3244,2.3256,2.3601,2.3865,2.405,2.4382,2.48,2.5296,2.5664,2.5826,2.5896,2.622,2.6461,2.6496,2.6803,2.7007,2.7058,2.795,2.8602,2.8692,2.9639,3.0202,3.0279,3.0165,3.0088,2.973,2.8148,2.6835,2.664,2.6487,2.6373,2.6343,2.6343,2.6254,2.5969,2.5161,2.4559,2.4192,2.3504,2.3099,2.3001,2.3001,2.2957,2.2772,2.2542,2.2138,2.1841,2.0986,2.0328,1.9952,1.9459,1.8809,1.8458,1.8198,1.8052,1.7876,1.7545,1.7314,1.7201,1.7107,1.7047,1.6839,1.6447,1.6237,1.6088,1.5517,1.4798,1.4358,1.3812,1.3343,3.438,3.438,3.438,3.347,3.2158,3.1997,3.1077,2.9816,2.9617,2.9571,2.9477,2.954,2.9352,2.9162,2.9099,2.894,2.8716,2.8716,2.8651,2.8587,2.8587,2.8587,2.8509,2.8468,2.8427,2.8349,2.7913,2.7656,2.7552,2.7103,2.6649,2.6339,2.6707,2.6757,2.6284,2.6749,2.6747,2.6472,2.6388,2.6091,2.5524,2.5562,2.562,2.5645,2.5428,2.537,2.5389,2.5358,2.548,2.5928,2.6069,2.6429,2.6718,2.6858,2.6939,2.6858,2.6973,2.7007,2.7007,2.7074,2.7175,2.7304,2.8055,2.8692,2.8892,2.9722,3.0392,3.0379,3.0215,2.9935,2.9896,2.9383,2.8694,2.8164,2.7695,2.7435,2.7284,2.7214,2.7019,2.6468,2.5543,2.4419,2.3837,2.3581,2.3346,2.3213,2.3073,2.2904,2.2466,2.2237,2.1822,2.1266,2.076,2.0398,2.0226,2.0031,1.9428,1.8898,1.8674,1.8509,1.8442,1.8216,1.7944,1.7774,1.751,1.7417,1.7176,1.6821,1.6726,1.6508,1.6,1.5583,1.501,1.4461,1.4006,3.438,3.438,3.438,3.3883,3.3006,3.254,3.1642,3.0572,3.0156,2.9803,2.9634,2.9602,2.954,2.9477,2.9446,2.9383,2.9289,2.9289,2.9035,2.8683,2.8587,2.8619,2.8587,2.8587,2.8587,2.8573,2.8424,2.8315,2.8307,2.8144,2.7949,2.7894,2.797,2.8013,2.7824,2.8011,2.7998,2.7878,2.7851,2.7763,2.7584,2.7235,2.7189,2.7506,2.728,2.7202,2.7525,2.6531,2.6071,2.6251,2.6532,2.6827,2.6968,2.7007,2.7007,2.7027,2.7377,2.7543,2.7577,2.7888,2.8052,2.8219,2.8785,2.9165,2.9339,3.0304,3.0907,3.1036,3.1229,3.1394,3.1394,3.1307,3.0468,2.8903,2.8615,2.8509,2.843,2.8418,2.811,2.7511,2.6806,2.6097,2.5382,2.4807,2.4311,2.3806,2.3519,2.3118,2.246,2.1851,2.1343,2.0927,2.0631,2.0402,2.0216,2.0118,1.9813,1.9396,1.922,1.9044,1.9011,1.8888,1.861,1.8254,1.7993,1.7687,1.7457,1.7235,1.7072,1.6925,1.6532,1.6097,1.5599,1.5057,1.4486,3.438,3.438,3.438,3.3906,3.3122,3.2658,3.1864,3.0869,3.0452,3.0158,3.0005,2.9974,2.9896,2.9803,2.9803,2.9696,2.9602,2.9602,2.9383,2.8972,2.8812,2.878,2.878,2.878,2.8876,2.8908,2.8844,2.8844,2.8972,2.8972,2.8908,2.8798,2.878,2.8766,2.878,2.8651,2.8683,2.8908,2.8702,2.8651,2.8683,2.8346,2.8249,2.849,2.8249,2.8281,2.8495,2.7582,2.7105,2.7125,2.7439,2.7564,2.7623,2.761,2.761,2.7676,2.7888,2.8085,2.8118,2.836,2.8587,2.8695,2.9143,2.9469,2.9733,3.0629,3.1273,3.1382,3.178,3.2205,3.2169,3.2169,3.1542,3.038,2.9833,2.9602,2.9474,2.9248,2.8861,2.8213,2.741,2.6712,2.6045,2.5718,2.5276,2.4696,2.419,2.3641,2.2844,2.1958,2.1464,2.0941,2.049,2.0303,2.0151,2.0118,2.0118,1.9944,1.9769,1.966,1.9551,1.9462,1.9253,1.8719,1.8322,1.8044,1.7774,1.7507,1.7314,1.7148,1.6952,1.6282,1.5671,1.5231,1.4737,3.438,3.438,3.438,3.3775,3.2803,3.2568,3.1886,3.0887,3.0597,3.0552,3.0538,3.0522,3.0401,3.0172,3.0142,2.9988,2.9727,2.9727,2.9696,2.954,2.932,2.9194,2.9131,2.9131,2.9257,2.9415,2.9257,2.9257,2.9477,2.9477,2.9446,2.9131,2.9131,2.9131,2.9099,2.8812,2.9004,2.9352,2.8972,2.8876,2.9099,2.8844,2.8683,2.8716,2.8651,2.8619,2.8638,2.8454,2.8436,2.8541,2.843,2.8425,2.8522,2.8587,2.849,2.8457,2.8554,2.8554,2.8554,2.8554,2.8587,2.8641,2.9034,2.9488,2.9651,3.0364,3.1083,3.1287,3.1762,3.2137,3.2178,3.2205,3.2096,3.2059,3.1196,3.0632,3.0328,2.9891,2.9402,2.869,2.753,2.6521,2.6263,2.6126,2.5928,2.5563,2.5069,2.4374,2.3618,2.2655,2.1825,2.1312,2.0969,2.0946,2.1008,2.0796,2.0796,2.07,2.0442,2.0161,1.9987,1.9857,1.964,1.9132,1.872,1.8446,1.8155,1.7909,1.7658,1.7523,1.7049,1.6336,1.5771,1.5332,1.4943,3.438,3.438,3.438,3.4225,3.3757,3.2948,3.2292,3.1874,3.093,3.0612,3.0612,3.0612,3.0552,3.0492,3.0462,3.0401,3.0341,3.0296,3.0174,2.9988,2.9896,2.9696,2.9509,2.9477,2.9509,2.9602,2.954,2.9509,2.9602,2.9665,2.9571,2.9477,2.9477,2.9477,2.9446,2.9352,2.9415,2.9571,2.9446,2.9352,2.9415,2.9383,2.932,2.932,2.9099,2.8972,2.894,2.8729,2.8587,2.8587,2.8587,2.8587,2.8587,2.8587,2.8587,2.8587,2.8587,2.8587,2.8587,2.8587,2.8587,2.8587,2.8777,2.9007,2.9488,2.9787,3.0391,3.1002,3.1477,3.1721,3.2083,3.2191,3.2191,3.2169,3.1769,3.1439,3.1095,3.0891,3.0388,2.9255,2.8657,2.808,2.7566,2.7364,2.7136,2.6566,2.5769,2.4971,2.4278,2.3225,2.2294,2.2308,2.2125,2.2051,2.1959,2.1659,2.1502,2.1482,2.1135,2.0646,2.0377,2.0074,1.9781,1.9393,1.9158,1.8889,1.8616,1.837,1.8154,1.7949,1.735,1.6724,1.5987,1.5439,1.5059,3.5037,3.5004,3.482,3.4413,3.3838,3.2914,3.2208,3.1627,3.0975,3.0612,3.0612,3.0612,3.0612,3.0612,3.0612,3.0612,3.0612,3.0612,3.0477,3.0355,3.028,3.0097,2.9896,2.9803,2.9896,3.0005,2.9882,2.9913,2.9991,3.0036,2.9943,2.982,2.9803,2.9803,2.9803,2.9665,2.9744,2.9913,2.9789,2.9634,2.9803,2.9679,2.9602,2.9571,2.9383,2.932,2.9257,2.9145,2.8922,2.8683,2.8587,2.8587,2.8587,2.8587,2.8587,2.8587,2.8587,2.8587,2.8587,2.8587,2.8587,2.8587,2.8587,2.8763,2.9075,2.9339,2.9903,3.0364,3.0934,3.1422,3.1707,3.1816,3.1802,3.1748,3.1585,3.1409,3.126,3.0777,3.0235,2.9544,2.9086,2.881,2.8335,2.8308,2.8039,2.744,2.6536,2.5856,2.5153,2.3912,2.3027,2.3058,2.2834,2.2622,2.2531,2.2317,2.2175,2.2144,2.1908,2.1356,2.093,2.0525,2.0207,1.9954,1.9635,1.9402,1.9254,1.8986,1.8644,1.8315,1.7712,1.7183,1.6534,1.5896,1.5473,3.5881,3.5849,3.5447,3.4629,3.3657,3.2922,3.2196,3.1186,3.0939,3.0807,3.0807,3.0717,3.0762,3.0657,3.0657,3.0612,3.0612,3.0612,3.0612,3.0552,3.0552,3.0416,3.0172,3.0127,3.028,3.0417,3.0249,3.031,3.0417,3.0538,3.0431,3.0233,3.0142,3.0142,3.0111,2.9913,3.0052,3.0326,3.0052,2.9943,3.008,2.9958,2.9851,2.982,2.9696,2.9602,2.9571,2.9509,2.9289,2.8748,2.8716,2.8748,2.8748,2.8716,2.8651,2.8651,2.8651,2.8587,2.8587,2.8587,2.8587,2.8587,2.8587,2.8655,2.8877,2.9157,2.9488,2.9889,3.0554,3.1002,3.1368,3.1341,3.1461,3.1428,3.0937,3.067,3.0917,3.0269,2.9488,2.9407,2.8885,2.8655,2.8587,2.8587,2.8476,2.803,2.7183,2.6388,2.5695,2.4739,2.4053,2.3813,2.3475,2.3045,2.2985,2.2925,2.2834,2.2756,2.2543,2.2132,2.1696,2.1284,2.0887,2.0532,2.0062,1.9981,2.0128,1.9808,1.9359,1.8901,1.8511,1.7932,1.7343,1.6693,1.6195,3.5881,3.5881,3.5785,3.5602,3.5148,3.412,3.3427,3.3036,3.2044,3.1537,3.1537,3.1292,3.1161,3.1131,3.0836,3.0612,3.0628,3.0628,3.0612,3.0612,3.0612,3.0582,3.0492,3.0462,3.0522,3.0582,3.0538,3.0552,3.0612,3.0612,3.0582,3.0492,3.0431,3.0492,3.0462,3.0371,3.0431,3.0552,3.0417,3.0371,3.0431,3.0401,3.0341,3.031,3.0111,2.9865,2.9634,2.9602,2.9509,2.9415,2.9383,2.9383,2.9289,2.9145,2.9004,2.894,2.8748,2.8619,2.8587,2.8619,2.8587,2.8587,2.8614,2.8804,2.9257,2.8953,2.9333,2.9821,3.0052,3.0589,3.1313,3.1371,3.1501,3.1515,3.0711,3.0212,3.0876,3.0233,2.9364,2.8964,2.8741,2.8587,2.8587,2.8587,2.85,2.8346,2.7737,2.6894,2.6155,2.5389,2.4871,2.4379,2.4263,2.3888,2.3859,2.3771,2.3623,2.3475,2.3237,2.3027,2.2584,2.1819,2.1371,2.0887,2.0393,2.0457,2.0605,2.0631,2.016,1.9753,1.9277,1.8784,1.8222,1.756,1.7103,3.6662,3.6631,3.6383,3.609,3.563,3.4455,3.3742,3.3317,3.2362,3.1908,3.1851,3.1667,3.1581,3.1566,3.1321,3.1146,3.0896,3.0687,3.0612,3.0612,3.0612,3.0612,3.0612,3.0612,3.0612,3.0612,3.0612,3.0612,3.0612,3.0612,3.0612,3.0612,3.0612,3.0582,3.0612,3.0612,3.0582,3.0612,3.0612,3.0612,3.0612,3.0612,3.0612,3.0612,3.0431,3.0219,3.0127,3.0097,3.0083,3.0052,3.0066,2.9913,2.9648,2.9446,2.9352,2.9289,2.9194,2.8972,2.8908,2.8812,2.8748,2.8619,2.8587,2.875,2.9048,2.8967,2.9116,2.9691,3.0335,3.1259,3.2066,3.1553,3.1627,3.1485,3.0725,3.0318,3.0633,2.9847,2.9149,2.8917,2.8798,2.8651,2.8587,2.878,2.8643,2.8534,2.7631,2.6826,2.6437,2.574,2.5175,2.4835,2.4892,2.4821,2.4793,2.4666,2.4465,2.4263,2.3989,2.3842,2.3585,2.2677,2.1703,2.1398,2.1169,2.0754,2.0852,2.0892,2.0943,2.0511,2.0056,1.9636,1.9285,1.8875,1.8409,3.751,3.745,3.6998,3.6489,3.5852,3.4816,3.413,3.3563,3.2756,3.2627,3.2257,3.2229,3.2203,3.2007,3.1879,3.1695,3.1394,3.1058,3.094,3.094,3.094,3.0896,3.0807,3.0777,3.0687,3.0642,3.0612,3.0612,3.0612,3.0612,3.0612,3.0612,3.0612,3.0612,3.0612,3.0612,3.0612,3.0612,3.0612,3.0612,3.0612,3.0612,3.0612,3.0612,3.0582,3.0668,3.068,3.0723,3.0784,3.0888,3.0963,3.0706,3.0309,2.9817,2.9727,2.9696,2.9651,2.9526,2.9257,2.9162,2.9067,2.8748,2.8683,2.878,2.8967,2.9237,2.9343,2.9813,3.0625,3.2028,3.2815,3.2025,3.1515,3.1438,3.0961,3.0657,3.0539,2.967,2.9401,2.9498,2.9453,2.9324,2.9166,2.923,2.8967,2.8588,2.7653,2.6881,2.6551,2.6042,2.5474,2.5005,2.5005,2.5005,2.4977,2.4948,2.4835,2.4736,2.4523,2.4465,2.4297,2.3402,2.2513,2.2346,2.2068,2.1631,2.1404,2.1554,2.1481,2.1139,2.0924,2.0652,2.0423,2.0211,1.9692,3.751,3.751,3.7421,3.7312,3.7062,3.6299,3.5817,3.5734,3.4939,3.4431,3.3862,3.3525,3.3076,3.2607,3.2076,3.1894,3.1824,3.1595,3.1566,3.1566,3.1566,3.1451,3.1219,3.1161,3.0984,3.0687,3.0657,3.0717,3.0612,3.0612,3.0612,3.0612,3.0612,3.0612,3.0612,3.0612,3.0642,3.0731,3.076,3.0804,3.0849,3.0922,3.0951,3.0951,3.1011,3.1156,3.1371,3.1426,3.1613,3.2138,3.2603,3.2682,3.231,3.1347,3.0681,3.0307,3.0251,3.0146,2.9761,2.9571,2.954,2.9383,2.9243,2.9369,2.9602,2.9777,3.0111,3.0556,3.1027,3.1719,3.171,3.1725,3.1789,3.1766,3.1442,3.1028,3.1522,3.1043,3.0253,3.0419,3.0283,3.0054,2.987,2.9735,2.9619,2.9233,2.8443,2.7606,2.7055,2.644,2.5703,2.5314,2.5005,2.5005,2.4977,2.4977,2.4948,2.492,2.4821,2.4821,2.4532,2.392,2.3424,2.3302,2.2903,2.2393,2.2275,2.2228,2.2054,2.1788,2.1699,2.1632,2.1326,2.0973,2.058,3.751,3.751,3.751,3.751,3.7383,3.6738,3.6393,3.6298,3.5695,3.5189,3.4896,3.4647,3.4175,3.3572,3.3294,3.2875,3.2348,3.1992,3.1908,3.1908,3.1879,3.1823,3.1625,3.1625,3.148,3.1335,3.1277,3.0984,3.0628,3.0612,3.0642,3.0612,3.0612,3.0612,3.0612,3.0612,3.0776,3.0925,3.1293,3.1589,3.1857,3.2095,3.2288,3.2333,3.2303,3.2526,3.2675,3.2794,3.2928,3.3242,3.3546,3.3638,3.3487,3.3171,3.245,3.1738,3.1324,3.097,3.0614,3.0524,3.048,3.0284,3.0101,3.038,3.0897,3.1263,3.162,3.2344,3.2109,3.2333,3.2734,3.2329,3.2366,3.2477,3.2033,3.201,3.2203,3.1851,3.1623,3.132,3.0852,3.0524,3.0359,3.0271,3.0246,2.9813,2.9188,2.8424,2.7654,2.6858,2.6109,2.5674,2.5384,2.5244,2.5216,2.5174,2.5146,2.5118,2.5005,2.5005,2.4894,2.4332,2.4303,2.4319,2.3819,2.3038,2.2792,2.2619,2.2527,2.2404,2.2201,2.204,2.1963,2.1691,2.1287,3.7569,3.751,3.751,3.751,3.7415,3.6896,3.6658,3.6532,3.6105,3.5802,3.56,3.5568,3.5177,3.462,3.4234,3.3767,3.2882,3.2478,3.2287,3.2318,3.2471,3.2372,3.2107,3.2216,3.2251,3.2127,3.2081,3.1643,3.094,3.0807,3.0747,3.0777,3.0747,3.0807,3.0896,3.1235,3.1294,3.1693,3.2303,3.284,3.3257,3.3695,3.3999,3.3999,3.3999,3.3939,3.4031,3.4076,3.4197,3.4379,3.4547,3.4606,3.4635,3.4868,3.4601,3.3727,3.2924,3.2362,3.2058,3.1958,3.1916,3.1753,3.1501,3.1842,3.2393,3.2976,3.3547,3.4303,3.3844,3.3089,3.3234,3.3127,3.2909,3.2862,3.2835,3.2827,3.2691,3.2511,3.2413,3.2007,3.1378,3.116,3.1131,3.1086,3.1127,3.0575,2.9931,2.9034,2.827,2.7401,2.6666,2.6176,2.5824,2.5646,2.5536,2.5439,2.5411,2.5425,2.5174,2.5005,2.5005,2.4881,2.4878,2.4794,2.4219,2.352,2.3293,2.3064,2.2981,2.2832,2.2581,2.2514,2.2618,2.2399,2.2005,3.7714,3.751,3.751,3.751,3.7494,3.7413,3.7368,3.732,3.7207,3.6864,3.6324,3.6235,3.5916,3.5268,3.4589,3.4261,3.3943,3.3504,3.3224,3.3302,3.3642,3.3431,3.2822,3.3259,3.326,3.3119,3.2989,3.2207,3.1692,3.1441,3.1264,3.1293,3.1293,3.1395,3.1746,3.212,3.2714,3.2908,3.3484,3.3893,3.4013,3.4195,3.4211,3.4211,3.4256,3.4545,3.4988,3.5095,3.5217,3.5675,3.6091,3.6322,3.6352,3.6228,3.6182,3.5721,3.5038,3.4181,3.3708,3.3542,3.3527,3.3363,3.3261,3.3577,3.4027,3.4414,3.4622,3.3926,3.3877,3.3628,3.3412,3.308,3.2928,3.2924,3.2951,3.2924,3.287,3.2827,3.28,3.2746,3.2135,3.2104,3.2132,3.2069,3.1986,3.1331,3.0624,2.9709,2.8813,2.791,2.721,2.6718,2.6322,2.6108,2.5973,2.5851,2.5838,2.5797,2.555,2.5216,2.5202,2.523,2.5033,2.4827,2.432,2.3939,2.3581,2.3424,2.3425,2.3321,2.3151,2.3244,2.3441,2.3114,2.265,3.8144,3.7743,3.7934,3.7905,3.7772,3.7934,3.8008,3.7963,3.7801,3.7539,3.7255,3.7065,3.6643,3.5932,3.5221,3.492,3.4841,3.4584,3.4478,3.4458,3.4742,3.4632,3.4399,3.4485,3.4485,3.44,3.4283,3.4079,3.3261,3.2594,3.2253,3.2192,3.1908,3.198,3.2568,3.2859,3.3368,3.4,3.4835,3.554,3.5865,3.5959,3.5943,3.5959,3.5913,3.6069,3.6225,3.6441,3.6534,3.6846,3.7089,3.7135,3.7118,3.7062,3.7006,3.6961,3.6607,3.5822,3.4961,3.4841,3.4843,3.4781,3.4725,3.4874,3.5495,3.5958,3.6014,3.5417,3.5323,3.4773,3.3909,3.3704,3.3437,3.328,3.3085,3.3058,3.3032,3.3005,3.2978,3.2966,3.2912,3.28,3.2687,3.2532,3.2357,3.1948,3.1124,3.0127,2.9228,2.8317,2.7703,2.7236,2.686,2.6573,2.6493,2.6388,2.6402,2.6349,2.6322,2.5987,2.5633,2.5508,2.5439,2.5188,2.4828,2.4404,2.3956,2.3859,2.3894,2.3819,2.373,2.3869,2.3952,2.364,2.3191,3.8595,3.8144,3.8335,3.8262,3.803,3.829,3.8363,3.8363,3.8148,3.8046,3.796,3.7711,3.7234,3.6669,3.6052,3.5647,3.566,3.5542,3.549,3.5534,3.5717,3.5768,3.5586,3.5637,3.576,3.576,3.5547,3.5454,3.5161,3.4467,3.3804,3.3443,3.3033,3.3117,3.3525,3.4012,3.4572,3.5502,3.6189,3.6794,3.7216,3.734,3.7356,3.7417,3.7494,3.751,3.751,3.7449,3.7435,3.7435,3.7405,3.7421,3.7419,3.7417,3.7399,3.737,3.7229,3.6914,3.6256,3.6004,3.5916,3.59,3.596,3.6135,3.654,3.7227,3.718,3.6253,3.6206,3.5524,3.4699,3.4257,3.3866,3.3492,3.3256,3.3229,3.3176,3.315,3.3139,3.3096,3.3069,3.3058,3.2935,3.2827,3.2652,3.2458,3.165,3.0567,2.9572,2.8586,2.8263,2.782,2.7705,2.7464,2.7388,2.7261,2.7159,2.6964,2.6912,2.673,2.6349,2.6163,2.6095,2.5756,2.5384,2.5163,2.4915,2.4641,2.4367,2.4186,2.4114,2.4343,2.4389,2.4097,2.3833,3.9067,3.8722,3.8504,3.8408,3.8363,3.8363,3.842,3.8492,3.8391,3.8363,3.8262,3.803,3.7809,3.7527,3.6877,3.6445,3.6355,3.5939,3.6002,3.6256,3.6614,3.6733,3.6635,3.6657,3.6786,3.6757,3.6616,3.6806,3.6959,3.6316,3.5477,3.4703,3.4379,3.4763,3.5174,3.5506,3.6082,3.6778,3.7212,3.7275,3.7478,3.751,3.751,3.751,3.751,3.751,3.751,3.751,3.751,3.751,3.751,3.751,3.751,3.751,3.751,3.751,3.751,3.7304,3.7067,3.7035,3.7257,3.732,3.7257,3.7114,3.7257,3.7383,3.7133,3.6629,3.6658,3.5932,3.4968,3.4273,3.4304,3.3767,3.353,3.3393,3.3335,3.3256,3.3256,3.3266,3.324,3.3176,3.315,3.3043,3.2935,3.273,3.1591,3.0514,2.967,2.8826,2.8735,2.8565,2.8589,2.8501,2.8477,2.8293,2.787,2.764,2.7565,2.7333,2.7027,2.6886,2.6771,2.6455,2.6135,2.5999,2.5822,2.5465,2.5053,2.4614,2.4531,2.4887,2.5079,2.4937,2.4654,3.9228,3.9094,3.9002,3.8821,3.8639,3.8849,3.8947,3.892,3.8738,3.8544,3.8391,3.8278,3.8205,3.808,3.7942,3.762,3.76,3.7504,3.7367,3.7475,3.7765,3.7776,3.7688,3.7688,3.7834,3.7758,3.766,3.7696,3.7905,3.7594,3.7527,3.6804,3.5796,3.5631,3.6017,3.6685,3.7191,3.7397,3.7539,3.7494,3.751,3.751,3.751,3.751,3.751,3.751,3.751,3.751,3.751,3.7539,3.7539,3.7539,3.7539,3.7539,3.751,3.751,3.751,3.751,3.751,3.751,3.751,3.751,3.7494,3.751,3.751,3.751,3.7415,3.7148,3.7038,3.6421,3.5868,3.5552,3.5331,3.4383,3.383,3.3656,3.3435,3.334,3.3293,3.3266,3.3266,3.3282,3.3256,3.3229,3.3123,3.2949,3.168,3.052,2.9717,2.9029,2.8928,2.8865,2.8865,2.8842,2.8803,2.8621,2.8438,2.8326,2.8174,2.7963,2.771,2.76,2.7424,2.7144,2.686,2.6663,2.6426,2.6149,2.5753,2.5272,2.5286,2.5549,2.566,2.5688,2.5439,3.9315,3.9315,3.9315,3.9164,3.9013,3.9191,3.9315,3.9272,3.9067,3.8849,3.8672,3.8588,3.8488,3.8504,3.8375,3.8347,3.8298,3.8334,3.8439,3.8507,3.8546,3.8644,3.8644,3.8556,3.8418,3.8504,3.842,3.8363,3.8335,3.8363,3.821,3.7746,3.7138,3.6844,3.6995,3.7427,3.7759,3.7759,3.7759,3.7759,3.7788,3.7804,3.7804,3.7833,3.7833,3.7817,3.7847,3.7863,3.7833,3.7817,3.7788,3.773,3.7671,3.7612,3.7599,3.7539,3.751,3.751,3.751,3.751,3.751,3.751,3.751,3.751,3.751,3.751,3.7447,3.7462,3.7447,3.7196,3.6548,3.6187,3.5537,3.4525,3.4194,3.3972,3.3514,3.3293,3.3293,3.3293,3.3293,3.3293,3.3309,3.3251,3.3035,3.2751,3.1756,3.0741,3.0003,2.9391,2.8991,2.8944,2.8944,2.892,2.8897,2.8811,2.8748,2.8748,2.8637,2.859,2.8391,2.8271,2.8085,2.7839,2.7575,2.7323,2.7144,2.6953,2.6469,2.5947,2.5975,2.6015,2.6206,2.6218,2.6111,3.9315,3.9315,3.9315,3.9299,3.9245,3.9299,3.9315,3.9315,3.9272,3.9218,3.9137,3.8931,3.8805,3.8766,3.86,3.856,3.8588,3.8738,3.8805,3.8876,3.9013,3.9191,3.911,3.8958,3.8821,3.8722,3.8655,3.856,3.8476,3.856,3.8504,3.8504,3.8172,3.8028,3.8315,3.8347,3.8363,3.8363,3.8307,3.8278,3.825,3.8266,3.8237,3.8237,3.8237,3.8193,3.8193,3.8209,3.8164,3.8193,3.8193,3.8107,3.7947,3.7902,3.7801,3.7628,3.7599,3.7569,3.7524,3.7539,3.7599,3.7583,3.7612,3.7553,3.751,3.751,3.751,3.751,3.7494,3.7164,3.6753,3.639,3.5663,3.511,3.481,3.4352,3.3925,3.353,3.3577,3.3356,3.3293,3.3293,3.3293,3.323,3.2929,3.2461,3.1688,3.0977,3.0353,2.9793,2.9336,2.9037,2.8998,2.8998,2.9014,2.9045,2.9068,2.9091,2.9045,2.8912,2.8889,2.8803,2.8622,2.8455,2.8295,2.8061,2.7938,2.7839,2.7236,2.6654,2.6351,2.6365,2.658,2.6674,2.65,3.9315,3.9315,3.9315,3.9315,3.9315,3.9315,3.9315,3.9315,3.9315,3.9315,3.9272,3.9148,3.9121,3.9067,3.904,3.8947,3.9002,3.9013,3.9121,3.9164,3.9272,3.9272,3.9245,3.9191,3.9121,3.911,3.9002,3.8947,3.9029,3.892,3.8975,3.9002,3.8892,3.8755,3.8504,3.8391,3.8391,3.8391,3.8363,3.8391,3.8391,3.842,3.842,3.842,3.8448,3.8448,3.8448,3.8476,3.8476,3.8476,3.8476,3.8391,3.8262,3.8234,3.8177,3.8078,3.8078,3.8078,3.8078,3.8078,3.7992,3.7889,3.7772,3.7685,3.7553,3.751,3.751,3.7539,3.7569,3.7334,3.7196,3.7162,3.6656,3.6105,3.5651,3.5047,3.4573,3.4178,3.3957,3.3514,3.3293,3.3346,3.3372,3.3477,3.3274,3.3093,3.2522,3.1693,3.1033,3.0338,2.9777,2.928,2.9091,2.9091,2.9146,2.9335,2.9335,2.9288,2.9209,2.9068,2.9091,2.9114,2.9045,2.8779,2.8803,2.8787,2.8463,2.8158,2.7799,2.7373,2.7004,2.6695,2.6765,2.6806,2.6727,3.9315,3.9315,3.9315,3.9315,3.9315,3.9315,3.9315,3.9315,3.9315,3.9315,3.9299,3.9299,3.9299,3.9299,3.9315,3.9315,3.9315,3.9299,3.9299,3.9315,3.9315,3.9315,3.9315,3.9315,3.9272,3.9315,3.9315,3.9288,3.9245,3.9288,3.9272,3.9245,3.9315,3.9083,3.8838,3.8755,3.8755,3.8782,3.8782,3.8782,3.8755,3.8755,3.8755,3.8755,3.8755,3.8727,3.8727,3.8727,3.8699,3.8699,3.8699,3.8644,3.8588,3.8532,3.8504,3.8448,3.8391,3.842,3.8476,3.8516,3.8387,3.8258,3.8144,3.8004,3.7847,3.7892,3.7847,3.7817,3.773,3.7801,3.7873,3.7844,3.754,3.6981,3.6749,3.6162,3.5364,3.4999,3.4629,3.4118,3.3607,3.3607,3.3565,3.3642,3.3691,3.359,3.3448,3.2613,3.1784,3.1117,3.0537,3.0101,2.984,2.9967,2.9919,2.9753,2.9706,2.9509,2.9398,2.9319,2.9114,2.9114,2.9114,2.9114,2.9006,2.8897,2.8716,2.8424,2.8158,2.7889,2.759,2.7291,2.7078,2.7,2.6974,3.9315,3.9315,3.9315,3.9315,3.9315,3.9315,3.9315,3.9315,3.9315,3.9315,3.9315,3.9315,3.9315,3.9315,3.9315,3.9315,3.9315,3.9315,3.9315,3.9315,3.9315,3.9315,3.9315,3.9315,3.9315,3.9315,3.9315,3.9315,3.9315,3.9315,3.9315,3.9315,3.9315,3.9218,3.9181,3.9137,3.9137,3.911,3.911,3.911,3.9127,3.9181,3.9137,3.9137,3.9137,3.9137,3.9137,3.9164,3.9191,3.9191,3.9235,3.9067,3.8914,3.8832,3.8655,3.8532,3.8476,3.8644,3.8766,3.8805,3.8805,3.8722,3.8572,3.8476,3.8323,3.8237,3.8193,3.8177,3.8132,3.8399,3.8551,3.8432,3.8313,3.8144,3.8104,3.7355,3.6422,3.591,3.5523,3.4997,3.4373,3.4176,3.4109,3.4118,3.4177,3.4186,3.4072,3.3746,3.291,3.2144,3.1614,3.1278,3.1079,3.1092,3.0909,3.0561,3.0306,3.0188,2.984,2.9682,2.943,2.924,2.9256,2.9256,2.9161,2.9006,2.8873,2.874,2.8574,2.8319,2.8149,2.7805,2.7519,2.7408,2.7331,3.9315,3.9315,3.9315,3.9315,3.9315,3.9315,3.9315,3.9315,3.9315,3.9315,3.9315,3.9315,3.9315,3.9315,3.9315,3.9315,3.9315,3.9315,3.9315,3.9315,3.9315,3.9315,3.9315,3.9315,3.9315,3.9315,3.9315,3.9315,3.9315,3.9315,3.9315,3.9315,3.9315,3.9315,3.9315,3.9315,3.9315,3.9315,3.9315,3.9315,3.9315,3.9315,3.9315,3.9315,3.9315,3.9315,3.9315,3.9315,3.9315,3.9315,3.9315,3.9218,3.9175,3.9148,3.9083,3.9083,3.9056,3.9083,3.9164,3.9164,3.9175,3.9185,3.9094,3.8755,3.856,3.8504,3.8532,3.8595,3.8673,3.8903,3.9102,3.9067,3.9106,3.9139,3.9067,3.8581,3.7725,3.7198,3.6755,3.5771,3.5134,3.469,3.4625,3.4642,3.4673,3.4769,3.4719,3.4468,3.4062,3.3273,3.2772,3.2432,3.2263,3.2225,3.1782,3.1398,3.1125,3.0835,3.0544,3.0252,3.0022,2.9832,2.9611,2.9453,2.9367,2.924,2.9091,2.8936,2.8803,2.8912,2.8756,2.8359,2.8002,2.787,2.772,3.9315,3.9315,3.9315,3.9315,3.9315,3.9315,3.9315,3.9315,3.9315,3.9315,3.9315,3.9315,3.9315,3.9315,3.9315,3.9315,3.9315,3.9315,3.9315,3.9315,3.9315,3.9315,3.9315,3.9315,3.9315,3.9315,3.9315,3.9315,3.9315,3.9315,3.9315,3.9315,3.9315,3.9315,3.9315,3.9315,3.9315,3.9315,3.9315,3.9315,3.9315,3.9315,3.9315,3.9315,3.9315,3.9315,3.9315,3.9315,3.9315,3.9315,3.9315,3.9299,3.9299,3.9299,3.9272,3.9245,3.9245,3.9352,3.9484,3.952,3.9599,3.9687,3.9696,3.9575,3.9355,3.9249,3.9259,3.9322,3.9342,3.943,3.9595,3.9775,3.9944,4.0094,3.9957,3.9812,3.9227,3.8625,3.7686,3.6602,3.592,3.5388,3.5197,3.5174,3.5243,3.5464,3.5554,3.5481,3.5063,3.4449,3.3997,3.3682,3.3479,3.3312,3.2835,3.2449,3.2241,3.1951,3.1494,3.1174,3.0807,3.0489,3.0283,2.9967,2.9627,2.9516,2.9414,2.9177,2.9045,2.9216,2.9264,2.8889,2.8534,2.831,2.8125,3.9315,3.9315,3.9315,3.9315,3.9299,3.9352,3.9379,3.9352,3.9432,3.9352,3.9325,3.9315,3.9315,3.9315,3.9315,3.9315,3.9315,3.9315,3.9315,3.9315,3.9315,3.9315,3.9315,3.9315,3.9315,3.9315,3.9315,3.9315,3.9315,3.9315,3.9315,3.9315,3.9315,3.9315,3.9315,3.9315,3.9352,3.9484,3.9432,3.9405,3.9342,3.9315,3.9315,3.9315,3.9315,3.9315,3.9315,3.9315,3.9315,3.9315,3.9315,3.9315,3.9315,3.9422,3.9395,3.9441,3.952,3.9687,3.9841,3.9918,4.0079,4.0212,4.0375,4.0294,4.007,3.9859,3.9817,3.9927,3.9961,4.0111,4.0309,4.048,4.0642,4.0778,4.0739,4.0502,4.0128,3.9468,3.8568,3.7541,3.6722,3.6222,3.5837,3.5815,3.5859,3.6135,3.6216,3.6178,3.595,3.5408,3.5098,3.4798,3.4526,3.4346,3.423,3.3874,3.3545,3.3157,3.2673,3.2262,3.1998,3.1542,3.1012,3.0615,3.0227,2.9959,2.9761,2.9714,2.9761,2.9768,2.9737,2.9412,2.9139,2.8967,2.8622,3.9315,3.9315,3.9315,3.9315,3.9369,3.9642,3.9746,3.9798,4.0037,3.9825,3.9362,3.9325,3.9315,3.9315,3.9315,3.9315,3.9315,3.9315,3.9315,3.9342,3.9369,3.9432,3.9352,3.9441,3.9379,3.9315,3.9315,3.9342,3.9315,3.9315,3.9315,3.9325,3.9369,3.9395,3.9415,3.9415,3.952,3.9729,3.9729,3.9599,3.9441,3.9352,3.9315,3.9325,3.9352,3.9352,3.9352,3.9299,3.9299,3.9315,3.9315,3.9315,3.9315,3.9606,3.9746,3.9781,3.9935,4.0095,4.0237,4.0286,4.041,4.0417,4.0497,4.0635,4.0587,4.0392,4.0368,4.0473,4.0594,4.0778,4.096,4.114,4.1255,4.134,4.1408,4.1166,4.0924,4.0165,3.936,3.8547,3.7671,3.7053,3.663,3.6461,3.6523,3.6561,3.6564,3.6544,3.6541,3.6199,3.5998,3.5696,3.5447,3.5284,3.5267,3.5109,3.4687,3.4439,3.4084,3.3646,3.3193,3.2697,3.2152,3.1379,3.0867,3.0759,3.0728,3.0773,3.0774,3.0601,3.0472,3.0272,3.014,3.0,2.9435,3.991,4.0086,4.0086,4.0028,4.0011,4.0204,4.0229,4.0179,4.0319,4.017,3.9799,3.9625,3.9484,3.9352,3.9315,3.9352,3.9325,3.9315,3.9458,3.9537,3.9573,3.9729,3.9713,3.9747,3.985,3.9799,3.9599,3.9537,3.9405,3.9325,3.9325,3.9537,3.9563,3.9625,3.9722,3.9782,3.9876,4.0104,4.0129,4.0003,3.9773,3.9773,3.9799,3.9799,3.9661,3.9599,3.9468,3.9432,3.9299,3.9395,3.9501,3.9729,3.9841,4.0028,4.0104,4.0162,4.0269,4.0473,4.0611,4.07,4.0754,4.0802,4.0896,4.1163,4.1186,4.103,4.1007,4.1123,4.1123,4.1277,4.1277,4.1408,4.1453,4.1515,4.1538,4.1405,4.1121,4.0609,4.0084,3.9625,3.8674,3.769,3.7248,3.6751,3.6792,3.664,3.6702,3.6705,3.6722,3.6742,3.6606,3.6485,3.6135,3.6071,3.6075,3.5907,3.5647,3.5476,3.5299,3.4837,3.4266,3.3809,3.3266,3.261,3.212,3.1927,3.1903,3.1838,3.1622,3.1421,3.1331,3.1202,3.1131,3.106,3.0725,4.0685,4.1087,4.1087,4.099,4.0855,4.0896,4.0784,4.0642,4.0625,4.0642,4.0546,4.0286,3.9893,3.9573,3.9441,3.9441,3.9478,3.9635,3.9764,3.9867,3.9944,4.0054,4.0187,4.0343,4.0269,4.0195,4.0054,3.9816,3.9582,3.9609,3.9738,3.9935,4.002,4.0079,4.0319,4.04,4.0392,4.0466,4.049,4.0538,4.049,4.0424,4.0326,4.0245,4.0154,3.9986,3.9833,3.9703,3.9468,3.9573,3.9807,4.0003,4.0237,4.0368,4.0483,4.0514,4.0659,4.0849,4.1001,4.1094,4.1255,4.1431,4.156,4.1604,4.1582,4.156,4.156,4.156,4.1582,4.1582,4.1582,4.1582,4.1582,4.1582,4.1604,4.1604,4.1288,4.1025,4.0762,4.0463,3.9564,3.8488,3.7939,3.7443,3.7103,3.6937,3.6795,3.6742,3.6745,3.6806,3.6788,3.6748,3.6609,3.6606,3.6643,3.6482,3.6195,3.6131,3.5898,3.5627,3.5329,3.4835,3.4374,3.3942,3.3548,3.329,3.2978,3.2819,3.2583,3.2492,3.2228,3.2194,3.2196,3.2151,3.2131,4.1018,4.111,4.111,4.1087,4.1105,4.1405,4.1494,4.1516,4.177,4.1753,4.145,4.1338,4.0955,4.0178,4.0195,4.017,4.007,4.012,4.017,4.0294,4.0311,4.0368,4.049,4.0659,4.0466,4.0392,4.0343,4.0269,3.9986,4.007,4.022,4.0319,4.0319,4.0368,4.0392,4.0497,4.0666,4.0802,4.0937,4.0977,4.103,4.0849,4.0449,4.0368,4.0326,4.0319,4.0269,4.0245,4.0195,4.022,4.0269,4.0351,4.0563,4.0772,4.0866,4.0937,4.1076,4.1232,4.1363,4.1386,4.1538,4.156,4.1604,4.1604,4.1582,4.1582,4.1582,4.1582,4.1582,4.1582,4.1582,4.1582,4.1604,4.1604,4.1604,4.1604,4.1446,4.1323,4.1165,4.0797,4.0253,3.9512,3.8982,3.847,3.7927,3.7711,3.7379,3.7309,3.7079,3.7031,3.7033,3.6926,3.6926,3.6826,3.6705,3.6705,3.6544,3.6544,3.6464,3.6203,3.5977,3.5786,3.5384,3.4936,3.4812,3.4631,3.4319,3.3899,3.4057,3.3958,3.3397,3.3163,3.3228,3.3185,3.3132]}]]